Time,TemperatureF,DewpointF,PressureIn,WindDirection,WindDirectionDegrees,WindSpeedMPH,WindSpeedGustMPH,Humidity,HourlyPrecipIn,Conditions,Clouds,dailyrainin,SolarRadiationWatts/m^2,SoftwareType,DateUTC
2013-05-26 00:00:00,46.1,40.9,30.09,North,9,0.0,0.0,82,0.00,,CLR,0.00,0.00,VWS V14.01,2013-05-26 04:00:00,
2013-05-26 00:01:00,46.4,40.6,30.08,North,9,0.0,0.0,80,0.00,,FEW110,0.00,0.00,VWS V14.01,2013-05-26 04:01:00,
2013-05-26 00:02:00,46.1,40.9,30.09,North,9,0.0,0.0,82,0.00,,CLR,0.00,0.00,VWS V14.01,2013-05-26 04:02:00,
2013-05-26 00:03:00,46.1,40.9,30.09,North,9,0.0,0.0,82,0.00,,CLR,0.00,0.00,VWS V14.01,2013-05-26 04:03:00,
2013-05-26 00:04:00,46.1,40.9,30.09,North,9,0.0,0.0,82,0.00,,CLR,0.00,0.00,VWS V14.01,2013-05-26 04:04:00,
2013-05-26 00:05:00,46.1,40.9,30.09,North,9,0.0,0.0,82,0.00,,CLR,0.00,0.00,VWS V14.01,2013-05-26 04:05:00,
2013-05-26 00:06:00,46.0,40.8,30.09,North,9,0.0,0.0,82,0.00,,CLR,0.00,0.00,VWS V14.01,2013-05-26 04:06:00,
2013-05-26 00:07:00,46.2,40.7,30.08,North,9,0.0,0.0,81,0.00,,CLR,0.00,0.00,VWS V14.01,2013-05-26 04:07:00,
2013-05-26 00:08:00,46.0,40.8,30.09,North,9,0.0,0.0,82,0.00,,CLR,0.00,0.00,VWS V14.01,2013-05-26 04:08:00,
2013-05-26 00:09:00,46.0,41.1,30.09,North,9,0.0,0.0,83,0.00,,CLR,0.00,0.00,VWS V14.01,2013-05-26 04:09:00,
2013-05-26 00:10:00,45.8,40.6,30.09,North,9,0.0,0.0,82,0.00,,CLR,0.00,0.00,VWS V14.01,2013-05-26 04:10:00,
2013-05-26 00:11:00,46.1,40.9,30.09,North,9,0.0,0.0,82,0.00,,CLR,0.00,0.00,VWS V14.01,2013-05-26 04:11:00,
2013-05-26 00:12:00,45.8,40.9,30.09,North,9,0.0,0.0,83,0.00,,CLR,0.00,0.00,VWS V14.01,2013-05-26 04:12:00,
2013-05-26 00:13:00,45.8,40.9,30.09,North,9,0.0,0.0,83,0.00,,CLR,0.00,0.00,VWS V14.01,2013-05-26 04:13:00,
2013-05-26 00:14:00,45.7,40.8,30.09,North,9,0.0,0.0,83,0.00,,CLR,0.00,0.00,VWS V14.01,2013-05-26 04:14:00,
2013-05-26 00:15:00,45.7,40.8,30.08,North,9,0.0,0.0,83,0.00,,CLR,0.00,0.00,VWS V14.01,2013-05-26 04:15:00,
2013-05-26 00:16:00,46.0,40.8,30.09,North,9,0.0,0.0,82,0.00,,CLR,0.00,0.00,VWS V14.01,2013-05-26 04:16:00,
2013-05-26 00:17:00,45.7,40.8,30.08,North,9,0.0,0.0,83,0.00,,CLR,0.00,0.00,VWS V14.01,2013-05-26 04:17:00,
2013-05-26 00:18:00,45.5,40.7,30.08,North,9,0.0,0.0,83,0.00,,CLR,0.00,0.00,VWS V14.01,2013-05-26 04:18:00,
2013-05-26 00:19:00,45.5,40.7,30.08,North,9,0.0,0.0,83,0.00,,CLR,0.00,0.00,VWS V14.01,2013-05-26 04:19:00,
2013-05-26 00:20:00,45.5,41.0,30.08,North,9,0.0,0.0,84,0.00,,CLR,0.00,0.00,VWS V14.01,2013-05-26 04:20:00,
2013-05-26 00:21:00,45.8,40.9,30.09,North,9,0.0,0.0,83,0.00,,CLR,0.00,0.00,VWS V14.01,2013-05-26 04:21:00,
2013-05-26 00:22:00,45.4,40.9,30.08,North,9,0.0,0.0,84,0.00,,CLR,0.00,0.00,VWS V14.01,2013-05-26 04:22:00,
2013-05-26 00:23:00,45.4,40.9,30.08,North,9,0.0,0.0,84,0.00,,CLR,0.00,0.00,VWS V14.01,2013-05-26 04:23:00,
2013-05-26 00:24:00,45.4,40.9,30.08,North,9,0.0,0.0,84,0.00,,CLR,0.00,0.00,VWS V14.01,2013-05-26 04:24:00,
2013-05-26 00:25:00,45.4,40.9,30.08,North,9,0.0,0.0,84,0.00,,CLR,0.00,0.00,VWS V14.01,2013-05-26 04:25:00,
2013-05-26 00:26:00,45.7,40.8,30.08,North,9,0.0,0.0,83,0.00,,CLR,0.00,0.00,VWS V14.01,2013-05-26 04:26:00,
2013-05-26 00:27:00,45.4,40.9,30.08,North,9,0.0,0.0,84,0.00,,CLR,0.00,0.00,VWS V14.01,2013-05-26 04:27:00,
2013-05-26 00:28:00,45.4,40.9,30.08,North,9,0.0,0.0,84,0.00,,CLR,0.00,0.00,VWS V14.01,2013-05-26 04:28:00,
2013-05-26 00:29:00,45.4,40.9,30.08,North,9,0.0,0.0,84,0.00,,CLR,0.00,0.00,VWS V14.01,2013-05-26 04:29:00,
2013-05-26 00:30:00,45.4,40.9,30.08,North,9,0.0,0.0,84,0.00,,CLR,0.00,0.00,VWS V14.01,2013-05-26 04:30:00,
2013-05-26 00:31:00,45.4,40.9,30.08,North,9,0.0,0.0,84,0.00,,CLR,0.00,0.00,VWS V14.01,2013-05-26 04:31:00,
2013-05-26 00:32:00,45.4,40.9,30.08,North,9,0.0,0.0,84,0.00,,CLR,0.00,0.00,VWS V14.01,2013-05-26 04:32:00,
2013-05-26 00:33:00,45.4,40.9,30.08,North,9,0.0,0.0,84,0.00,,CLR,0.00,0.00,VWS V14.01,2013-05-26 04:33:00,
2013-05-26 00:34:00,45.4,40.9,30.08,North,9,0.0,0.0,84,0.00,,CLR,0.00,0.00,VWS V14.01,2013-05-26 04:34:00,
2013-05-26 00:35:00,45.4,40.9,30.08,North,9,0.0,0.0,84,0.00,,CLR,0.00,0.00,VWS V14.01,2013-05-26 04:35:00,
2013-05-26 00:36:00,45.4,40.9,30.08,North,9,0.0,0.0,84,0.00,,CLR,0.00,0.00,VWS V14.01,2013-05-26 04:36:00,
2013-05-26 00:37:00,45.4,40.9,30.08,North,9,0.0,0.0,84,0.00,,CLR,0.00,0.00,VWS V14.01,2013-05-26 04:37:00,
2013-05-26 00:38:00,45.4,40.9,30.08,North,9,0.0,0.0,84,0.00,,CLR,0.00,0.00,VWS V14.01,2013-05-26 04:38:00,
2013-05-26 00:39:00,45.4,40.9,30.08,North,9,0.0,0.0,84,0.00,,CLR,0.00,0.00,VWS V14.01,2013-05-26 04:39:00,
2013-05-26 00:40:00,45.4,40.9,30.08,North,9,0.0,0.0,84,0.00,,CLR,0.00,0.00,VWS V14.01,2013-05-26 04:40:00,
2013-05-26 00:41:00,45.4,40.9,30.08,North,9,0.0,0.0,84,0.00,,CLR,0.00,0.00,VWS V14.01,2013-05-26 04:41:00,
2013-05-26 00:42:00,45.4,40.9,30.08,North,9,0.0,0.0,84,0.00,,CLR,0.00,0.00,VWS V14.01,2013-05-26 04:42:00,
2013-05-26 00:43:00,45.4,40.9,30.08,North,9,0.0,0.0,84,0.00,,CLR,0.00,0.00,VWS V14.01,2013-05-26 04:43:00,
2013-05-26 00:44:00,45.4,40.9,30.08,North,9,0.0,0.0,84,0.00,,CLR,0.00,0.00,VWS V14.01,2013-05-26 04:44:00,
2013-05-26 00:45:00,45.2,40.7,30.08,North,9,0.0,0.0,84,0.00,,CLR,0.00,0.00,VWS V14.01,2013-05-26 04:45:00,
2013-05-26 00:46:00,45.4,40.9,30.08,North,9,0.0,0.0,84,0.00,,CLR,0.00,0.00,VWS V14.01,2013-05-26 04:46:00,
2013-05-26 00:47:00,45.2,40.7,30.08,North,9,0.0,0.0,84,0.00,,CLR,0.00,0.00,VWS V14.01,2013-05-26 04:47:00,
2013-05-26 00:48:00,45.2,40.3,30.08,North,9,0.0,0.0,83,0.00,,CLR,0.00,0.00,VWS V14.01,2013-05-26 04:48:00,
2013-05-26 00:49:00,45.2,40.3,30.08,North,9,0.0,0.0,83,0.00,,CLR,0.00,0.00,VWS V14.01,2013-05-26 04:49:00,
2013-05-26 00:50:00,45.2,40.3,30.08,North,9,0.0,0.0,83,0.00,,CLR,0.00,0.00,VWS V14.01,2013-05-26 04:50:00,
2013-05-26 00:51:00,45.4,40.9,30.08,North,9,0.0,0.0,84,0.00,,CLR,0.00,0.00,VWS V14.01,2013-05-26 04:51:00,
2013-05-26 00:52:00,45.2,40.3,30.08,North,9,0.0,0.0,83,0.00,,CLR,0.00,0.00,VWS V14.01,2013-05-26 04:52:00,
2013-05-26 00:53:00,45.2,40.3,30.08,North,9,0.0,0.0,83,0.00,,CLR,0.00,0.00,VWS V14.01,2013-05-26 04:53:00,
2013-05-26 00:54:00,45.2,40.3,30.08,North,9,0.0,0.0,83,0.00,,CLR,0.00,0.00,VWS V14.01,2013-05-26 04:54:00,
2013-05-26 00:55:00,45.2,40.3,30.08,North,9,0.0,0.0,83,0.00,,CLR,0.00,0.00,VWS V14.01,2013-05-26 04:55:00,
2013-05-26 00:56:00,45.2,40.7,30.08,North,9,0.0,0.0,84,0.00,,CLR,0.00,0.00,VWS V14.01,2013-05-26 04:56:00,
2013-05-26 00:57:00,45.1,40.2,30.08,North,9,0.0,0.0,83,0.00,,CLR,0.00,0.00,VWS V14.01,2013-05-26 04:57:00,
2013-05-26 00:58:00,45.1,40.2,30.08,North,9,0.0,0.0,83,0.00,,CLR,0.00,0.00,VWS V14.01,2013-05-26 04:58:00,
2013-05-26 00:59:00,45.1,40.2,30.08,North,9,0.0,0.0,83,0.00,,CLR,0.00,0.00,VWS V14.01,2013-05-26 04:59:00,
2013-05-26 01:00:00,45.1,40.2,30.08,North,9,0.0,0.0,83,0.00,,CLR,0.00,0.00,VWS V14.01,2013-05-26 05:00:00,
2013-05-26 01:01:00,45.2,40.3,30.08,North,9,0.0,0.0,83,0.00,,CLR,0.00,0.00,VWS V14.01,2013-05-26 05:01:00,
2013-05-26 01:02:00,45.1,40.2,30.08,North,9,0.0,0.0,83,0.00,,CLR,0.00,0.00,VWS V14.01,2013-05-26 05:02:00,
2013-05-26 01:03:00,45.1,40.2,30.08,North,9,0.0,0.0,83,0.00,,CLR,0.00,0.00,VWS V14.01,2013-05-26 05:03:00,
2013-05-26 01:04:00,45.1,40.2,30.08,North,9,0.0,0.0,83,0.00,,CLR,0.00,0.00,VWS V14.01,2013-05-26 05:04:00,
2013-05-26 01:05:00,45.1,40.2,30.08,North,9,0.0,0.0,83,0.00,,CLR,0.00,0.00,VWS V14.01,2013-05-26 05:05:00,
2013-05-26 01:06:00,45.1,40.2,30.08,North,9,0.0,0.0,83,0.00,,CLR,0.00,0.00,VWS V14.01,2013-05-26 05:06:00,
2013-05-26 01:07:00,44.9,40.1,30.08,North,9,0.0,0.0,83,0.00,,CLR,0.00,0.00,VWS V14.01,2013-05-26 05:07:00,
2013-05-26 01:08:00,44.9,40.1,30.08,North,9,0.0,0.0,83,0.00,,CLR,0.00,0.00,VWS V14.01,2013-05-26 05:08:00,
2013-05-26 01:09:00,44.9,40.1,30.08,North,9,0.0,0.0,83,0.00,,CLR,0.00,0.00,VWS V14.01,2013-05-26 05:09:00,
2013-05-26 01:10:00,44.9,40.1,30.08,North,9,0.0,0.0,83,0.00,,CLR,0.00,0.00,VWS V14.01,2013-05-26 05:10:00,
2013-05-26 01:11:00,45.1,40.2,30.08,North,9,0.0,0.0,83,0.00,,CLR,0.00,0.00,VWS V14.01,2013-05-26 05:11:00,
2013-05-26 01:12:00,44.9,40.1,30.08,North,9,0.0,0.0,83,0.00,,CLR,0.00,0.00,VWS V14.01,2013-05-26 05:12:00,
2013-05-26 01:13:00,44.9,40.1,30.08,North,9,0.0,0.0,83,0.00,,CLR,0.00,0.00,VWS V14.01,2013-05-26 05:13:00,
2013-05-26 01:14:00,44.9,40.1,30.08,North,9,0.0,0.0,83,0.00,,CLR,0.00,0.00,VWS V14.01,2013-05-26 05:14:00,
2013-05-26 01:15:00,44.9,40.1,30.08,North,9,0.0,0.0,83,0.00,,CLR,0.00,0.00,VWS V14.01,2013-05-26 05:15:00,
2013-05-26 01:16:00,44.9,40.1,30.08,North,9,0.0,0.0,83,0.00,,CLR,0.00,0.00,VWS V14.01,2013-05-26 05:16:00,
2013-05-26 01:17:00,44.9,40.1,30.08,North,9,0.0,0.0,83,0.00,,CLR,0.00,0.00,VWS V14.01,2013-05-26 05:17:00,
2013-05-26 01:18:00,44.8,40.0,30.08,North,9,0.0,0.0,83,0.00,,CLR,0.00,0.00,VWS V14.01,2013-05-26 05:18:00,
2013-05-26 01:19:00,44.8,40.0,30.08,North,9,0.0,0.0,83,0.00,,CLR,0.00,0.00,VWS V14.01,2013-05-26 05:19:00,
2013-05-26 01:20:00,44.8,40.0,30.08,North,9,0.0,0.0,83,0.00,,CLR,0.00,0.00,VWS V14.01,2013-05-26 05:20:00,
2013-05-26 01:21:00,44.9,40.1,30.08,North,9,0.0,0.0,83,0.00,,CLR,0.00,0.00,VWS V14.01,2013-05-26 05:21:00,
2013-05-26 01:22:00,44.8,40.0,30.08,North,9,0.0,0.0,83,0.00,,CLR,0.00,0.00,VWS V14.01,2013-05-26 05:22:00,
2013-05-26 01:23:00,44.8,40.0,30.08,North,9,0.0,0.0,83,0.00,,CLR,0.00,0.00,VWS V14.01,2013-05-26 05:23:00,
2013-05-26 01:24:00,44.8,40.0,30.08,North,9,0.0,0.0,83,0.00,,CLR,0.00,0.00,VWS V14.01,2013-05-26 05:24:00,
2013-05-26 01:25:00,44.8,40.0,30.08,North,9,0.0,0.0,83,0.00,,CLR,0.00,0.00,VWS V14.01,2013-05-26 05:25:00,
2013-05-26 01:26:00,44.9,40.1,30.08,North,9,0.0,0.0,83,0.00,,CLR,0.00,0.00,VWS V14.01,2013-05-26 05:26:00,
2013-05-26 01:27:00,44.6,39.8,30.08,North,9,0.0,0.0,83,0.00,,CLR,0.00,0.00,VWS V14.01,2013-05-26 05:27:00,
2013-05-26 01:28:00,44.6,39.8,30.08,North,9,0.0,0.0,83,0.00,,CLR,0.00,0.00,VWS V14.01,2013-05-26 05:28:00,
2013-05-26 01:29:00,44.6,39.8,30.08,North,9,0.0,0.0,83,0.00,,CLR,0.00,0.00,VWS V14.01,2013-05-26 05:29:00,
2013-05-26 01:30:00,44.6,39.8,30.08,North,9,0.0,0.0,83,0.00,,CLR,0.00,0.00,VWS V14.01,2013-05-26 05:30:00,
2013-05-26 01:31:00,44.8,40.0,30.08,North,9,0.0,0.0,83,0.00,,CLR,0.00,0.00,VWS V14.01,2013-05-26 05:31:00,
2013-05-26 01:32:00,44.6,39.8,30.08,North,9,0.0,0.0,83,0.00,,CLR,0.00,0.00,VWS V14.01,2013-05-26 05:32:00,
2013-05-26 01:33:00,44.6,39.8,30.08,North,9,0.0,0.0,83,0.00,,CLR,0.00,0.00,VWS V14.01,2013-05-26 05:33:00,
2013-05-26 01:34:00,44.6,39.8,30.08,North,9,0.0,0.0,83,0.00,,CLR,0.00,0.00,VWS V14.01,2013-05-26 05:34:00,
2013-05-26 01:35:00,44.6,39.8,30.08,North,9,0.0,0.0,83,0.00,,CLR,0.00,0.00,VWS V14.01,2013-05-26 05:35:00,
2013-05-26 01:36:00,44.6,39.8,30.08,North,9,0.0,0.0,83,0.00,,CLR,0.00,0.00,VWS V14.01,2013-05-26 05:36:00,
2013-05-26 01:37:00,44.5,39.7,30.08,North,9,0.0,0.0,83,0.00,,CLR,0.00,0.00,VWS V14.01,2013-05-26 05:37:00,
2013-05-26 01:38:00,44.5,39.7,30.08,North,9,0.0,0.0,83,0.00,,CLR,0.00,0.00,VWS V14.01,2013-05-26 05:38:00,
2013-05-26 01:39:00,44.5,39.7,30.08,North,9,0.0,0.0,83,0.00,,CLR,0.00,0.00,VWS V14.01,2013-05-26 05:39:00,
2013-05-26 01:40:00,44.5,39.7,30.08,North,9,0.0,0.0,83,0.00,,CLR,0.00,0.00,VWS V14.01,2013-05-26 05:40:00,
2013-05-26 01:41:00,44.6,39.8,30.08,North,9,0.0,0.0,83,0.00,,CLR,0.00,0.00,VWS V14.01,2013-05-26 05:41:00,
2013-05-26 01:42:00,44.5,39.7,30.08,North,9,0.0,0.0,83,0.00,,CLR,0.00,0.00,VWS V14.01,2013-05-26 05:42:00,
2013-05-26 01:43:00,44.3,39.5,30.08,North,9,0.0,0.0,83,0.00,,CLR,0.00,0.00,VWS V14.01,2013-05-26 05:43:00,
2013-05-26 01:44:00,44.3,39.5,30.08,North,9,0.0,0.0,83,0.00,,CLR,0.00,0.00,VWS V14.01,2013-05-26 05:44:00,
2013-05-26 01:45:00,44.3,39.5,30.08,North,9,0.0,0.0,83,0.00,,CLR,0.00,0.00,VWS V14.01,2013-05-26 05:45:00,
2013-05-26 01:46:00,44.5,39.7,30.08,North,9,0.0,0.0,83,0.00,,CLR,0.00,0.00,VWS V14.01,2013-05-26 05:46:00,
2013-05-26 01:47:00,44.3,39.5,30.08,North,9,0.0,0.0,83,0.00,,CLR,0.00,0.00,VWS V14.01,2013-05-26 05:47:00,
2013-05-26 01:48:00,44.3,39.5,30.08,North,9,0.0,0.0,83,0.00,,CLR,0.00,0.00,VWS V14.01,2013-05-26 05:48:00,
2013-05-26 01:49:00,44.3,39.5,30.08,North,9,0.0,0.0,83,0.00,,CLR,0.00,0.00,VWS V14.01,2013-05-26 05:49:00,
2013-05-26 01:50:00,44.3,39.5,30.08,North,9,0.0,0.0,83,0.00,,CLR,0.00,0.00,VWS V14.01,2013-05-26 05:50:00,
2013-05-26 01:51:00,44.5,39.7,30.08,North,9,0.0,0.0,83,0.00,,CLR,0.00,0.00,VWS V14.01,2013-05-26 05:51:00,
2013-05-26 01:52:00,44.2,39.4,30.08,North,9,0.0,0.0,83,0.00,,CLR,0.00,0.00,VWS V14.01,2013-05-26 05:52:00,
2013-05-26 01:53:00,44.2,39.4,30.08,North,9,0.0,0.0,83,0.00,,CLR,0.00,0.00,VWS V14.01,2013-05-26 05:53:00,
2013-05-26 01:54:00,44.2,39.4,30.08,North,9,0.0,0.0,83,0.00,,CLR,0.00,0.00,VWS V14.01,2013-05-26 05:54:00,
2013-05-26 01:55:00,44.2,39.4,30.08,North,9,0.0,0.0,83,0.00,,CLR,0.00,0.00,VWS V14.01,2013-05-26 05:55:00,
2013-05-26 01:56:00,44.3,39.5,30.08,North,9,0.0,0.0,83,0.00,,CLR,0.00,0.00,VWS V14.01,2013-05-26 05:56:00,
2013-05-26 01:57:00,44.1,39.3,30.08,North,9,0.0,0.0,83,0.00,,CLR,0.00,0.00,VWS V14.01,2013-05-26 05:57:00,
2013-05-26 01:58:00,44.1,39.3,30.08,North,9,0.0,0.0,83,0.00,,CLR,0.00,0.00,VWS V14.01,2013-05-26 05:58:00,
2013-05-26 01:59:00,44.1,39.3,30.08,North,9,0.0,0.0,83,0.00,,CLR,0.00,0.00,VWS V14.01,2013-05-26 05:59:00,
2013-05-26 02:00:00,44.1,39.3,30.08,North,9,0.0,0.0,83,0.00,,CLR,0.00,0.00,VWS V14.01,2013-05-26 06:00:00,
2013-05-26 02:01:00,44.2,39.4,30.08,North,9,0.0,0.0,83,0.00,,CLR,0.00,0.00,VWS V14.01,2013-05-26 06:01:00,
2013-05-26 02:02:00,44.1,39.3,30.08,North,9,0.0,0.0,83,0.00,,CLR,0.00,0.00,VWS V14.01,2013-05-26 06:02:00,
2013-05-26 02:03:00,44.1,39.3,30.08,North,9,0.0,0.0,83,0.00,,CLR,0.00,0.00,VWS V14.01,2013-05-26 06:03:00,
2013-05-26 02:04:00,43.9,39.1,30.08,North,9,0.0,0.0,83,0.00,,CLR,0.00,0.00,VWS V14.01,2013-05-26 06:04:00,
2013-05-26 02:05:00,43.9,39.1,30.08,North,9,0.0,0.0,83,0.00,,CLR,0.00,0.00,VWS V14.01,2013-05-26 06:05:00,
2013-05-26 02:06:00,44.2,39.4,30.08,North,9,0.0,0.0,83,0.00,,CLR,0.00,0.00,VWS V14.01,2013-05-26 06:06:00,
2013-05-26 02:07:00,43.9,39.1,30.08,North,9,0.0,0.0,83,0.00,,CLR,0.00,0.00,VWS V14.01,2013-05-26 06:07:00,
2013-05-26 02:08:00,43.9,39.1,30.08,North,9,0.0,0.0,83,0.00,,CLR,0.00,0.00,VWS V14.01,2013-05-26 06:08:00,
2013-05-26 02:09:00,43.9,39.1,30.08,North,9,0.0,0.0,83,0.00,,CLR,0.00,0.00,VWS V14.01,2013-05-26 06:09:00,
2013-05-26 02:10:00,43.8,39.0,30.08,North,9,0.0,0.0,83,0.00,,CLR,0.00,0.00,VWS V14.01,2013-05-26 06:10:00,
2013-05-26 02:11:00,44.1,39.3,30.08,North,9,0.0,0.0,83,0.00,,CLR,0.00,0.00,VWS V14.01,2013-05-26 06:11:00,
2013-05-26 02:12:00,43.8,39.0,30.08,North,9,0.0,0.0,83,0.00,,CLR,0.00,0.00,VWS V14.01,2013-05-26 06:12:00,
2013-05-26 02:13:00,43.8,39.0,30.08,North,9,0.0,0.0,83,0.00,,CLR,0.00,0.00,VWS V14.01,2013-05-26 06:13:00,
2013-05-26 02:14:00,43.8,39.0,30.08,North,9,0.0,0.0,83,0.00,,CLR,0.00,0.00,VWS V14.01,2013-05-26 06:14:00,
2013-05-26 02:15:00,43.6,38.8,30.08,North,9,0.0,0.0,83,0.00,,CLR,0.00,0.00,VWS V14.01,2013-05-26 06:15:00,
2013-05-26 02:16:00,43.9,39.1,30.08,North,9,0.0,0.0,83,0.00,,CLR,0.00,0.00,VWS V14.01,2013-05-26 06:16:00,
2013-05-26 02:17:00,43.6,38.8,30.08,North,9,0.0,0.0,83,0.00,,CLR,0.00,0.00,VWS V14.01,2013-05-26 06:17:00,
2013-05-26 02:18:00,43.6,38.8,30.08,North,9,0.0,0.0,83,0.00,,CLR,0.00,0.00,VWS V14.01,2013-05-26 06:18:00,
2013-05-26 02:19:00,43.6,38.8,30.08,North,9,0.0,0.0,83,0.00,,CLR,0.00,0.00,VWS V14.01,2013-05-26 06:19:00,
2013-05-26 02:20:00,43.6,38.8,30.08,North,9,0.0,0.0,83,0.00,,CLR,0.00,0.00,VWS V14.01,2013-05-26 06:20:00,
2013-05-26 02:21:00,43.8,39.0,30.08,North,9,0.0,0.0,83,0.00,,CLR,0.00,0.00,VWS V14.01,2013-05-26 06:21:00,
2013-05-26 02:22:00,43.5,38.7,30.08,North,9,0.0,0.0,83,0.00,,CLR,0.00,0.00,VWS V14.01,2013-05-26 06:22:00,
2013-05-26 02:23:00,43.5,38.7,30.08,North,9,0.0,0.0,83,0.00,,CLR,0.00,0.00,VWS V14.01,2013-05-26 06:23:00,
2013-05-26 02:24:00,43.5,38.7,30.08,North,9,0.0,0.0,83,0.00,,CLR,0.00,0.00,VWS V14.01,2013-05-26 06:24:00,
2013-05-26 02:25:00,43.5,38.7,30.08,North,9,0.0,0.0,83,0.00,,CLR,0.00,0.00,VWS V14.01,2013-05-26 06:25:00,
2013-05-26 02:26:00,43.6,38.8,30.08,North,9,0.0,0.0,83,0.00,,CLR,0.00,0.00,VWS V14.01,2013-05-26 06:26:00,
2013-05-26 02:27:00,43.3,38.5,30.08,North,9,0.0,0.0,83,0.00,,CLR,0.00,0.00,VWS V14.01,2013-05-26 06:27:00,
2013-05-26 02:28:00,43.3,38.5,30.08,North,9,0.0,0.0,83,0.00,,CLR,0.00,0.00,VWS V14.01,2013-05-26 06:28:00,
2013-05-26 02:29:00,43.3,38.5,30.08,North,9,0.0,0.0,83,0.00,,CLR,0.00,0.00,VWS V14.01,2013-05-26 06:29:00,
2013-05-26 02:30:00,43.3,38.5,30.08,North,9,0.0,0.0,83,0.00,,CLR,0.00,0.00,VWS V14.01,2013-05-26 06:30:00,
2013-05-26 02:31:00,43.5,38.7,30.08,North,9,0.0,0.0,83,0.00,,CLR,0.00,0.00,VWS V14.01,2013-05-26 06:31:00,
2013-05-26 02:32:00,43.3,38.5,30.08,North,9,0.0,0.0,83,0.00,,CLR,0.00,0.00,VWS V14.01,2013-05-26 06:32:00,
2013-05-26 02:33:00,43.2,38.4,30.08,North,9,0.0,0.0,83,0.00,,CLR,0.00,0.00,VWS V14.01,2013-05-26 06:33:00,
2013-05-26 02:34:00,43.2,38.4,30.08,North,9,0.0,0.0,83,0.00,,CLR,0.00,0.00,VWS V14.01,2013-05-26 06:34:00,
2013-05-26 02:35:00,43.2,38.7,30.08,North,9,0.0,0.0,84,0.00,,CLR,0.00,0.00,VWS V14.01,2013-05-26 06:35:00,
2013-05-26 02:36:00,43.3,38.5,30.08,North,9,0.0,0.0,83,0.00,,CLR,0.00,0.00,VWS V14.01,2013-05-26 06:36:00,
2013-05-26 02:37:00,43.2,38.7,30.08,North,9,0.0,0.0,84,0.00,,CLR,0.00,0.00,VWS V14.01,2013-05-26 06:37:00,
2013-05-26 02:38:00,43.1,38.6,30.08,North,9,0.0,0.0,84,0.00,,CLR,0.00,0.00,VWS V14.01,2013-05-26 06:38:00,
2013-05-26 02:39:00,43.1,38.6,30.08,North,9,0.0,0.0,84,0.00,,CLR,0.00,0.00,VWS V14.01,2013-05-26 06:39:00,
2013-05-26 02:40:00,43.1,38.6,30.08,North,9,0.0,0.0,84,0.00,,CLR,0.00,0.00,VWS V14.01,2013-05-26 06:40:00,
2013-05-26 02:41:00,43.3,38.5,30.08,North,9,0.0,0.0,83,0.00,,CLR,0.00,0.00,VWS V14.01,2013-05-26 06:41:00,
2013-05-26 02:42:00,43.1,38.6,30.08,North,9,0.0,0.0,84,0.00,,CLR,0.00,0.00,VWS V14.01,2013-05-26 06:42:00,
2013-05-26 02:43:00,43.1,38.6,30.08,North,9,0.0,0.0,84,0.00,,CLR,0.00,0.00,VWS V14.01,2013-05-26 06:43:00,
2013-05-26 02:44:00,43.1,38.6,30.08,North,9,0.0,0.0,84,0.00,,CLR,0.00,0.00,VWS V14.01,2013-05-26 06:44:00,
2013-05-26 02:45:00,42.9,38.4,30.07,North,9,0.0,0.0,84,0.00,,CLR,0.00,0.00,VWS V14.01,2013-05-26 06:45:00,
2013-05-26 02:46:00,42.9,38.4,30.07,North,9,0.0,0.0,84,0.00,,CLR,0.00,0.00,VWS V14.01,2013-05-26 06:46:00,
2013-05-26 02:47:00,43.2,38.7,30.08,North,9,0.0,0.0,84,0.00,,CLR,0.00,0.00,VWS V14.01,2013-05-26 06:47:00,
2013-05-26 02:48:00,42.9,38.4,30.07,North,9,0.0,0.0,84,0.00,,CLR,0.00,0.00,VWS V14.01,2013-05-26 06:48:00,
2013-05-26 02:49:00,42.9,38.4,30.07,North,9,0.0,0.0,84,0.00,,CLR,0.00,0.00,VWS V14.01,2013-05-26 06:49:00,
2013-05-26 02:50:00,42.9,38.4,30.07,North,9,0.0,0.0,84,0.00,,CLR,0.00,0.00,VWS V14.01,2013-05-26 06:50:00,
2013-05-26 02:51:00,42.8,38.3,30.07,North,9,0.0,0.0,84,0.00,,CLR,0.00,0.00,VWS V14.01,2013-05-26 06:51:00,
2013-05-26 02:52:00,43.1,38.6,30.08,North,9,0.0,0.0,84,0.00,,CLR,0.00,0.00,VWS V14.01,2013-05-26 06:52:00,
2013-05-26 02:53:00,42.8,38.3,30.07,North,9,0.0,0.0,84,0.00,,CLR,0.00,0.00,VWS V14.01,2013-05-26 06:53:00,
2013-05-26 02:54:00,42.8,38.3,30.07,North,9,0.0,0.0,84,0.00,,CLR,0.00,0.00,VWS V14.01,2013-05-26 06:54:00,
2013-05-26 02:55:00,42.8,38.3,30.07,North,9,0.0,0.0,84,0.00,,CLR,0.00,0.00,VWS V14.01,2013-05-26 06:55:00,
2013-05-26 02:56:00,42.9,38.4,30.07,North,9,0.0,0.0,84,0.00,,CLR,0.00,0.00,VWS V14.01,2013-05-26 06:56:00,
2013-05-26 02:57:00,42.6,38.1,30.07,North,9,0.0,0.0,84,0.00,,CLR,0.00,0.00,VWS V14.01,2013-05-26 06:57:00,
2013-05-26 02:58:00,42.6,38.1,30.07,North,9,0.0,0.0,84,0.00,,CLR,0.00,0.00,VWS V14.01,2013-05-26 06:58:00,
2013-05-26 02:59:00,42.6,38.1,30.07,North,9,0.0,0.0,84,0.00,,CLR,0.00,0.00,VWS V14.01,2013-05-26 06:59:00,
2013-05-26 03:00:00,42.6,38.1,30.07,North,9,0.0,0.0,84,0.00,,CLR,0.00,0.00,VWS V14.01,2013-05-26 07:00:00,
2013-05-26 03:01:00,42.6,38.1,30.07,North,9,0.0,0.0,84,0.00,,CLR,0.00,0.00,VWS V14.01,2013-05-26 07:01:00,
2013-05-26 03:02:00,42.8,38.3,30.07,North,9,0.0,0.0,84,0.00,,CLR,0.00,0.00,VWS V14.01,2013-05-26 07:02:00,
2013-05-26 03:03:00,42.6,38.1,30.07,North,9,0.0,0.0,84,0.00,,CLR,0.00,0.00,VWS V14.01,2013-05-26 07:03:00,
2013-05-26 03:04:00,42.5,38.0,30.07,North,9,0.0,0.0,84,0.00,,CLR,0.00,0.00,VWS V14.01,2013-05-26 07:04:00,
2013-05-26 03:05:00,42.5,38.0,30.07,North,9,0.0,0.0,84,0.00,,CLR,0.00,0.00,VWS V14.01,2013-05-26 07:05:00,
2013-05-26 03:06:00,42.6,38.1,30.07,North,9,0.0,0.0,84,0.00,,CLR,0.00,0.00,VWS V14.01,2013-05-26 07:06:00,
2013-05-26 03:07:00,42.5,38.0,30.07,North,9,0.0,0.0,84,0.00,,CLR,0.00,0.00,VWS V14.01,2013-05-26 07:07:00,
2013-05-26 03:08:00,42.5,38.0,30.07,North,9,0.0,0.0,84,0.00,,CLR,0.00,0.00,VWS V14.01,2013-05-26 07:08:00,
2013-05-26 03:09:00,42.5,38.0,30.07,North,9,0.0,0.0,84,0.00,,CLR,0.00,0.00,VWS V14.01,2013-05-26 07:09:00,
2013-05-26 03:10:00,42.5,38.0,30.07,North,9,0.0,0.0,84,0.00,,CLR,0.00,0.00,VWS V14.01,2013-05-26 07:10:00,
2013-05-26 03:11:00,42.6,38.1,30.07,North,9,0.0,0.0,84,0.00,,CLR,0.00,0.00,VWS V14.01,2013-05-26 07:11:00,
2013-05-26 03:12:00,42.3,37.8,30.07,North,9,0.0,0.0,84,0.00,,CLR,0.00,0.00,VWS V14.01,2013-05-26 07:12:00,
2013-05-26 03:13:00,42.3,37.8,30.07,North,9,0.0,0.0,84,0.00,,CLR,0.00,0.00,VWS V14.01,2013-05-26 07:13:00,
2013-05-26 03:14:00,42.3,37.8,30.07,North,9,0.0,0.0,84,0.00,,CLR,0.00,0.00,VWS V14.01,2013-05-26 07:14:00,
2013-05-26 03:15:00,42.3,37.8,30.07,North,9,0.0,0.0,84,0.00,,CLR,0.00,0.00,VWS V14.01,2013-05-26 07:15:00,
2013-05-26 03:16:00,42.5,38.0,30.07,North,9,0.0,0.0,84,0.00,,CLR,0.00,0.00,VWS V14.01,2013-05-26 07:16:00,
2013-05-26 03:17:00,42.3,37.8,30.07,North,9,0.0,0.0,84,0.00,,CLR,0.00,0.00,VWS V14.01,2013-05-26 07:17:00,
2013-05-26 03:18:00,42.3,37.8,30.07,North,9,0.0,0.0,84,0.00,,CLR,0.00,0.00,VWS V14.01,2013-05-26 07:18:00,
2013-05-26 03:19:00,42.2,37.7,30.07,North,9,0.0,0.0,84,0.00,,CLR,0.00,0.00,VWS V14.01,2013-05-26 07:19:00,
2013-05-26 03:20:00,42.2,37.7,30.07,North,9,0.0,0.0,84,0.00,,CLR,0.00,0.00,VWS V14.01,2013-05-26 07:20:00,
2013-05-26 03:21:00,42.3,37.8,30.07,North,9,0.0,0.0,84,0.00,,CLR,0.00,0.00,VWS V14.01,2013-05-26 07:21:00,
2013-05-26 03:22:00,42.2,37.7,30.07,North,9,0.0,0.0,84,0.00,,CLR,0.00,0.00,VWS V14.01,2013-05-26 07:22:00,
2013-05-26 03:23:00,42.2,37.7,30.07,North,9,0.0,0.0,84,0.00,,CLR,0.00,0.00,VWS V14.01,2013-05-26 07:23:00,
2013-05-26 03:24:00,42.2,37.7,30.07,North,9,0.0,0.0,84,0.00,,CLR,0.00,0.00,VWS V14.01,2013-05-26 07:24:00,
2013-05-26 03:25:00,42.2,38.0,30.07,North,9,0.0,0.0,85,0.00,,CLR,0.00,0.00,VWS V14.01,2013-05-26 07:25:00,
2013-05-26 03:26:00,42.3,37.8,30.07,North,9,0.0,0.0,84,0.00,,CLR,0.00,0.00,VWS V14.01,2013-05-26 07:26:00,
2013-05-26 03:27:00,42.2,38.0,30.07,North,9,0.0,0.0,85,0.00,,CLR,0.00,0.00,VWS V14.01,2013-05-26 07:27:00,
2013-05-26 03:28:00,42.1,37.9,30.07,North,9,0.0,0.0,85,0.00,,CLR,0.00,0.00,VWS V14.01,2013-05-26 07:28:00,
2013-05-26 03:29:00,42.1,37.9,30.07,North,9,0.0,0.0,85,0.00,,CLR,0.00,0.00,VWS V14.01,2013-05-26 07:29:00,
2013-05-26 03:30:00,42.1,37.9,30.06,North,9,0.0,0.0,85,0.00,,CLR,0.00,0.00,VWS V14.01,2013-05-26 07:30:00,
2013-05-26 03:31:00,42.2,37.7,30.07,North,9,0.0,0.0,84,0.00,,CLR,0.00,0.00,VWS V14.01,2013-05-26 07:31:00,
2013-05-26 03:32:00,42.1,37.9,30.06,North,9,0.0,0.0,85,0.00,,CLR,0.00,0.00,VWS V14.01,2013-05-26 07:32:00,
2013-05-26 03:33:00,42.1,37.9,30.06,North,9,0.0,0.0,85,0.00,,CLR,0.00,0.00,VWS V14.01,2013-05-26 07:33:00,
2013-05-26 03:34:00,42.1,37.9,30.06,North,9,0.0,0.0,85,0.00,,CLR,0.00,0.00,VWS V14.01,2013-05-26 07:34:00,
2013-05-26 03:35:00,42.1,37.9,30.06,North,9,0.0,0.0,85,0.00,,CLR,0.00,0.00,VWS V14.01,2013-05-26 07:35:00,
2013-05-26 03:36:00,41.9,37.7,30.06,North,9,0.0,0.0,85,0.00,,CLR,0.00,0.00,VWS V14.01,2013-05-26 07:36:00,
2013-05-26 03:37:00,42.2,38.0,30.07,North,9,0.0,0.0,85,0.00,,CLR,0.00,0.00,VWS V14.01,2013-05-26 07:37:00,
2013-05-26 03:38:00,41.9,37.7,30.06,North,9,0.0,0.0,85,0.00,,CLR,0.00,0.00,VWS V14.01,2013-05-26 07:38:00,
2013-05-26 03:39:00,41.9,37.7,30.06,North,9,0.0,0.0,85,0.00,,CLR,0.00,0.00,VWS V14.01,2013-05-26 07:39:00,
2013-05-26 03:40:00,41.9,37.7,30.06,North,9,0.0,0.0,85,0.00,,CLR,0.00,0.00,VWS V14.01,2013-05-26 07:40:00,
2013-05-26 03:41:00,42.1,37.9,30.06,North,9,0.0,0.0,85,0.00,,CLR,0.00,0.00,VWS V14.01,2013-05-26 07:41:00,
2013-05-26 03:42:00,41.9,37.7,30.06,North,9,0.0,0.0,85,0.00,,CLR,0.00,0.00,VWS V14.01,2013-05-26 07:42:00,
2013-05-26 03:43:00,41.9,37.7,30.06,North,9,0.0,0.0,85,0.00,,CLR,0.00,0.00,VWS V14.01,2013-05-26 07:43:00,
2013-05-26 03:44:00,41.9,37.7,30.06,North,9,0.0,0.0,85,0.00,,CLR,0.00,0.00,VWS V14.01,2013-05-26 07:44:00,
2013-05-26 03:45:00,41.9,37.7,30.05,North,9,0.0,0.0,85,0.00,,CLR,0.00,0.00,VWS V14.01,2013-05-26 07:45:00,
2013-05-26 03:46:00,41.9,37.7,30.05,North,9,0.0,0.0,85,0.00,,CLR,0.00,0.00,VWS V14.01,2013-05-26 07:46:00,
2013-05-26 03:47:00,41.9,37.7,30.06,North,9,0.0,0.0,85,0.00,,CLR,0.00,0.00,VWS V14.01,2013-05-26 07:47:00,
2013-05-26 03:48:00,41.8,37.6,30.05,North,9,0.0,0.0,85,0.00,,CLR,0.00,0.00,VWS V14.01,2013-05-26 07:48:00,
2013-05-26 03:49:00,41.8,37.6,30.05,North,9,0.0,0.0,85,0.00,,CLR,0.00,0.00,VWS V14.01,2013-05-26 07:49:00,
2013-05-26 03:50:00,41.8,37.6,30.05,North,9,0.0,0.0,85,0.00,,CLR,0.00,0.00,VWS V14.01,2013-05-26 07:50:00,
2013-05-26 03:51:00,41.9,37.7,30.06,North,9,0.0,0.0,85,0.00,,CLR,0.00,0.00,VWS V14.01,2013-05-26 07:51:00,
2013-05-26 03:52:00,41.8,37.6,30.05,North,9,0.0,0.0,85,0.00,,CLR,0.00,0.00,VWS V14.01,2013-05-26 07:52:00,
2013-05-26 03:53:00,41.8,37.9,30.05,North,9,0.0,0.0,86,0.00,,CLR,0.00,0.00,VWS V14.01,2013-05-26 07:53:00,
2013-05-26 03:54:00,41.8,37.9,30.05,North,9,0.0,0.0,86,0.00,,CLR,0.00,0.00,VWS V14.01,2013-05-26 07:54:00,
2013-05-26 03:55:00,41.8,37.9,30.05,North,9,0.0,0.0,86,0.00,,CLR,0.00,0.00,VWS V14.01,2013-05-26 07:55:00,
2013-05-26 03:56:00,41.9,37.7,30.05,North,9,0.0,0.0,85,0.00,,CLR,0.00,0.00,VWS V14.01,2013-05-26 07:56:00,
2013-05-26 03:57:00,41.8,37.9,30.05,North,9,0.0,0.0,86,0.00,,CLR,0.00,0.00,VWS V14.01,2013-05-26 07:57:00,
2013-05-26 03:58:00,41.8,37.9,30.05,North,9,0.0,0.0,86,0.00,,CLR,0.00,0.00,VWS V14.01,2013-05-26 07:58:00,
2013-05-26 03:59:00,41.8,37.9,30.05,North,9,0.0,0.0,86,0.00,,CLR,0.00,0.00,VWS V14.01,2013-05-26 07:59:00,
2013-05-26 04:00:00,41.8,37.9,30.05,North,9,0.0,0.0,86,0.00,,CLR,0.00,0.00,VWS V14.01,2013-05-26 08:00:00,
2013-05-26 04:01:00,41.8,37.6,30.05,North,9,0.0,0.0,85,0.00,,CLR,0.00,0.00,VWS V14.01,2013-05-26 08:01:00,
2013-05-26 04:02:00,41.8,37.9,30.05,North,9,0.0,0.0,86,0.00,,CLR,0.00,0.00,VWS V14.01,2013-05-26 08:02:00,
2013-05-26 04:03:00,41.8,37.9,30.05,North,9,0.0,0.0,86,0.00,,CLR,0.00,0.00,VWS V14.01,2013-05-26 08:03:00,
2013-05-26 04:04:00,41.8,38.2,30.05,North,9,0.0,0.0,87,0.00,,CLR,0.00,0.00,VWS V14.01,2013-05-26 08:04:00,
2013-05-26 04:05:00,41.8,38.2,30.05,North,9,0.0,0.0,87,0.00,,CLR,0.00,0.00,VWS V14.01,2013-05-26 08:05:00,
2013-05-26 04:06:00,41.8,37.9,30.05,North,9,0.0,0.0,86,0.00,,CLR,0.00,0.00,VWS V14.01,2013-05-26 08:06:00,
2013-05-26 04:07:00,41.9,38.3,30.05,North,9,0.0,0.0,87,0.00,,CLR,0.00,0.00,VWS V14.01,2013-05-26 08:07:00,
2013-05-26 04:08:00,41.9,38.3,30.05,North,9,0.0,0.0,87,0.00,,CLR,0.00,0.00,VWS V14.01,2013-05-26 08:08:00,
2013-05-26 04:09:00,41.9,38.3,30.05,North,9,0.0,0.0,87,0.00,,CLR,0.00,0.00,VWS V14.01,2013-05-26 08:09:00,
2013-05-26 04:10:00,41.9,38.3,30.05,North,9,0.0,0.0,87,0.00,,CLR,0.00,0.00,VWS V14.01,2013-05-26 08:10:00,
2013-05-26 04:11:00,41.8,37.9,30.05,North,9,0.0,0.0,86,0.00,,CLR,0.00,0.00,VWS V14.01,2013-05-26 08:11:00,
2013-05-26 04:12:00,41.9,38.3,30.05,North,9,0.0,0.0,87,0.00,,CLR,0.00,0.00,VWS V14.01,2013-05-26 08:12:00,
2013-05-26 04:13:00,42.1,38.5,30.05,North,9,0.0,0.0,87,0.00,,CLR,0.00,0.00,VWS V14.01,2013-05-26 08:13:00,
2013-05-26 04:14:00,42.1,38.8,30.05,North,9,0.0,0.0,88,0.00,,CLR,0.00,0.00,VWS V14.01,2013-05-26 08:14:00,
2013-05-26 04:15:00,42.1,38.8,30.05,North,9,0.0,0.0,88,0.00,,CLR,0.00,0.00,VWS V14.01,2013-05-26 08:15:00,
2013-05-26 04:16:00,41.9,38.3,30.05,North,9,0.0,0.0,87,0.00,,CLR,0.00,0.00,VWS V14.01,2013-05-26 08:16:00,
2013-05-26 04:17:00,42.2,38.9,30.05,North,9,0.0,0.0,88,0.00,,CLR,0.00,0.00,VWS V14.01,2013-05-26 08:17:00,
2013-05-26 04:18:00,42.2,38.9,30.05,North,9,0.0,0.0,88,0.00,,CLR,0.00,0.00,VWS V14.01,2013-05-26 08:18:00,
2013-05-26 04:19:00,42.2,38.9,30.05,North,9,0.0,0.0,88,0.00,,CLR,0.00,0.00,VWS V14.01,2013-05-26 08:19:00,
2013-05-26 04:20:00,42.2,38.9,30.05,North,9,0.0,0.0,88,0.00,,CLR,0.00,0.00,VWS V14.01,2013-05-26 08:20:00,
2013-05-26 04:21:00,42.2,38.9,30.05,North,9,0.0,0.0,88,0.00,,CLR,0.00,0.00,VWS V14.01,2013-05-26 08:21:00,
2013-05-26 04:22:00,41.9,38.3,30.05,North,9,0.0,0.0,87,0.00,,CLR,0.00,0.00,VWS V14.01,2013-05-26 08:22:00,
2013-05-26 04:23:00,42.3,39.0,30.05,North,9,0.0,0.0,88,0.00,,CLR,0.00,0.00,VWS V14.01,2013-05-26 08:23:00,
2013-05-26 04:24:00,42.3,39.0,30.05,North,9,0.0,0.0,88,0.00,,CLR,0.00,0.00,VWS V14.01,2013-05-26 08:24:00,
2013-05-26 04:25:00,42.3,39.0,30.05,North,9,0.0,0.0,88,0.00,,CLR,0.00,0.00,VWS V14.01,2013-05-26 08:25:00,
2013-05-26 04:26:00,42.2,38.9,30.05,North,9,0.0,0.0,88,0.00,,CLR,0.00,0.00,VWS V14.01,2013-05-26 08:26:00,
2013-05-26 04:27:00,42.3,39.3,30.05,North,9,0.0,0.0,89,0.00,,CLR,0.00,0.00,VWS V14.01,2013-05-26 08:27:00,
2013-05-26 04:28:00,42.5,39.5,30.05,North,9,0.0,0.0,89,0.00,,CLR,0.00,0.00,VWS V14.01,2013-05-26 08:28:00,
2013-05-26 04:29:00,42.5,39.5,30.05,North,9,0.0,0.0,89,0.00,,CLR,0.00,0.00,VWS V14.01,2013-05-26 08:29:00,
2013-05-26 04:30:00,42.5,39.5,30.05,North,9,0.0,0.0,89,0.00,,CLR,0.00,0.00,VWS V14.01,2013-05-26 08:30:00,
2013-05-26 04:31:00,42.2,38.9,30.05,North,9,0.0,0.0,88,0.00,,CLR,0.00,0.00,VWS V14.01,2013-05-26 08:31:00,
2013-05-26 04:32:00,42.6,39.6,30.05,North,9,0.0,0.0,89,0.00,,CLR,0.00,0.00,VWS V14.01,2013-05-26 08:32:00,
2013-05-26 04:33:00,42.6,39.6,30.05,North,9,0.0,0.0,89,0.00,,CLR,0.00,0.00,VWS V14.01,2013-05-26 08:33:00,
2013-05-26 04:34:00,42.6,39.6,30.05,North,9,0.0,0.0,89,0.00,,CLR,0.00,0.00,VWS V14.01,2013-05-26 08:34:00,
2013-05-26 04:35:00,42.6,39.6,30.05,North,9,0.0,0.0,89,0.00,,CLR,0.00,0.00,VWS V14.01,2013-05-26 08:35:00,
2013-05-26 04:36:00,42.3,39.3,30.05,North,9,0.0,0.0,89,0.00,,CLR,0.00,0.00,VWS V14.01,2013-05-26 08:36:00,
2013-05-26 04:37:00,42.8,39.8,30.05,North,9,0.0,0.0,89,0.00,,CLR,0.00,0.00,VWS V14.01,2013-05-26 08:37:00,
2013-05-26 04:38:00,42.8,39.8,30.05,North,9,0.0,0.0,89,0.00,,CLR,0.00,0.00,VWS V14.01,2013-05-26 08:38:00,
2013-05-26 04:39:00,42.8,39.8,30.05,North,9,0.0,0.0,89,0.00,,CLR,0.00,0.00,VWS V14.01,2013-05-26 08:39:00,
2013-05-26 04:40:00,42.8,39.8,30.05,North,9,0.0,0.0,89,0.00,,CLR,0.00,0.00,VWS V14.01,2013-05-26 08:40:00,
2013-05-26 04:41:00,42.6,39.6,30.05,North,9,0.0,0.0,89,0.00,,CLR,0.00,0.00,VWS V14.01,2013-05-26 08:41:00,
2013-05-26 04:42:00,42.8,40.1,30.05,North,9,0.0,0.0,90,0.00,,CLR,0.00,0.00,VWS V14.01,2013-05-26 08:42:00,
2013-05-26 04:43:00,42.8,40.1,30.05,North,9,0.0,0.0,90,0.00,,CLR,0.00,0.00,VWS V14.01,2013-05-26 08:43:00,
2013-05-26 04:44:00,42.9,40.2,30.05,North,9,0.0,0.0,90,0.00,,CLR,0.00,0.00,VWS V14.01,2013-05-26 08:44:00,
2013-05-26 04:45:00,42.9,40.2,30.05,North,9,0.0,0.0,90,0.00,,CLR,0.00,0.00,VWS V14.01,2013-05-26 08:45:00,
2013-05-26 04:46:00,42.9,40.2,30.05,North,9,0.0,0.0,90,0.00,,CLR,0.00,0.00,VWS V14.01,2013-05-26 08:46:00,
2013-05-26 04:47:00,42.8,39.8,30.05,North,9,0.0,0.0,89,0.00,,CLR,0.00,0.00,VWS V14.01,2013-05-26 08:47:00,
2013-05-26 04:48:00,42.9,40.2,30.05,North,9,0.0,0.0,90,0.00,,CLR,0.00,0.00,VWS V14.01,2013-05-26 08:48:00,
2013-05-26 04:49:00,42.9,40.2,30.05,North,9,0.0,0.0,90,0.00,,CLR,0.00,0.00,VWS V14.01,2013-05-26 08:49:00,
2013-05-26 04:50:00,42.9,40.2,30.05,North,9,0.0,0.0,90,0.00,,CLR,0.00,0.00,VWS V14.01,2013-05-26 08:50:00,
2013-05-26 04:51:00,42.9,40.2,30.05,North,9,0.0,0.0,90,0.00,,CLR,0.00,0.00,VWS V14.01,2013-05-26 08:51:00,
2013-05-26 04:52:00,42.8,40.1,30.05,North,9,0.0,0.0,90,0.00,,CLR,0.00,0.00,VWS V14.01,2013-05-26 08:52:00,
2013-05-26 04:53:00,42.9,40.2,30.05,North,9,0.0,0.0,90,0.00,,CLR,0.00,0.00,VWS V14.01,2013-05-26 08:53:00,
2013-05-26 04:54:00,42.9,40.2,30.05,North,9,0.0,0.0,90,0.00,,CLR,0.00,0.00,VWS V14.01,2013-05-26 08:54:00,
2013-05-26 04:55:00,42.9,40.2,30.05,North,9,0.0,0.0,90,0.00,,CLR,0.00,0.00,VWS V14.01,2013-05-26 08:55:00,
2013-05-26 04:56:00,43.1,40.4,30.05,North,9,0.0,0.0,90,0.00,,CLR,0.00,0.00,VWS V14.01,2013-05-26 08:56:00,
2013-05-26 04:57:00,42.9,40.2,30.05,North,9,0.0,0.0,90,0.00,,CLR,0.00,0.00,VWS V14.01,2013-05-26 08:57:00,
2013-05-26 04:58:00,43.1,40.4,30.05,North,9,0.0,0.0,90,0.00,,CLR,0.00,0.00,VWS V14.01,2013-05-26 08:58:00,
2013-05-26 04:59:00,43.1,40.4,30.05,North,9,0.0,0.0,90,0.00,,CLR,0.00,0.00,VWS V14.01,2013-05-26 08:59:00,
2013-05-26 05:00:00,43.1,40.4,30.06,North,9,0.0,0.0,90,0.00,,CLR,0.00,0.00,VWS V14.01,2013-05-26 09:00:00,
2013-05-26 05:01:00,43.1,40.4,30.06,North,9,0.0,0.0,90,0.00,,CLR,0.00,0.00,VWS V14.01,2013-05-26 09:01:00,
2013-05-26 05:02:00,42.9,40.2,30.05,North,9,0.0,0.0,90,0.00,,CLR,0.00,0.00,VWS V14.01,2013-05-26 09:02:00,
2013-05-26 05:03:00,43.1,40.4,30.06,North,9,0.0,0.0,90,0.00,,CLR,0.00,0.00,VWS V14.01,2013-05-26 09:03:00,
2013-05-26 05:04:00,43.1,40.4,30.06,North,9,0.0,0.0,90,0.00,,CLR,0.00,0.00,VWS V14.01,2013-05-26 09:04:00,
2013-05-26 05:05:00,43.1,40.4,30.06,North,9,0.0,0.0,90,0.00,,CLR,0.00,0.00,VWS V14.01,2013-05-26 09:05:00,
2013-05-26 05:06:00,43.1,40.4,30.06,North,9,0.0,0.0,90,0.00,,CLR,0.00,0.00,VWS V14.01,2013-05-26 09:06:00,
2013-05-26 05:07:00,43.1,40.4,30.05,North,9,0.0,0.0,90,0.00,,CLR,0.00,0.00,VWS V14.01,2013-05-26 09:07:00,
2013-05-26 05:08:00,43.1,40.4,30.06,North,9,0.0,0.0,90,0.00,,CLR,0.00,0.00,VWS V14.01,2013-05-26 09:08:00,
2013-05-26 05:09:00,43.1,40.4,30.06,North,9,0.0,0.0,90,0.00,,CLR,0.00,0.00,VWS V14.01,2013-05-26 09:09:00,
2013-05-26 05:10:00,43.1,40.4,30.06,North,9,0.0,0.0,90,0.00,,CLR,0.00,0.00,VWS V14.01,2013-05-26 09:10:00,
2013-05-26 05:11:00,43.1,40.4,30.06,North,9,0.0,0.0,90,0.00,,CLR,0.00,0.00,VWS V14.01,2013-05-26 09:11:00,
2013-05-26 05:12:00,43.1,40.4,30.06,North,9,0.0,0.0,90,0.00,,CLR,0.00,0.00,VWS V14.01,2013-05-26 09:12:00,
2013-05-26 05:13:00,43.1,40.4,30.06,North,9,0.0,0.0,90,0.00,,CLR,0.00,0.00,VWS V14.01,2013-05-26 09:13:00,
2013-05-26 05:14:00,43.2,40.5,30.06,North,9,0.0,0.0,90,0.00,,CLR,0.00,0.00,VWS V14.01,2013-05-26 09:14:00,
2013-05-26 05:15:00,43.2,40.5,30.08,North,9,0.0,0.0,90,0.00,,CLR,0.00,0.00,VWS V14.01,2013-05-26 09:15:00,
2013-05-26 05:16:00,43.2,40.5,30.08,North,9,0.0,0.0,90,0.00,,CLR,0.00,0.00,VWS V14.01,2013-05-26 09:16:00,
2013-05-26 05:17:00,43.1,40.4,30.06,North,9,0.0,0.0,90,0.00,,CLR,0.00,0.00,VWS V14.01,2013-05-26 09:17:00,
2013-05-26 05:18:00,43.2,40.5,30.08,North,9,0.0,0.0,90,0.00,,CLR,0.00,0.00,VWS V14.01,2013-05-26 09:18:00,
2013-05-26 05:19:00,43.2,40.5,30.08,North,9,0.0,0.0,90,0.00,,CLR,0.00,0.00,VWS V14.01,2013-05-26 09:19:00,
2013-05-26 05:20:00,43.2,40.5,30.08,North,9,0.0,0.0,90,0.00,,CLR,0.00,0.00,VWS V14.01,2013-05-26 09:20:00,
2013-05-26 05:21:00,43.2,40.5,30.08,North,9,0.0,0.0,90,0.00,,CLR,0.00,0.00,VWS V14.01,2013-05-26 09:21:00,
2013-05-26 05:22:00,43.1,40.4,30.06,North,9,0.0,0.0,90,0.00,,CLR,0.00,0.00,VWS V14.01,2013-05-26 09:22:00,
2013-05-26 05:23:00,43.3,40.6,30.08,North,9,0.0,0.0,90,0.00,,CLR,0.00,0.00,VWS V14.01,2013-05-26 09:23:00,
2013-05-26 05:24:00,43.3,40.6,30.08,North,9,0.0,0.0,90,0.00,,CLR,0.00,0.00,VWS V14.01,2013-05-26 09:24:00,
2013-05-26 05:25:00,43.3,40.6,30.08,North,9,0.0,0.0,90,0.00,,CLR,0.00,0.00,VWS V14.01,2013-05-26 09:25:00,
2013-05-26 05:26:00,43.3,40.6,30.08,North,9,0.0,0.0,90,0.00,,CLR,0.00,0.00,VWS V14.01,2013-05-26 09:26:00,
2013-05-26 05:27:00,43.2,40.5,30.08,North,9,0.0,0.0,90,0.00,,CLR,0.00,0.00,VWS V14.01,2013-05-26 09:27:00,
2013-05-26 05:28:00,43.3,40.6,30.08,North,9,0.0,0.0,90,0.00,,CLR,0.00,0.00,VWS V14.01,2013-05-26 09:28:00,
2013-05-26 05:29:00,43.3,40.6,30.08,North,9,0.0,0.0,90,0.00,,CLR,0.00,0.00,VWS V14.01,2013-05-26 09:29:00,
2013-05-26 05:30:00,43.3,40.6,30.08,North,9,0.0,0.0,90,0.00,,CLR,0.00,0.00,VWS V14.01,2013-05-26 09:30:00,
2013-05-26 05:31:00,43.3,40.6,30.08,North,9,0.0,0.0,90,0.00,,CLR,0.00,0.00,VWS V14.01,2013-05-26 09:31:00,
2013-05-26 05:32:00,43.3,40.6,30.08,North,9,0.0,0.0,90,0.00,,CLR,0.00,0.00,VWS V14.01,2013-05-26 09:32:00,
2013-05-26 05:33:00,43.3,40.6,30.08,North,9,0.0,0.0,90,0.00,,CLR,0.00,0.00,VWS V14.01,2013-05-26 09:33:00,
2013-05-26 05:34:00,43.5,40.8,30.08,North,9,0.0,0.0,90,0.00,,CLR,0.00,0.00,VWS V14.01,2013-05-26 09:34:00,
2013-05-26 05:35:00,43.5,40.8,30.08,North,9,0.0,0.0,90,0.00,,CLR,0.00,0.00,VWS V14.01,2013-05-26 09:35:00,
2013-05-26 05:36:00,43.5,40.8,30.08,North,9,0.0,0.0,90,0.00,,CLR,0.00,0.00,VWS V14.01,2013-05-26 09:36:00,
2013-05-26 05:37:00,43.3,40.6,30.08,North,9,0.0,0.0,90,0.00,,CLR,0.00,0.00,VWS V14.01,2013-05-26 09:37:00,
2013-05-26 05:38:00,43.5,40.8,30.08,North,9,0.0,0.0,90,0.00,,CLR,0.00,0.00,VWS V14.01,2013-05-26 09:38:00,
2013-05-26 05:39:00,43.5,40.8,30.08,North,9,0.0,0.0,90,0.00,,CLR,0.00,0.00,VWS V14.01,2013-05-26 09:39:00,
2013-05-26 05:40:00,43.5,40.8,30.08,North,9,0.0,0.0,90,0.00,,CLR,0.00,0.00,VWS V14.01,2013-05-26 09:40:00,
2013-05-26 05:41:00,43.5,40.8,30.08,North,9,0.0,0.0,90,0.00,,CLR,0.00,0.00,VWS V14.01,2013-05-26 09:41:00,
2013-05-26 05:42:00,43.3,40.6,30.08,North,9,0.0,0.0,90,0.00,,CLR,0.00,0.00,VWS V14.01,2013-05-26 09:42:00,
2013-05-26 05:43:00,43.5,40.8,30.08,North,9,0.0,0.0,90,0.00,,CLR,0.00,0.00,VWS V14.01,2013-05-26 09:43:00,
2013-05-26 05:44:00,43.6,40.9,30.08,North,9,0.0,0.0,90,0.00,,CLR,0.00,0.00,VWS V14.01,2013-05-26 09:44:00,
2013-05-26 05:45:00,43.6,40.9,30.08,North,9,0.0,0.0,90,0.00,,CLR,0.00,0.00,VWS V14.01,2013-05-26 09:45:00,
2013-05-26 05:46:00,43.6,40.9,30.08,North,9,0.0,0.0,90,0.00,,CLR,0.00,0.00,VWS V14.01,2013-05-26 09:46:00,
2013-05-26 05:47:00,43.5,40.8,30.08,North,9,0.0,0.0,90,0.00,,CLR,0.00,0.00,VWS V14.01,2013-05-26 09:47:00,
2013-05-26 05:48:00,43.6,40.9,30.08,North,9,0.0,0.0,90,0.00,,CLR,0.00,0.00,VWS V14.01,2013-05-26 09:48:00,
2013-05-26 05:49:00,43.6,40.9,30.08,North,9,0.0,0.0,90,0.00,,CLR,0.00,0.00,VWS V14.01,2013-05-26 09:49:00,
2013-05-26 05:50:00,43.6,40.9,30.08,North,9,0.0,0.0,90,0.00,,CLR,0.00,0.00,VWS V14.01,2013-05-26 09:50:00,
2013-05-26 05:51:00,43.6,40.9,30.08,North,9,0.0,0.0,90,0.00,,CLR,0.00,0.00,VWS V14.01,2013-05-26 09:51:00,
2013-05-26 05:52:00,43.5,40.8,30.08,North,9,0.0,0.0,90,0.00,,CLR,0.00,0.00,VWS V14.01,2013-05-26 09:52:00,
2013-05-26 05:53:00,43.8,41.1,30.08,North,9,0.0,0.0,90,0.00,,CLR,0.00,0.00,VWS V14.01,2013-05-26 09:53:00,
2013-05-26 05:54:00,43.8,41.1,30.08,North,9,0.0,0.0,90,0.00,,CLR,0.00,0.00,VWS V14.01,2013-05-26 09:54:00,
2013-05-26 05:55:00,43.8,41.1,30.08,North,9,0.0,0.0,90,0.00,,CLR,0.00,0.00,VWS V14.01,2013-05-26 09:55:00,
2013-05-26 05:56:00,43.8,41.1,30.08,North,9,0.0,0.0,90,0.00,,CLR,0.00,0.00,VWS V14.01,2013-05-26 09:56:00,
2013-05-26 05:57:00,43.6,40.9,30.08,North,9,0.0,0.0,90,0.00,,CLR,0.00,0.00,VWS V14.01,2013-05-26 09:57:00,
2013-05-26 05:58:00,43.8,41.1,30.08,North,9,0.0,0.0,90,0.00,,CLR,0.00,0.00,VWS V14.01,2013-05-26 09:58:00,
2013-05-26 05:59:00,43.8,41.1,30.08,North,9,0.0,0.0,90,0.00,,CLR,0.00,0.00,VWS V14.01,2013-05-26 09:59:00,
2013-05-26 06:00:00,43.8,41.1,30.07,North,9,0.0,0.0,90,0.00,,CLR,0.00,0.00,VWS V14.01,2013-05-26 10:00:00,
2013-05-26 06:01:00,43.8,41.1,30.07,North,9,0.0,0.0,90,0.00,,CLR,0.00,0.00,VWS V14.01,2013-05-26 10:01:00,
2013-05-26 06:02:00,43.8,41.1,30.08,North,9,0.0,0.0,90,0.00,,CLR,0.00,0.00,VWS V14.01,2013-05-26 10:02:00,
2013-05-26 06:03:00,43.8,41.1,30.07,North,9,0.0,0.0,90,0.00,,CLR,0.00,0.00,VWS V14.01,2013-05-26 10:03:00,
2013-05-26 06:04:00,43.8,41.1,30.07,North,9,0.0,0.0,90,0.00,,CLR,0.00,0.00,VWS V14.01,2013-05-26 10:04:00,
2013-05-26 06:05:00,43.8,41.1,30.07,North,9,0.0,0.0,90,0.00,,CLR,0.00,0.00,VWS V14.01,2013-05-26 10:05:00,
2013-05-26 06:06:00,43.8,41.1,30.07,North,9,0.0,0.0,90,0.00,,CLR,0.00,0.00,VWS V14.01,2013-05-26 10:06:00,
2013-05-26 06:07:00,43.8,41.1,30.07,North,9,0.0,0.0,90,0.00,,CLR,0.00,0.00,VWS V14.01,2013-05-26 10:07:00,
2013-05-26 06:08:00,43.8,41.1,30.08,North,9,0.0,0.0,90,0.00,,CLR,0.00,0.00,VWS V14.01,2013-05-26 10:08:00,
2013-05-26 06:09:00,43.8,41.1,30.07,North,9,0.0,0.0,90,0.00,,CLR,0.00,0.00,VWS V14.01,2013-05-26 10:09:00,
2013-05-26 06:10:00,43.8,41.1,30.07,North,9,0.0,0.0,90,0.00,,CLR,0.00,0.00,VWS V14.01,2013-05-26 10:10:00,
2013-05-26 06:11:00,43.8,41.1,30.07,North,9,0.0,0.0,90,0.00,,CLR,0.00,5.00,VWS V14.01,2013-05-26 10:11:00,
2013-05-26 06:12:00,43.8,41.1,30.07,North,9,0.0,0.0,90,0.00,,CLR,0.00,0.00,VWS V14.01,2013-05-26 10:12:00,
2013-05-26 06:13:00,43.8,41.1,30.07,North,9,0.0,0.0,90,0.00,,CLR,0.00,5.00,VWS V14.01,2013-05-26 10:13:00,
2013-05-26 06:14:00,43.8,41.1,30.07,North,9,0.0,0.0,90,0.00,,CLR,0.00,5.00,VWS V14.01,2013-05-26 10:14:00,
2013-05-26 06:15:00,43.8,40.8,30.07,North,9,0.0,0.0,89,0.00,,CLR,0.00,5.00,VWS V14.01,2013-05-26 10:15:00,
2013-05-26 06:16:00,43.8,40.8,30.07,North,9,0.0,0.0,89,0.00,,CLR,0.00,7.00,VWS V14.01,2013-05-26 10:16:00,
2013-05-26 06:17:00,43.8,41.1,30.07,North,9,0.0,0.0,90,0.00,,CLR,0.00,0.00,VWS V14.01,2013-05-26 10:17:00,
2013-05-26 06:18:00,43.8,40.8,30.07,North,9,0.0,0.0,89,0.00,,CLR,0.00,7.00,VWS V14.01,2013-05-26 10:18:00,
2013-05-26 06:19:00,43.8,40.8,30.07,North,9,0.0,0.0,89,0.00,,CLR,0.00,9.00,VWS V14.01,2013-05-26 10:19:00,
2013-05-26 06:20:00,43.8,40.8,30.07,North,9,0.0,0.0,89,0.00,,CLR,0.00,9.00,VWS V14.01,2013-05-26 10:20:00,
2013-05-26 06:21:00,43.8,40.8,30.07,North,9,0.0,0.0,89,0.00,,CLR,0.00,9.00,VWS V14.01,2013-05-26 10:21:00,
2013-05-26 06:22:00,43.8,41.1,30.07,North,9,0.0,0.0,90,0.00,,CLR,0.00,5.00,VWS V14.01,2013-05-26 10:22:00,
2013-05-26 06:23:00,43.8,40.8,30.07,North,9,0.0,0.0,89,0.00,,CLR,0.00,11.00,VWS V14.01,2013-05-26 10:23:00,
2013-05-26 06:24:00,43.8,40.8,30.07,North,9,0.0,0.0,89,0.00,,CLR,0.00,11.00,VWS V14.01,2013-05-26 10:24:00,
2013-05-26 06:25:00,43.8,40.8,30.07,North,9,0.0,0.0,89,0.00,,CLR,0.00,11.00,VWS V14.01,2013-05-26 10:25:00,
2013-05-26 06:26:00,43.8,40.8,30.07,North,9,0.0,0.0,89,0.00,,CLR,0.00,12.00,VWS V14.01,2013-05-26 10:26:00,
2013-05-26 06:27:00,43.8,40.8,30.07,North,9,0.0,0.0,89,0.00,,CLR,0.00,7.00,VWS V14.01,2013-05-26 10:27:00,
2013-05-26 06:28:00,43.8,40.8,30.07,North,9,0.0,0.0,89,0.00,,CLR,0.00,12.00,VWS V14.01,2013-05-26 10:28:00,
2013-05-26 06:29:00,43.8,40.8,30.07,North,9,0.0,0.0,89,0.00,,CLR,0.00,11.00,VWS V14.01,2013-05-26 10:29:00,
2013-05-26 06:30:00,43.8,40.8,30.08,North,9,0.0,0.0,89,0.00,,CLR,0.00,11.00,VWS V14.01,2013-05-26 10:30:00,
2013-05-26 06:31:00,43.8,40.8,30.08,North,9,0.0,0.0,89,0.00,,CLR,0.00,12.00,VWS V14.01,2013-05-26 10:31:00,
2013-05-26 06:32:00,43.8,40.8,30.07,North,9,0.0,0.0,89,0.00,,CLR,0.00,11.00,VWS V14.01,2013-05-26 10:32:00,
2013-05-26 06:33:00,43.8,40.8,30.08,North,9,0.0,0.0,89,0.00,,CLR,0.00,14.00,VWS V14.01,2013-05-26 10:33:00,
2013-05-26 06:34:00,43.8,40.8,30.08,North,9,0.0,0.0,89,0.00,,CLR,0.00,14.00,VWS V14.01,2013-05-26 10:34:00,
2013-05-26 06:35:00,43.8,40.8,30.08,North,9,0.0,0.0,89,0.00,,CLR,0.00,16.00,VWS V14.01,2013-05-26 10:35:00,
2013-05-26 06:36:00,43.8,40.8,30.08,North,9,0.0,0.0,89,0.00,,CLR,0.00,16.00,VWS V14.01,2013-05-26 10:36:00,
2013-05-26 06:37:00,43.8,40.8,30.08,North,9,0.0,0.0,89,0.00,,CLR,0.00,14.00,VWS V14.01,2013-05-26 10:37:00,
2013-05-26 06:38:00,43.8,40.8,30.07,North,9,0.0,0.0,89,0.00,,CLR,0.00,11.00,VWS V14.01,2013-05-26 10:38:00,
2013-05-26 06:39:00,43.8,40.8,30.08,North,9,0.0,0.0,89,0.00,,CLR,0.00,16.00,VWS V14.01,2013-05-26 10:39:00,
2013-05-26 06:40:00,43.8,40.8,30.08,North,9,0.0,0.0,89,0.00,,CLR,0.00,18.00,VWS V14.01,2013-05-26 10:40:00,
2013-05-26 06:41:00,43.8,40.8,30.08,North,9,0.0,0.0,89,0.00,,CLR,0.00,18.00,VWS V14.01,2013-05-26 10:41:00,
2013-05-26 06:42:00,43.8,40.8,30.08,North,9,0.0,0.0,89,0.00,,CLR,0.00,18.00,VWS V14.01,2013-05-26 10:42:00,
2013-05-26 06:43:00,43.8,40.8,30.08,North,9,0.0,0.0,89,0.00,,CLR,0.00,14.00,VWS V14.01,2013-05-26 10:43:00,
2013-05-26 06:44:00,43.8,40.8,30.08,North,9,0.0,0.0,89,0.00,,CLR,0.00,19.00,VWS V14.01,2013-05-26 10:44:00,
2013-05-26 06:45:00,43.8,40.8,30.09,North,9,0.0,0.0,89,0.00,,CLR,0.00,19.00,VWS V14.01,2013-05-26 10:45:00,
2013-05-26 06:46:00,43.9,40.9,30.09,North,9,0.0,0.0,89,0.00,,CLR,0.00,18.00,VWS V14.01,2013-05-26 10:46:00,
2013-05-26 06:47:00,43.9,40.9,30.09,North,9,0.0,0.0,89,0.00,,CLR,0.00,18.00,VWS V14.01,2013-05-26 10:47:00,
2013-05-26 06:48:00,43.8,40.8,30.08,North,9,0.0,0.0,89,0.00,,CLR,0.00,16.00,VWS V14.01,2013-05-26 10:48:00,
2013-05-26 06:49:00,43.9,40.9,30.09,North,9,0.0,0.0,89,0.00,,CLR,0.00,16.00,VWS V14.01,2013-05-26 10:49:00,
2013-05-26 06:50:00,43.9,40.9,30.09,North,9,0.0,0.0,89,0.00,,CLR,0.00,18.00,VWS V14.01,2013-05-26 10:50:00,
2013-05-26 06:51:00,43.9,40.9,30.09,North,9,0.0,0.0,89,0.00,,CLR,0.00,19.00,VWS V14.01,2013-05-26 10:51:00,
2013-05-26 06:52:00,43.9,40.9,30.09,North,9,0.0,0.0,89,0.00,,CLR,0.00,23.00,VWS V14.01,2013-05-26 10:52:00,
2013-05-26 06:53:00,43.8,40.8,30.08,North,9,0.0,0.0,89,0.00,,CLR,0.00,19.00,VWS V14.01,2013-05-26 10:53:00,
2013-05-26 06:54:00,43.9,40.9,30.09,North,9,0.0,0.0,89,0.00,,CLR,0.00,25.00,VWS V14.01,2013-05-26 10:54:00,
2013-05-26 06:55:00,43.9,40.9,30.09,North,9,0.0,0.0,89,0.00,,CLR,0.00,26.00,VWS V14.01,2013-05-26 10:55:00,
2013-05-26 06:56:00,43.9,40.6,30.09,North,9,0.0,0.0,88,0.00,,CLR,0.00,28.00,VWS V14.01,2013-05-26 10:56:00,
2013-05-26 06:57:00,43.9,40.6,30.09,North,9,0.0,0.0,88,0.00,,CLR,0.00,28.00,VWS V14.01,2013-05-26 10:57:00,
2013-05-26 06:58:00,43.9,40.6,30.09,North,9,0.0,0.0,88,0.00,,CLR,0.00,28.00,VWS V14.01,2013-05-26 10:58:00,
2013-05-26 06:59:00,43.9,40.9,30.09,North,9,0.0,0.0,89,0.00,,CLR,0.00,18.00,VWS V14.01,2013-05-26 10:59:00,
2013-05-26 07:00:00,44.1,40.8,30.08,North,9,0.0,0.0,88,0.00,,CLR,0.00,30.00,VWS V14.01,2013-05-26 11:00:00,
2013-05-26 07:01:00,44.1,40.8,30.08,North,9,0.0,0.0,88,0.00,,CLR,0.00,32.00,VWS V14.01,2013-05-26 11:01:00,
2013-05-26 07:02:00,44.1,40.8,30.08,North,9,0.0,0.0,88,0.00,,CLR,0.00,32.00,VWS V14.01,2013-05-26 11:02:00,
2013-05-26 07:03:00,44.1,40.8,30.08,North,9,0.0,0.0,88,0.00,,CLR,0.00,33.00,VWS V14.01,2013-05-26 11:03:00,
2013-05-26 07:04:00,43.9,40.9,30.09,North,9,0.0,0.0,89,0.00,,CLR,0.00,26.00,VWS V14.01,2013-05-26 11:04:00,
2013-05-26 07:05:00,44.1,40.8,30.08,North,9,0.0,0.0,88,0.00,,CLR,0.00,35.00,VWS V14.01,2013-05-26 11:05:00,
2013-05-26 07:06:00,44.1,40.8,30.08,North,9,0.0,0.0,88,0.00,,CLR,0.00,35.00,VWS V14.01,2013-05-26 11:06:00,
2013-05-26 07:07:00,44.1,40.8,30.08,North,9,0.0,0.0,88,0.00,,CLR,0.00,35.00,VWS V14.01,2013-05-26 11:07:00,
2013-05-26 07:08:00,44.1,40.8,30.08,North,9,0.0,0.0,88,0.00,,CLR,0.00,35.00,VWS V14.01,2013-05-26 11:08:00,
2013-05-26 07:09:00,44.1,40.8,30.08,North,9,0.0,0.0,88,0.00,,CLR,0.00,30.00,VWS V14.01,2013-05-26 11:09:00,
2013-05-26 07:10:00,44.1,40.8,30.08,North,9,0.0,0.0,88,0.00,,CLR,0.00,37.00,VWS V14.01,2013-05-26 11:10:00,
2013-05-26 07:11:00,44.1,40.8,30.08,North,9,0.0,0.0,88,0.00,,CLR,0.00,37.00,VWS V14.01,2013-05-26 11:11:00,
2013-05-26 07:12:00,44.1,40.8,30.08,North,9,0.0,0.0,88,0.00,,CLR,0.00,39.00,VWS V14.01,2013-05-26 11:12:00,
2013-05-26 07:13:00,44.1,40.8,30.08,North,9,0.0,0.0,88,0.00,,CLR,0.00,39.00,VWS V14.01,2013-05-26 11:13:00,
2013-05-26 07:14:00,44.1,40.8,30.08,North,9,0.0,0.0,88,0.00,,CLR,0.00,39.00,VWS V14.01,2013-05-26 11:14:00,
2013-05-26 07:15:00,44.1,40.8,30.08,North,9,0.0,0.0,88,0.00,,CLR,0.00,35.00,VWS V14.01,2013-05-26 11:15:00,
2013-05-26 07:16:00,44.1,40.8,30.09,North,9,0.0,0.0,88,0.00,,CLR,0.00,47.00,VWS V14.01,2013-05-26 11:16:00,
2013-05-26 07:17:00,44.2,40.9,30.09,North,9,0.0,0.0,88,0.00,,CLR,0.00,44.00,VWS V14.01,2013-05-26 11:17:00,
2013-05-26 07:18:00,44.2,40.9,30.09,North,9,0.0,0.0,88,0.00,,CLR,0.00,44.00,VWS V14.01,2013-05-26 11:18:00,
2013-05-26 07:19:00,44.1,40.8,30.08,North,9,0.0,0.0,88,0.00,,CLR,0.00,37.00,VWS V14.01,2013-05-26 11:19:00,
2013-05-26 07:20:00,44.2,40.9,30.09,North,9,0.0,0.0,88,0.00,,CLR,0.00,44.00,VWS V14.01,2013-05-26 11:20:00,
2013-05-26 07:21:00,44.2,40.9,30.09,North,9,0.0,0.0,88,0.00,,CLR,0.00,51.00,VWS V14.01,2013-05-26 11:21:00,
2013-05-26 07:22:00,44.2,40.9,30.09,North,9,0.0,0.0,88,0.00,,CLR,0.00,51.00,VWS V14.01,2013-05-26 11:22:00,
2013-05-26 07:23:00,44.2,40.9,30.09,North,9,0.0,0.0,88,0.00,,CLR,0.00,47.00,VWS V14.01,2013-05-26 11:23:00,
2013-05-26 07:24:00,44.3,41.0,30.09,North,9,0.0,0.0,88,0.00,,CLR,0.00,47.00,VWS V14.01,2013-05-26 11:24:00,
2013-05-26 07:25:00,44.1,40.8,30.09,North,9,0.0,0.0,88,0.00,,CLR,0.00,47.00,VWS V14.01,2013-05-26 11:25:00,
2013-05-26 07:26:00,44.3,41.0,30.09,North,9,0.0,0.0,88,0.00,,CLR,0.00,53.00,VWS V14.01,2013-05-26 11:26:00,
2013-05-26 07:27:00,44.3,41.0,30.09,North,9,0.0,0.0,88,0.00,,CLR,0.00,53.00,VWS V14.01,2013-05-26 11:27:00,
2013-05-26 07:28:00,44.5,41.2,30.09,North,9,0.0,0.0,88,0.00,,CLR,0.00,51.00,VWS V14.01,2013-05-26 11:28:00,
2013-05-26 07:29:00,44.5,41.2,30.09,North,9,0.0,0.0,88,0.00,,CLR,0.00,47.00,VWS V14.01,2013-05-26 11:29:00,
2013-05-26 07:30:00,44.2,40.9,30.09,North,9,0.0,0.0,88,0.00,,CLR,0.00,46.00,VWS V14.01,2013-05-26 11:30:00,
2013-05-26 07:31:00,44.5,41.2,30.08,North,9,0.0,0.0,88,0.00,,CLR,0.00,51.00,VWS V14.01,2013-05-26 11:31:00,
2013-05-26 07:32:00,44.6,41.3,30.08,North,9,0.0,0.0,88,0.00,,CLR,0.00,51.00,VWS V14.01,2013-05-26 11:32:00,
2013-05-26 07:33:00,44.6,41.3,30.08,North,9,0.0,0.0,88,0.00,,CLR,0.00,49.00,VWS V14.01,2013-05-26 11:33:00,
2013-05-26 07:34:00,44.6,41.3,30.08,North,9,0.0,0.0,88,0.00,,CLR,0.00,51.00,VWS V14.01,2013-05-26 11:34:00,
2013-05-26 07:35:00,44.8,41.5,30.08,North,9,0.0,0.0,88,0.00,,CLR,0.00,51.00,VWS V14.01,2013-05-26 11:35:00,
2013-05-26 07:36:00,44.3,41.0,30.09,North,9,0.0,0.0,88,0.00,,CLR,0.00,53.00,VWS V14.01,2013-05-26 11:36:00,
2013-05-26 07:37:00,44.8,41.5,30.08,North,9,0.0,0.0,88,0.00,,CLR,0.00,51.00,VWS V14.01,2013-05-26 11:37:00,
2013-05-26 07:38:00,44.9,41.6,30.08,North,9,0.0,0.0,88,0.00,,CLR,0.00,60.00,VWS V14.01,2013-05-26 11:38:00,
2013-05-26 07:39:00,44.9,41.6,30.08,North,9,0.0,0.0,88,0.00,,CLR,0.00,54.00,VWS V14.01,2013-05-26 11:39:00,
2013-05-26 07:40:00,44.5,41.2,30.08,North,9,0.0,0.0,88,0.00,,CLR,0.00,51.00,VWS V14.01,2013-05-26 11:40:00,
2013-05-26 07:41:00,45.1,41.8,30.08,North,9,0.0,0.0,88,0.00,,CLR,0.00,51.00,VWS V14.01,2013-05-26 11:41:00,
2013-05-26 07:42:00,45.1,41.8,30.08,North,9,0.0,0.0,88,0.00,,CLR,0.00,51.00,VWS V14.01,2013-05-26 11:42:00,
2013-05-26 07:43:00,45.2,41.9,30.08,North,9,0.0,0.0,88,0.00,,CLR,0.00,53.00,VWS V14.01,2013-05-26 11:43:00,
2013-05-26 07:44:00,45.2,41.9,30.08,North,9,0.0,0.0,88,0.00,,CLR,0.00,60.00,VWS V14.01,2013-05-26 11:44:00,
2013-05-26 07:45:00,44.8,41.5,30.08,North,9,0.0,0.0,88,0.00,,CLR,0.00,51.00,VWS V14.01,2013-05-26 11:45:00,
2013-05-26 07:46:00,45.4,42.1,30.08,North,9,0.0,0.0,88,0.00,,CLR,0.00,56.00,VWS V14.01,2013-05-26 11:46:00,
2013-05-26 07:47:00,45.4,42.1,30.08,North,9,0.0,0.0,88,0.00,,CLR,0.00,54.00,VWS V14.01,2013-05-26 11:47:00,
2013-05-26 07:48:00,45.4,42.1,30.08,North,9,0.0,0.0,88,0.00,,CLR,0.00,54.00,VWS V14.01,2013-05-26 11:48:00,
2013-05-26 07:49:00,45.5,42.2,30.08,North,9,0.0,0.0,88,0.00,,CLR,0.00,56.00,VWS V14.01,2013-05-26 11:49:00,
2013-05-26 07:50:00,45.1,41.8,30.08,North,9,0.0,0.0,88,0.00,,CLR,0.00,51.00,VWS V14.01,2013-05-26 11:50:00,
2013-05-26 07:51:00,45.7,42.4,30.08,North,9,0.0,0.0,88,0.00,,CLR,0.00,62.00,VWS V14.01,2013-05-26 11:51:00,
2013-05-26 07:52:00,45.7,42.4,30.08,North,9,0.0,0.0,88,0.00,,CLR,0.00,62.00,VWS V14.01,2013-05-26 11:52:00,
2013-05-26 07:53:00,45.7,42.4,30.08,North,9,0.0,0.0,88,0.00,,CLR,0.00,67.00,VWS V14.01,2013-05-26 11:53:00,
2013-05-26 07:54:00,45.8,42.2,30.08,North,9,0.0,0.0,87,0.00,,CLR,0.00,63.00,VWS V14.01,2013-05-26 11:54:00,
2013-05-26 07:55:00,45.8,42.2,30.08,North,9,0.0,0.0,87,0.00,,CLR,0.00,62.00,VWS V14.01,2013-05-26 11:55:00,
2013-05-26 07:56:00,45.4,42.1,30.08,North,9,0.0,0.0,88,0.00,,CLR,0.00,56.00,VWS V14.01,2013-05-26 11:56:00,
2013-05-26 07:57:00,46.0,42.3,30.08,North,9,0.0,0.0,87,0.00,,CLR,0.00,63.00,VWS V14.01,2013-05-26 11:57:00,
2013-05-26 07:58:00,46.0,42.3,30.08,North,9,0.0,0.0,87,0.00,,CLR,0.00,63.00,VWS V14.01,2013-05-26 11:58:00,
2013-05-26 07:59:00,46.1,42.5,30.08,North,9,0.0,0.0,87,0.00,,CLR,0.00,65.00,VWS V14.01,2013-05-26 11:59:00,
2013-05-26 08:00:00,45.7,42.4,30.08,North,9,0.0,0.0,88,0.00,,CLR,0.00,62.00,VWS V14.01,2013-05-26 12:00:00,
2013-05-26 08:01:00,46.2,42.5,30.09,North,9,0.0,0.0,87,0.00,,CLR,0.00,69.00,VWS V14.01,2013-05-26 12:01:00,
2013-05-26 08:02:00,46.2,42.5,30.09,North,9,0.0,0.0,87,0.00,,CLR,0.00,70.00,VWS V14.01,2013-05-26 12:02:00,
2013-05-26 08:03:00,46.4,42.8,30.09,North,9,0.0,0.0,87,0.00,,CLR,0.00,74.00,VWS V14.01,2013-05-26 12:03:00,
2013-05-26 08:04:00,46.4,42.8,30.09,North,9,0.0,0.0,87,0.00,,CLR,0.00,77.00,VWS V14.01,2013-05-26 12:04:00,
2013-05-26 08:05:00,45.8,42.2,30.08,North,9,0.0,0.0,87,0.00,,CLR,0.00,62.00,VWS V14.01,2013-05-26 12:05:00,
2013-05-26 08:06:00,46.5,42.5,30.09,North,9,0.0,0.0,86,0.00,,CLR,0.00,81.00,VWS V14.01,2013-05-26 12:06:00,
2013-05-26 08:07:00,46.5,42.5,30.09,North,9,0.0,0.0,86,0.00,,CLR,0.00,81.00,VWS V14.01,2013-05-26 12:07:00,
2013-05-26 08:08:00,46.7,42.4,30.09,North,9,0.0,0.0,85,0.00,,CLR,0.00,84.00,VWS V14.01,2013-05-26 12:08:00,
2013-05-26 08:09:00,46.7,42.4,30.09,North,9,0.0,0.0,85,0.00,,CLR,0.00,90.00,VWS V14.01,2013-05-26 12:09:00,
2013-05-26 08:10:00,46.8,42.5,30.09,North,9,0.0,0.0,85,0.00,,CLR,0.00,90.00,VWS V14.01,2013-05-26 12:10:00,
2013-05-26 08:11:00,46.2,42.5,30.09,North,9,0.0,0.0,87,0.00,,CLR,0.00,69.00,VWS V14.01,2013-05-26 12:11:00,
2013-05-26 08:12:00,47.0,42.4,30.09,North,9,0.0,0.0,84,0.00,,CLR,0.00,93.00,VWS V14.01,2013-05-26 12:12:00,
2013-05-26 08:13:00,47.1,42.2,30.09,North,9,0.0,0.0,83,0.00,,CLR,0.00,100.00,VWS V14.01,2013-05-26 12:13:00,
2013-05-26 08:14:00,47.1,42.2,30.09,North,9,0.0,0.0,83,0.00,,CLR,0.00,107.00,VWS V14.01,2013-05-26 12:14:00,
2013-05-26 08:15:00,46.5,42.5,30.09,North,9,0.0,0.0,86,0.00,,CLR,0.00,81.00,VWS V14.01,2013-05-26 12:15:00,
2013-05-26 08:16:00,47.4,42.2,30.10,North,9,0.0,0.0,82,0.00,,CLR,0.00,130.00,VWS V14.01,2013-05-26 12:16:00,
2013-05-26 08:17:00,47.4,42.2,30.10,North,9,0.0,0.0,82,0.00,,CLR,0.00,135.00,VWS V14.01,2013-05-26 12:17:00,
2013-05-26 08:18:00,47.6,42.4,30.10,North,9,0.0,0.0,82,0.00,,CLR,0.00,158.00,VWS V14.01,2013-05-26 12:18:00,
2013-05-26 08:19:00,47.6,42.4,30.10,North,9,0.0,0.0,82,0.00,,CLR,0.00,158.00,VWS V14.01,2013-05-26 12:19:00,
2013-05-26 08:20:00,46.8,42.5,30.09,North,9,0.0,0.0,85,0.00,,CLR,0.00,91.00,VWS V14.01,2013-05-26 12:20:00,
2013-05-26 08:21:00,47.9,42.4,30.10,North,9,0.0,0.0,81,0.00,,CLR,0.00,151.00,VWS V14.01,2013-05-26 12:21:00,
2013-05-26 08:22:00,48.0,42.5,30.10,North,9,0.0,0.0,81,0.00,,CLR,0.00,146.00,VWS V14.01,2013-05-26 12:22:00,
2013-05-26 08:23:00,48.2,42.7,30.10,North,9,0.0,0.0,81,0.00,,CLR,0.00,163.00,VWS V14.01,2013-05-26 12:23:00,
2013-05-26 08:24:00,48.3,42.8,30.10,North,9,0.0,0.0,81,0.00,,CLR,0.00,163.00,VWS V14.01,2013-05-26 12:24:00,
2013-05-26 08:25:00,48.3,42.4,30.10,North,9,0.0,0.0,80,0.00,,CLR,0.00,169.00,VWS V14.01,2013-05-26 12:25:00,
2013-05-26 08:26:00,47.4,42.2,30.10,North,9,0.0,0.0,82,0.00,,CLR,0.00,135.00,VWS V14.01,2013-05-26 12:26:00,
2013-05-26 08:27:00,48.6,42.4,30.10,North,9,0.0,0.0,79,0.00,,CLR,0.00,207.00,VWS V14.01,2013-05-26 12:27:00,
2013-05-26 08:28:00,48.8,42.6,30.10,North,9,0.0,0.0,79,0.00,,CLR,0.00,223.00,VWS V14.01,2013-05-26 12:28:00,
2013-05-26 08:29:00,48.9,42.7,30.10,North,9,0.0,0.0,79,0.00,,CLR,0.00,246.00,VWS V14.01,2013-05-26 12:29:00,
2013-05-26 08:30:00,49.1,42.5,30.10,North,9,0.0,0.0,78,0.00,,CLR,0.00,225.00,VWS V14.01,2013-05-26 12:30:00,
2013-05-26 08:31:00,49.2,42.6,30.10,North,9,0.0,0.0,78,0.00,,CLR,0.00,244.00,VWS V14.01,2013-05-26 12:31:00,
2013-05-26 08:32:00,48.2,42.7,30.10,North,9,0.0,0.0,81,0.00,,CLR,0.00,163.00,VWS V14.01,2013-05-26 12:32:00,
2013-05-26 08:33:00,49.4,42.5,30.10,North,9,0.0,0.0,77,0.00,,CLR,0.00,255.00,VWS V14.01,2013-05-26 12:33:00,
2013-05-26 08:34:00,49.5,42.6,30.10,North,9,0.0,0.0,77,0.00,,CLR,0.00,230.00,VWS V14.01,2013-05-26 12:34:00,
2013-05-26 08:35:00,49.6,42.7,30.10,North,9,0.0,0.0,77,0.00,,CLR,0.00,250.00,VWS V14.01,2013-05-26 12:35:00,
2013-05-26 08:36:00,49.8,42.9,30.10,North,9,0.0,0.0,77,0.00,,CLR,0.00,276.00,VWS V14.01,2013-05-26 12:36:00,
2013-05-26 08:37:00,49.9,42.7,30.10,North,9,0.0,0.0,76,0.00,,CLR,0.00,271.00,VWS V14.01,2013-05-26 12:37:00,
2013-05-26 08:38:00,48.8,42.6,30.10,North,9,0.0,0.0,79,0.00,,CLR,0.00,223.00,VWS V14.01,2013-05-26 12:38:00,
2013-05-26 08:39:00,50.2,42.9,30.10,North,9,0.0,0.0,76,0.00,,CLR,0.00,269.00,VWS V14.01,2013-05-26 12:39:00,
2013-05-26 08:40:00,50.4,42.8,30.10,North,9,0.0,0.0,75,0.00,,CLR,0.00,267.00,VWS V14.01,2013-05-26 12:40:00,
2013-05-26 08:41:00,50.5,42.9,30.10,North,9,0.0,0.0,75,0.00,,CLR,0.00,264.00,VWS V14.01,2013-05-26 12:41:00,
2013-05-26 08:42:00,49.4,42.5,30.10,North,9,0.0,0.0,77,0.00,,CLR,0.00,255.00,VWS V14.01,2013-05-26 12:42:00,
2013-05-26 08:43:00,50.8,42.8,30.10,North,9,0.0,0.0,74,0.00,,CLR,0.00,287.00,VWS V14.01,2013-05-26 12:43:00,
2013-05-26 08:44:00,51.0,43.0,30.10,North,9,0.0,0.0,74,0.00,,CLR,0.00,295.00,VWS V14.01,2013-05-26 12:44:00,
2013-05-26 08:45:00,51.1,42.8,30.10,North,9,0.0,0.0,73,0.00,,CLR,0.00,299.00,VWS V14.01,2013-05-26 12:45:00,
2013-05-26 08:46:00,51.3,43.0,30.10,North,9,0.0,0.0,73,0.00,,CLR,0.00,315.00,VWS V14.01,2013-05-26 12:46:00,
2013-05-26 08:47:00,50.1,42.8,30.10,North,9,0.0,0.0,76,0.00,,CLR,0.00,253.00,VWS V14.01,2013-05-26 12:47:00,
2013-05-26 08:48:00,51.6,42.5,30.10,North,9,0.0,0.0,71,0.00,,CLR,0.00,304.00,VWS V14.01,2013-05-26 12:48:00,
2013-05-26 08:49:00,51.7,42.6,30.10,North,9,0.0,0.0,71,0.00,,CLR,0.00,309.00,VWS V14.01,2013-05-26 12:49:00,
2013-05-26 08:50:00,51.9,42.8,30.10,North,9,0.0,0.0,71,0.00,,CLR,0.00,316.00,VWS V14.01,2013-05-26 12:50:00,
2013-05-26 08:51:00,52.0,42.9,30.10,North,9,0.0,0.0,71,0.00,,CLR,0.00,330.00,VWS V14.01,2013-05-26 12:51:00,
2013-05-26 08:52:00,50.8,42.8,30.10,North,9,0.0,0.0,74,0.00,,CLR,0.00,281.00,VWS V14.01,2013-05-26 12:52:00,
2013-05-26 08:53:00,52.3,42.8,30.10,North,9,0.0,0.0,70,0.00,,CLR,0.00,353.00,VWS V14.01,2013-05-26 12:53:00,
2013-05-26 08:54:00,52.5,42.6,30.10,North,9,0.0,0.0,69,0.00,,CLR,0.00,367.00,VWS V14.01,2013-05-26 12:54:00,
2013-05-26 08:55:00,52.6,42.7,30.10,North,9,0.0,0.0,69,0.00,,CLR,0.00,352.00,VWS V14.01,2013-05-26 12:55:00,
2013-05-26 08:56:00,52.8,42.9,30.10,North,9,0.0,0.0,69,0.00,,CLR,0.00,364.00,VWS V14.01,2013-05-26 12:56:00,
2013-05-26 08:57:00,52.9,42.6,30.10,North,9,0.0,0.0,68,0.00,,CLR,0.00,357.00,VWS V14.01,2013-05-26 12:57:00,
2013-05-26 08:58:00,51.6,42.5,30.10,North,9,0.0,0.0,71,0.00,,CLR,0.00,304.00,VWS V14.01,2013-05-26 12:58:00,
2013-05-26 08:59:00,53.2,42.5,30.10,North,9,0.0,0.0,67,0.00,,CLR,0.00,367.00,VWS V14.01,2013-05-26 12:59:00,
2013-05-26 09:00:00,53.3,42.6,30.09,North,9,0.0,0.0,67,0.00,,CLR,0.00,367.00,VWS V14.01,2013-05-26 13:00:00,
2013-05-26 09:01:00,53.5,42.4,30.09,North,9,0.0,0.0,66,0.00,,CLR,0.00,385.00,VWS V14.01,2013-05-26 13:01:00,
2013-05-26 09:02:00,52.3,42.8,30.10,North,9,0.0,0.0,70,0.00,,CLR,0.00,353.00,VWS V14.01,2013-05-26 13:02:00,
2013-05-26 09:03:00,53.9,42.0,30.09,East,92,0.0,0.0,64,0.00,,CLR,0.00,415.00,VWS V14.01,2013-05-26 13:03:00,
2013-05-26 09:04:00,54.1,42.2,30.09,East,92,0.0,0.0,64,0.00,,CLR,0.00,422.00,VWS V14.01,2013-05-26 13:04:00,
2013-05-26 09:05:00,54.2,42.3,30.09,East,92,0.0,0.0,64,0.00,,CLR,0.00,431.00,VWS V14.01,2013-05-26 13:05:00,
2013-05-26 09:06:00,54.5,43.4,30.09,East,92,0.0,0.0,66,0.00,,CLR,0.00,399.00,VWS V14.01,2013-05-26 13:06:00,
2013-05-26 09:07:00,53.1,42.5,30.10,North,9,0.0,0.0,67,0.00,,CLR,0.00,369.00,VWS V14.01,2013-05-26 13:07:00,
2013-05-26 09:08:00,54.8,43.7,30.09,East,92,0.0,0.0,66,0.00,,CLR,0.00,427.00,VWS V14.01,2013-05-26 13:08:00,
2013-05-26 09:09:00,55.0,43.5,30.09,East,92,0.0,0.0,65,0.00,,CLR,0.00,443.00,VWS V14.01,2013-05-26 13:09:00,
2013-05-26 09:10:00,55.3,44.2,30.09,East,92,0.0,0.0,66,0.00,,CLR,0.00,468.00,VWS V14.01,2013-05-26 13:10:00,
2013-05-26 09:11:00,55.3,42.5,30.09,East,92,0.0,0.0,62,0.00,,CLR,0.00,475.00,VWS V14.01,2013-05-26 13:11:00,
2013-05-26 09:12:00,55.6,42.8,30.09,East,92,0.0,0.0,62,0.00,,CLR,0.00,483.00,VWS V14.01,2013-05-26 13:12:00,
2013-05-26 09:13:00,55.7,42.5,30.09,East,92,0.0,0.0,61,0.00,,CLR,0.00,483.00,VWS V14.01,2013-05-26 13:13:00,
2013-05-26 09:14:00,54.1,42.2,30.09,East,92,0.0,0.0,64,0.00,,CLR,0.00,422.00,VWS V14.01,2013-05-26 13:14:00,
2013-05-26 09:15:00,56.0,43.2,30.10,East,92,0.0,0.0,62,0.00,,CLR,0.00,487.00,VWS V14.01,2013-05-26 13:15:00,
2013-05-26 09:16:00,56.3,43.5,30.10,East,92,0.0,0.0,62,0.00,,CLR,0.00,487.00,VWS V14.01,2013-05-26 13:16:00,
2013-05-26 09:17:00,56.5,43.2,30.10,East,92,0.0,0.0,61,0.00,,CLR,0.00,499.00,VWS V14.01,2013-05-26 13:17:00,
2013-05-26 09:18:00,55.0,43.5,30.09,East,92,0.0,0.0,65,0.00,,CLR,0.00,443.00,VWS V14.01,2013-05-26 13:18:00,
2013-05-26 09:19:00,56.7,42.5,30.10,East,92,0.0,0.0,59,0.00,,CLR,0.00,483.00,VWS V14.01,2013-05-26 13:19:00,
2013-05-26 09:20:00,56.9,42.3,30.10,ESE,115,1.0,0.0,58,0.00,,CLR,0.00,452.00,VWS V14.01,2013-05-26 13:20:00,
2013-05-26 09:21:00,57.0,42.4,30.10,ESE,120,0.0,0.0,58,0.00,,CLR,0.00,496.00,VWS V14.01,2013-05-26 13:21:00,
2013-05-26 09:22:00,57.3,41.8,30.10,ESE,120,1.0,0.0,56,0.00,,CLR,0.00,476.00,VWS V14.01,2013-05-26 13:22:00,
2013-05-26 09:23:00,57.5,41.9,30.10,ESE,120,0.0,0.0,56,0.00,,CLR,0.00,476.00,VWS V14.01,2013-05-26 13:23:00,
2013-05-26 09:24:00,55.9,43.5,30.09,East,92,0.0,0.0,63,0.00,,CLR,0.00,487.00,VWS V14.01,2013-05-26 13:24:00,
2013-05-26 09:25:00,57.8,41.3,30.10,ESE,120,0.0,0.0,54,0.00,,CLR,0.00,436.00,VWS V14.01,2013-05-26 13:25:00,
2013-05-26 09:26:00,58.0,41.5,30.10,ESE,120,0.0,0.0,54,0.00,,CLR,0.00,425.00,VWS V14.01,2013-05-26 13:26:00,
2013-05-26 09:27:00,58.1,41.6,30.10,ESE,120,0.0,0.0,54,0.00,,CLR,0.00,443.00,VWS V14.01,2013-05-26 13:27:00,
2013-05-26 09:28:00,58.3,41.3,30.10,ESE,120,0.0,0.0,53,0.00,,CLR,0.00,429.00,VWS V14.01,2013-05-26 13:28:00,
2013-05-26 09:29:00,56.7,42.5,30.10,East,92,0.0,0.0,59,0.00,,CLR,0.00,483.00,VWS V14.01,2013-05-26 13:29:00,
2013-05-26 09:30:00,58.6,42.0,30.09,ESE,120,0.0,0.0,54,0.00,,CLR,0.00,406.00,VWS V14.01,2013-05-26 13:30:00,
2013-05-26 09:31:00,58.7,42.6,30.09,ESE,120,0.0,0.0,55,0.00,,CLR,0.00,452.00,VWS V14.01,2013-05-26 13:31:00,
2013-05-26 09:32:00,58.9,42.8,30.09,ESE,120,0.0,0.0,55,0.00,,CLR,0.00,448.00,VWS V14.01,2013-05-26 13:32:00,
2013-05-26 09:33:00,59.0,43.3,30.09,ESE,120,0.0,0.0,56,0.00,,CLR,0.00,432.00,VWS V14.01,2013-05-26 13:33:00,
2013-05-26 09:34:00,57.8,41.3,30.10,ESE,120,0.0,0.0,54,0.00,,CLR,0.00,436.00,VWS V14.01,2013-05-26 13:34:00,
2013-05-26 09:35:00,59.3,42.2,30.09,South,175,0.0,0.0,53,0.00,,CLR,0.00,531.00,VWS V14.01,2013-05-26 13:35:00,
2013-05-26 09:36:00,59.5,42.4,30.09,South,174,0.0,0.0,53,0.00,,CLR,0.00,545.00,VWS V14.01,2013-05-26 13:36:00,
2013-05-26 09:37:00,59.6,42.5,30.09,South,174,0.0,0.0,53,0.00,,CLR,0.00,555.00,VWS V14.01,2013-05-26 13:37:00,
2013-05-26 09:38:00,59.8,42.7,30.09,South,175,0.0,0.0,53,0.00,,CLR,0.00,555.00,VWS V14.01,2013-05-26 13:38:00,
2013-05-26 09:39:00,59.9,42.7,30.09,South,175,0.0,0.0,53,0.00,,CLR,0.00,548.00,VWS V14.01,2013-05-26 13:39:00,
2013-05-26 09:40:00,59.9,42.2,30.09,South,174,0.0,0.0,52,0.00,,CLR,0.00,483.00,VWS V14.01,2013-05-26 13:40:00,
2013-05-26 09:41:00,58.7,42.6,30.09,ESE,120,0.0,0.0,55,0.00,,CLR,0.00,452.00,VWS V14.01,2013-05-26 13:41:00,
2013-05-26 09:42:00,60.4,42.7,30.09,South,174,0.0,0.0,52,0.00,,CLR,0.00,543.00,VWS V14.01,2013-05-26 13:42:00,
2013-05-26 09:43:00,60.5,44.7,30.09,South,174,0.0,0.0,56,0.00,,CLR,0.00,492.00,VWS V14.01,2013-05-26 13:43:00,
2013-05-26 09:44:00,60.7,44.9,30.09,South,175,0.0,0.0,56,0.00,,CLR,0.00,545.00,VWS V14.01,2013-05-26 13:44:00,
2013-05-26 09:45:00,60.7,43.5,30.09,South,174,0.0,0.0,53,0.00,,CLR,0.00,557.00,VWS V14.01,2013-05-26 13:45:00,
2013-05-26 09:46:00,59.5,42.4,30.09,South,174,0.0,0.0,53,0.00,,CLR,0.00,545.00,VWS V14.01,2013-05-26 13:46:00,
2013-05-26 09:47:00,61.0,43.3,30.09,South,175,0.0,0.0,52,0.00,,CLR,0.00,578.00,VWS V14.01,2013-05-26 13:47:00,
2013-05-26 09:48:00,61.2,43.0,30.09,ESE,113,1.0,0.0,51,0.00,,CLR,0.00,527.00,VWS V14.01,2013-05-26 13:48:00,
2013-05-26 09:49:00,61.3,42.5,30.09,ESE,115,0.0,0.0,50,0.00,,CLR,0.00,540.00,VWS V14.01,2013-05-26 13:49:00,
2013-05-26 09:50:00,61.3,42.5,30.09,ESE,115,0.0,0.0,50,0.00,,CLR,0.00,573.00,VWS V14.01,2013-05-26 13:50:00,
2013-05-26 09:51:00,60.1,42.4,30.09,South,175,0.0,0.0,52,0.00,,CLR,0.00,499.00,VWS V14.01,2013-05-26 13:51:00,
2013-05-26 09:52:00,61.6,42.8,30.09,ESE,115,0.0,0.0,50,0.00,,CLR,0.00,554.00,VWS V14.01,2013-05-26 13:52:00,
2013-05-26 09:53:00,61.8,42.5,30.09,ESE,115,0.0,0.0,49,0.00,,CLR,0.00,554.00,VWS V14.01,2013-05-26 13:53:00,
2013-05-26 09:54:00,62.0,42.1,30.09,ESE,115,0.0,0.0,48,0.00,,CLR,0.00,610.00,VWS V14.01,2013-05-26 13:54:00,
2013-05-26 09:55:00,62.0,42.1,30.09,ESE,115,0.0,0.0,48,0.00,,CLR,0.00,617.00,VWS V14.01,2013-05-26 13:55:00,
2013-05-26 09:56:00,62.1,42.7,30.09,ESE,117,0.0,0.0,49,0.00,,CLR,0.00,626.00,VWS V14.01,2013-05-26 13:56:00,
2013-05-26 09:57:00,62.3,42.4,30.09,ESE,117,0.0,0.0,48,0.00,,CLR,0.00,645.00,VWS V14.01,2013-05-26 13:57:00,
2013-05-26 09:58:00,61.2,42.4,30.09,ESE,115,0.0,0.0,50,0.00,,CLR,0.00,540.00,VWS V14.01,2013-05-26 13:58:00,
2013-05-26 09:59:00,62.6,42.7,30.09,ESE,117,0.0,0.0,48,0.00,,CLR,0.00,677.00,VWS V14.01,2013-05-26 13:59:00,
2013-05-26 10:00:00,62.7,43.3,30.09,ESE,117,0.0,0.0,49,0.00,,CLR,0.00,591.00,VWS V14.01,2013-05-26 14:00:00,
2013-05-26 10:01:00,62.7,42.8,30.09,ESE,117,0.0,0.0,48,0.00,,CLR,0.00,615.00,VWS V14.01,2013-05-26 14:01:00,
2013-05-26 10:02:00,62.9,42.4,30.09,ESE,117,0.0,0.0,47,0.00,,CLR,0.00,621.00,VWS V14.01,2013-05-26 14:02:00,
2013-05-26 10:03:00,62.0,42.1,30.09,ESE,115,0.0,0.0,48,0.00,,CLR,0.00,610.00,VWS V14.01,2013-05-26 14:03:00,
2013-05-26 10:04:00,63.2,43.7,30.09,ESE,117,0.0,0.0,49,0.00,,CLR,0.00,606.00,VWS V14.01,2013-05-26 14:04:00,
2013-05-26 10:05:00,63.4,45.0,30.09,ESE,117,1.0,0.0,51,0.00,,CLR,0.00,649.00,VWS V14.01,2013-05-26 14:05:00,
2013-05-26 10:06:00,63.4,43.4,30.09,ESE,117,1.0,0.0,48,0.00,,CLR,0.00,649.00,VWS V14.01,2013-05-26 14:06:00,
2013-05-26 10:07:00,63.5,43.5,30.09,ESE,122,0.0,0.0,48,0.00,,CLR,0.00,707.00,VWS V14.01,2013-05-26 14:07:00,
2013-05-26 10:08:00,63.7,44.2,30.09,ESE,122,0.0,0.0,49,0.00,,CLR,0.00,717.00,VWS V14.01,2013-05-26 14:08:00,
2013-05-26 10:09:00,63.9,43.8,30.09,ESE,122,0.0,0.0,48,0.00,,CLR,0.00,731.00,VWS V14.01,2013-05-26 14:09:00,
2013-05-26 10:10:00,62.7,42.8,30.09,ESE,117,0.0,0.0,48,0.00,,CLR,0.00,615.00,VWS V14.01,2013-05-26 14:10:00,
2013-05-26 10:11:00,64.0,45.0,30.09,ESE,122,0.0,0.0,50,0.00,,CLR,0.00,737.00,VWS V14.01,2013-05-26 14:11:00,
2013-05-26 10:12:00,64.0,42.8,30.09,NW,310,1.0,0.0,46,0.00,,CLR,0.00,747.00,VWS V14.01,2013-05-26 14:12:00,
2013-05-26 10:13:00,63.9,44.4,30.09,NW,310,0.0,0.0,49,0.00,,CLR,0.00,729.00,VWS V14.01,2013-05-26 14:13:00,
2013-05-26 10:14:00,63.9,44.4,30.09,NW,310,0.0,0.0,49,0.00,,CLR,0.00,689.00,VWS V14.01,2013-05-26 14:14:00,
2013-05-26 10:15:00,63.5,44.0,30.10,NW,310,0.0,0.0,49,0.00,,CLR,0.00,663.00,VWS V14.01,2013-05-26 14:15:00,
2013-05-26 10:16:00,63.5,43.5,30.09,ESE,122,0.0,0.0,48,0.00,,CLR,0.00,707.00,VWS V14.01,2013-05-26 14:16:00,
2013-05-26 10:17:00,63.1,42.0,30.10,NW,307,0.0,0.0,46,0.00,,CLR,0.00,599.00,VWS V14.01,2013-05-26 14:17:00,
2013-05-26 10:18:00,62.9,42.4,30.10,NW,307,0.0,0.0,47,0.00,,CLR,0.00,601.00,VWS V14.01,2013-05-26 14:18:00,
2013-05-26 10:19:00,62.6,41.0,30.10,NW,307,0.0,0.0,45,0.00,,CLR,0.00,619.00,VWS V14.01,2013-05-26 14:19:00,
2013-05-26 10:20:00,62.6,41.0,30.10,NW,307,0.0,0.0,45,0.00,,CLR,0.00,573.00,VWS V14.01,2013-05-26 14:20:00,
2013-05-26 10:21:00,64.0,42.8,30.09,NW,310,3.0,0.0,46,0.00,,CLR,0.00,747.00,VWS V14.01,2013-05-26 14:21:00,
2013-05-26 10:22:00,62.9,46.0,30.10,NW,307,0.0,0.0,54,0.00,,CLR,0.00,612.00,VWS V14.01,2013-05-26 14:22:00,
2013-05-26 10:23:00,62.9,44.0,30.10,NW,307,0.0,0.0,50,0.00,,CLR,0.00,568.00,VWS V14.01,2013-05-26 14:23:00,
2013-05-26 10:24:00,62.4,43.5,30.10,SSE,163,0.0,0.0,50,0.00,,CLR,0.00,610.00,VWS V14.01,2013-05-26 14:24:00,
2013-05-26 10:25:00,62.3,42.4,30.10,ESE,119,0.0,0.0,48,0.00,,CLR,0.00,640.00,VWS V14.01,2013-05-26 14:25:00,
2013-05-26 10:26:00,62.1,41.1,30.10,ESE,119,0.0,0.0,46,0.00,,CLR,0.00,687.00,VWS V14.01,2013-05-26 14:26:00,
2013-05-26 10:27:00,62.9,42.4,30.10,NW,307,0.0,0.0,47,0.00,,CLR,0.00,601.00,VWS V14.01,2013-05-26 14:27:00,
2013-05-26 10:28:00,62.1,43.8,30.10,ESE,119,0.0,0.0,51,0.00,,CLR,0.00,661.00,VWS V14.01,2013-05-26 14:28:00,
2013-05-26 10:29:00,62.4,44.0,30.10,ESE,119,0.0,0.0,51,0.00,,CLR,0.00,689.00,VWS V14.01,2013-05-26 14:29:00,
2013-05-26 10:30:00,62.4,43.5,30.09,ESE,119,1.0,0.0,50,0.00,,CLR,0.00,728.00,VWS V14.01,2013-05-26 14:30:00,
2013-05-26 10:31:00,62.4,41.9,30.09,ESE,119,0.0,0.0,47,0.00,,CLR,0.00,721.00,VWS V14.01,2013-05-26 14:31:00,
2013-05-26 10:32:00,62.4,42.5,30.09,ESE,119,0.0,0.0,48,0.00,,CLR,0.00,714.00,VWS V14.01,2013-05-26 14:32:00,
2013-05-26 10:33:00,62.4,43.0,30.09,ESE,119,0.0,0.0,49,0.00,,CLR,0.00,729.00,VWS V14.01,2013-05-26 14:33:00,
2013-05-26 10:34:00,62.3,42.4,30.10,ESE,119,0.0,0.0,48,0.00,,CLR,0.00,640.00,VWS V14.01,2013-05-26 14:34:00,
2013-05-26 10:35:00,62.3,42.4,30.09,ESE,119,0.0,0.0,48,0.00,,CLR,0.00,687.00,VWS V14.01,2013-05-26 14:35:00,
2013-05-26 10:36:00,62.3,42.9,30.09,ESE,119,0.0,0.0,49,0.00,,CLR,0.00,687.00,VWS V14.01,2013-05-26 14:36:00,
2013-05-26 10:37:00,62.1,41.1,30.09,ESE,119,0.0,0.0,46,0.00,,CLR,0.00,686.00,VWS V14.01,2013-05-26 14:37:00,
2013-05-26 10:38:00,62.1,41.1,30.09,ESE,119,1.0,0.0,46,0.00,,CLR,0.00,645.00,VWS V14.01,2013-05-26 14:38:00,
2013-05-26 10:39:00,62.3,42.4,30.09,ESE,119,0.0,0.0,48,0.00,,CLR,0.00,631.00,VWS V14.01,2013-05-26 14:39:00,
2013-05-26 10:40:00,62.4,43.5,30.09,ESE,119,1.0,0.0,50,0.00,,CLR,0.00,728.00,VWS V14.01,2013-05-26 14:40:00,
2013-05-26 10:41:00,62.3,44.0,30.09,ESE,119,0.0,0.0,51,0.00,,CLR,0.00,512.00,VWS V14.01,2013-05-26 14:41:00,
2013-05-26 10:42:00,62.3,42.4,30.09,ESE,119,0.0,0.0,48,0.00,,CLR,0.00,526.00,VWS V14.01,2013-05-26 14:42:00,
2013-05-26 10:43:00,62.4,44.6,30.09,ESE,119,0.0,0.0,52,0.00,,CLR,0.00,508.00,VWS V14.01,2013-05-26 14:43:00,
2013-05-26 10:44:00,62.3,44.0,30.09,ESE,119,0.0,0.0,51,0.00,,CLR,0.00,540.00,VWS V14.01,2013-05-26 14:44:00,
2013-05-26 10:45:00,62.3,42.4,30.09,ESE,119,0.0,0.0,48,0.00,,CLR,0.00,687.00,VWS V14.01,2013-05-26 14:45:00,
2013-05-26 10:46:00,62.1,42.7,30.08,ESE,119,0.0,0.0,49,0.00,,CLR,0.00,575.00,VWS V14.01,2013-05-26 14:46:00,
2013-05-26 10:47:00,62.1,41.1,30.08,ESE,119,0.0,0.0,46,0.00,,CLR,0.00,554.00,VWS V14.01,2013-05-26 14:47:00,
2013-05-26 10:48:00,62.1,43.3,30.08,ESE,119,0.0,0.0,50,0.00,,CLR,0.00,573.00,VWS V14.01,2013-05-26 14:48:00,
2013-05-26 10:49:00,62.0,41.6,30.08,ESE,119,0.0,0.0,47,0.00,,CLR,0.00,594.00,VWS V14.01,2013-05-26 14:49:00,
2013-05-26 10:50:00,62.3,44.0,30.09,ESE,119,0.0,0.0,51,0.00,,CLR,0.00,657.00,VWS V14.01,2013-05-26 14:50:00,
2013-05-26 10:51:00,62.0,43.2,30.08,ESE,119,0.0,0.0,50,0.00,,CLR,0.00,663.00,VWS V14.01,2013-05-26 14:51:00,
2013-05-26 10:52:00,62.3,44.5,30.08,ESE,119,0.0,0.0,52,0.00,,CLR,0.00,686.00,VWS V14.01,2013-05-26 14:52:00,
2013-05-26 10:53:00,62.4,43.5,30.08,SSE,154,0.0,0.0,50,0.00,,CLR,0.00,670.00,VWS V14.01,2013-05-26 14:53:00,
2013-05-26 10:54:00,62.3,41.8,30.08,ESE,119,0.0,0.0,47,0.00,,CLR,0.00,626.00,VWS V14.01,2013-05-26 14:54:00,
2013-05-26 10:55:00,63.1,44.7,30.08,SSE,154,0.0,0.0,51,0.00,,CLR,0.00,526.00,VWS V14.01,2013-05-26 14:55:00,
2013-05-26 10:56:00,63.1,42.6,30.08,SSE,154,0.0,0.0,47,0.00,,CLR,0.00,568.00,VWS V14.01,2013-05-26 14:56:00,
2013-05-26 10:57:00,62.9,42.4,30.08,SSE,154,0.0,0.0,47,0.00,,CLR,0.00,506.00,VWS V14.01,2013-05-26 14:57:00,
2013-05-26 10:58:00,62.7,42.2,30.08,SSE,154,0.0,0.0,47,0.00,,CLR,0.00,540.00,VWS V14.01,2013-05-26 14:58:00,
2013-05-26 10:59:00,62.0,42.1,30.08,ESE,119,0.0,0.0,48,0.00,,CLR,0.00,649.00,VWS V14.01,2013-05-26 14:59:00,
2013-05-26 11:00:00,62.9,42.9,30.09,SSE,149,0.0,0.0,48,0.00,,CLR,0.00,545.00,VWS V14.01,2013-05-26 15:00:00,
2013-05-26 11:01:00,63.1,43.1,30.09,SSE,150,0.0,0.0,48,0.00,,CLR,0.00,571.00,VWS V14.01,2013-05-26 15:01:00,
2013-05-26 11:02:00,63.1,43.1,30.09,SSE,150,0.0,0.0,48,0.00,,CLR,0.00,529.00,VWS V14.01,2013-05-26 15:02:00,
2013-05-26 11:03:00,63.1,44.2,30.09,SSE,150,0.0,0.0,50,0.00,,CLR,0.00,538.00,VWS V14.01,2013-05-26 15:03:00,
2013-05-26 11:04:00,63.1,44.7,30.08,SSE,154,0.0,0.0,51,0.00,,CLR,0.00,526.00,VWS V14.01,2013-05-26 15:04:00,
2013-05-26 11:05:00,63.1,43.1,30.09,SE,130,0.0,0.0,48,0.00,,CLR,0.00,666.00,VWS V14.01,2013-05-26 15:05:00,
2013-05-26 11:06:00,62.9,41.8,30.09,SE,130,0.0,0.0,46,0.00,,CLR,0.00,624.00,VWS V14.01,2013-05-26 15:06:00,
2013-05-26 11:07:00,62.9,41.8,30.09,SE,130,0.0,0.0,46,0.00,,CLR,0.00,686.00,VWS V14.01,2013-05-26 15:07:00,
2013-05-26 11:08:00,62.7,42.8,30.09,SE,130,0.0,0.0,48,0.00,,CLR,0.00,686.00,VWS V14.01,2013-05-26 15:08:00,
2013-05-26 11:09:00,62.7,41.6,30.09,SE,130,0.0,0.0,46,0.00,,CLR,0.00,559.00,VWS V14.01,2013-05-26 15:09:00,
2013-05-26 11:10:00,62.9,42.9,30.09,SSE,148,0.0,0.0,48,0.00,,CLR,0.00,545.00,VWS V14.01,2013-05-26 15:10:00,
2013-05-26 11:11:00,62.7,42.2,30.09,SE,130,0.0,0.0,47,0.00,,CLR,0.00,659.00,VWS V14.01,2013-05-26 15:11:00,
2013-05-26 11:12:00,63.1,42.6,30.09,SE,130,0.0,0.0,47,0.00,,CLR,0.00,700.00,VWS V14.01,2013-05-26 15:12:00,
2013-05-26 11:13:00,63.1,46.2,30.09,SSE,147,0.0,0.0,54,0.00,,CLR,0.00,724.00,VWS V14.01,2013-05-26 15:13:00,
2013-05-26 11:14:00,63.1,46.2,30.09,South,186,1.0,0.0,54,0.00,,CLR,0.00,724.00,VWS V14.01,2013-05-26 15:14:00,
2013-05-26 11:15:00,63.1,41.4,30.09,NNW,338,0.0,0.0,45,0.00,,CLR,0.00,603.00,VWS V14.01,2013-05-26 15:15:00,
2013-05-26 11:16:00,62.9,41.8,30.09,SE,130,0.0,0.0,46,0.00,,CLR,0.00,624.00,VWS V14.01,2013-05-26 15:16:00,
2013-05-26 11:17:00,63.2,42.7,30.09,NNE,32,0.0,0.0,47,0.00,,CLR,0.00,663.00,VWS V14.01,2013-05-26 15:17:00,
2013-05-26 11:18:00,63.2,42.7,30.09,NE,34,1.0,0.0,47,0.00,,CLR,0.00,663.00,VWS V14.01,2013-05-26 15:18:00,
2013-05-26 11:19:00,63.2,42.7,30.09,South,173,1.0,0.0,47,0.00,,CLR,0.00,663.00,VWS V14.01,2013-05-26 15:19:00,
2013-05-26 11:20:00,63.1,42.0,30.09,South,173,0.0,0.0,46,0.00,,CLR,0.00,492.00,VWS V14.01,2013-05-26 15:20:00,
2013-05-26 11:21:00,62.7,42.2,30.09,SE,130,0.0,0.0,47,0.00,,CLR,0.00,659.00,VWS V14.01,2013-05-26 15:21:00,
2013-05-26 11:22:00,63.4,43.9,30.09,SE,132,0.0,0.0,49,0.00,,CLR,0.00,533.00,VWS V14.01,2013-05-26 15:22:00,
2013-05-26 11:23:00,63.5,44.5,30.09,SE,132,0.0,0.0,50,0.00,,CLR,0.00,513.00,VWS V14.01,2013-05-26 15:23:00,
2013-05-26 11:24:00,63.5,45.1,30.09,SE,132,0.0,0.0,51,0.00,,CLR,0.00,513.00,VWS V14.01,2013-05-26 15:24:00,
2013-05-26 11:25:00,63.4,44.5,30.09,SE,132,0.0,0.0,50,0.00,,CLR,0.00,737.00,VWS V14.01,2013-05-26 15:25:00,
2013-05-26 11:26:00,63.1,42.6,30.09,NNW,338,0.0,0.0,47,0.00,,CLR,0.00,647.00,VWS V14.01,2013-05-26 15:26:00,
2013-05-26 11:27:00,63.4,44.5,30.09,SE,132,0.0,0.0,50,0.00,,CLR,0.00,854.00,VWS V14.01,2013-05-26 15:27:00,
2013-05-26 11:28:00,63.5,45.6,30.09,SE,132,0.0,0.0,52,0.00,,CLR,0.00,875.00,VWS V14.01,2013-05-26 15:28:00,
2013-05-26 11:29:00,63.7,46.8,30.09,SE,132,0.0,0.0,54,0.00,,CLR,0.00,875.00,VWS V14.01,2013-05-26 15:29:00,
2013-05-26 11:30:00,63.5,46.6,30.09,SE,132,0.0,0.0,54,0.00,,CLR,0.00,795.00,VWS V14.01,2013-05-26 15:30:00,
2013-05-26 11:31:00,63.5,41.8,30.09,SE,132,0.0,0.0,45,0.00,,CLR,0.00,795.00,VWS V14.01,2013-05-26 15:31:00,
2013-05-26 11:32:00,63.4,43.9,30.09,SE,132,0.0,0.0,49,0.00,,CLR,0.00,533.00,VWS V14.01,2013-05-26 15:32:00,
2013-05-26 11:33:00,63.5,43.5,30.09,ESE,121,0.0,0.0,48,0.00,,CLR,0.00,378.00,VWS V14.01,2013-05-26 15:33:00,
2013-05-26 11:34:00,63.4,41.7,30.09,ESE,121,0.0,0.0,45,0.00,,CLR,0.00,468.00,VWS V14.01,2013-05-26 15:34:00,
2013-05-26 11:35:00,63.5,41.8,30.09,ESE,121,0.0,0.0,45,0.00,,CLR,0.00,468.00,VWS V14.01,2013-05-26 15:35:00,
2013-05-26 11:36:00,63.7,44.2,30.09,ESE,121,0.0,0.0,49,0.00,,CLR,0.00,468.00,VWS V14.01,2013-05-26 15:36:00,
2013-05-26 11:37:00,63.4,44.5,30.09,SE,132,0.0,0.0,50,0.00,,CLR,0.00,828.00,VWS V14.01,2013-05-26 15:37:00,
2013-05-26 11:38:00,63.7,44.7,30.09,ESE,121,0.0,0.0,50,0.00,,CLR,0.00,454.00,VWS V14.01,2013-05-26 15:38:00,
2013-05-26 11:39:00,63.5,44.5,30.09,ESE,121,0.0,0.0,50,0.00,,CLR,0.00,478.00,VWS V14.01,2013-05-26 15:39:00,
2013-05-26 11:40:00,63.5,43.5,30.09,ESE,121,0.0,0.0,48,0.00,,CLR,0.00,482.00,VWS V14.01,2013-05-26 15:40:00,
2013-05-26 11:41:00,63.4,41.1,30.09,SE,132,1.0,0.0,44,0.00,,CLR,0.00,626.00,VWS V14.01,2013-05-26 15:41:00,
2013-05-26 11:42:00,63.4,41.7,30.09,ESE,121,0.0,0.0,45,0.00,,CLR,0.00,482.00,VWS V14.01,2013-05-26 15:42:00,
2013-05-26 11:43:00,63.4,41.7,30.09,ESE,121,0.0,0.0,45,0.00,,CLR,0.00,482.00,VWS V14.01,2013-05-26 15:43:00,
2013-05-26 11:44:00,63.4,42.3,30.09,ESE,123,0.0,0.0,46,0.00,,CLR,0.00,492.00,VWS V14.01,2013-05-26 15:44:00,
2013-05-26 11:45:00,63.2,43.7,30.09,ESE,123,0.0,0.0,49,0.00,,CLR,0.00,577.00,VWS V14.01,2013-05-26 15:45:00,
2013-05-26 11:46:00,63.2,43.2,30.09,ESE,123,0.0,0.0,48,0.00,,CLR,0.00,715.00,VWS V14.01,2013-05-26 15:46:00,
2013-05-26 11:47:00,63.7,44.7,30.09,ESE,121,0.0,0.0,50,0.00,,CLR,0.00,454.00,VWS V14.01,2013-05-26 15:47:00,
2013-05-26 11:48:00,63.4,41.1,30.09,ESE,123,0.0,0.0,44,0.00,,CLR,0.00,656.00,VWS V14.01,2013-05-26 15:48:00,
2013-05-26 11:49:00,63.4,44.5,30.09,ESE,123,0.0,0.0,50,0.00,,CLR,0.00,656.00,VWS V14.01,2013-05-26 15:49:00,
2013-05-26 11:50:00,63.4,44.5,30.09,ESE,123,0.0,0.0,50,0.00,,CLR,0.00,422.00,VWS V14.01,2013-05-26 15:50:00,
2013-05-26 11:51:00,63.4,41.7,30.09,ESE,123,0.0,0.0,45,0.00,,CLR,0.00,422.00,VWS V14.01,2013-05-26 15:51:00,
2013-05-26 11:52:00,63.4,42.3,30.09,ESE,123,0.0,0.0,46,0.00,,CLR,0.00,606.00,VWS V14.01,2013-05-26 15:52:00,
2013-05-26 11:53:00,63.2,41.5,30.09,ESE,123,0.0,0.0,45,0.00,,CLR,0.00,550.00,VWS V14.01,2013-05-26 15:53:00,
2013-05-26 11:54:00,63.2,41.5,30.09,ESE,120,0.0,0.0,45,0.00,,CLR,0.00,459.00,VWS V14.01,2013-05-26 15:54:00,
2013-05-26 11:55:00,63.2,43.7,30.09,ESE,123,0.0,0.0,49,0.00,,CLR,0.00,577.00,VWS V14.01,2013-05-26 15:55:00,
2013-05-26 11:56:00,63.4,43.4,30.09,ESE,121,0.0,0.0,48,0.00,,CLR,0.00,571.00,VWS V14.01,2013-05-26 15:56:00,
2013-05-26 11:57:00,63.2,42.7,30.09,ESE,121,0.0,0.0,47,0.00,,CLR,0.00,571.00,VWS V14.01,2013-05-26 15:57:00,
2013-05-26 11:58:00,63.2,42.7,30.09,ESE,121,0.0,0.0,47,0.00,,CLR,0.00,561.00,VWS V14.01,2013-05-26 15:58:00,
2013-05-26 11:59:00,63.4,42.8,30.09,ESE,121,1.0,0.0,47,0.00,,CLR,0.00,645.00,VWS V14.01,2013-05-26 15:59:00,
2013-05-26 12:00:00,63.2,42.1,30.09,ESE,121,0.0,0.0,46,0.00,,CLR,0.00,652.00,VWS V14.01,2013-05-26 16:00:00,
2013-05-26 12:01:00,63.4,41.7,30.09,ESE,123,0.0,0.0,45,0.00,,CLR,0.00,422.00,VWS V14.01,2013-05-26 16:01:00,
2013-05-26 12:02:00,63.4,41.7,30.09,SE,127,0.0,0.0,45,0.00,,CLR,0.00,807.00,VWS V14.01,2013-05-26 16:02:00,
2013-05-26 12:03:00,63.4,41.7,30.09,SE,126,0.0,0.0,45,0.00,,CLR,0.00,793.00,VWS V14.01,2013-05-26 16:03:00,
2013-05-26 12:04:00,63.5,43.5,30.09,SE,126,0.0,0.0,48,0.00,,CLR,0.00,772.00,VWS V14.01,2013-05-26 16:04:00,
2013-05-26 12:05:00,63.7,42.0,30.09,SE,126,0.0,0.0,45,0.00,,CLR,0.00,773.00,VWS V14.01,2013-05-26 16:05:00,
2013-05-26 12:06:00,63.4,43.4,30.09,ESE,121,0.0,0.0,48,0.00,,CLR,0.00,571.00,VWS V14.01,2013-05-26 16:06:00,
2013-05-26 12:07:00,64.2,44.7,30.09,SE,126,0.0,0.0,49,0.00,,CLR,0.00,613.00,VWS V14.01,2013-05-26 16:07:00,
2013-05-26 12:08:00,64.3,44.8,30.09,SE,126,0.0,0.0,49,0.00,,CLR,0.00,599.00,VWS V14.01,2013-05-26 16:08:00,
2013-05-26 12:09:00,64.5,43.8,30.09,SE,126,0.0,0.0,47,0.00,,CLR,0.00,599.00,VWS V14.01,2013-05-26 16:09:00,
2013-05-26 12:10:00,64.5,43.8,30.09,SE,126,0.0,0.0,47,0.00,,CLR,0.00,610.00,VWS V14.01,2013-05-26 16:10:00,
2013-05-26 12:11:00,63.4,41.7,30.09,SE,127,0.0,0.0,45,0.00,,CLR,0.00,756.00,VWS V14.01,2013-05-26 16:11:00,
2013-05-26 12:12:00,64.8,43.6,30.09,SE,126,1.0,0.0,46,0.00,,CLR,0.00,610.00,VWS V14.01,2013-05-26 16:12:00,
2013-05-26 12:13:00,65.0,44.3,30.09,SE,126,0.0,0.0,47,0.00,,CLR,0.00,867.00,VWS V14.01,2013-05-26 16:13:00,
2013-05-26 12:14:00,65.0,44.3,30.09,SE,126,0.0,0.0,47,0.00,,CLR,0.00,889.00,VWS V14.01,2013-05-26 16:14:00,
2013-05-26 12:15:00,65.2,43.3,30.09,SE,126,0.0,0.0,45,0.00,,CLR,0.00,923.00,VWS V14.01,2013-05-26 16:15:00,
2013-05-26 12:16:00,64.2,42.4,30.09,SE,126,0.0,0.0,45,0.00,,CLR,0.00,613.00,VWS V14.01,2013-05-26 16:16:00,
2013-05-26 12:17:00,65.6,43.7,30.09,SE,126,0.0,0.0,45,0.00,,CLR,0.00,942.00,VWS V14.01,2013-05-26 16:17:00,
2013-05-26 12:18:00,65.8,43.9,30.09,North,360,1.0,0.0,45,0.00,,CLR,0.00,940.00,VWS V14.01,2013-05-26 16:18:00,
2013-05-26 12:19:00,66.0,43.5,30.09,North,360,0.0,0.0,44,0.00,,CLR,0.00,935.00,VWS V14.01,2013-05-26 16:19:00,
2013-05-26 12:20:00,66.0,43.5,30.09,North,360,0.0,0.0,44,0.00,,CLR,0.00,935.00,VWS V14.01,2013-05-26 16:20:00,
2013-05-26 12:21:00,65.6,40.7,30.09,North,360,0.0,0.0,40,0.00,,CLR,0.00,947.00,VWS V14.01,2013-05-26 16:21:00,
2013-05-26 12:22:00,65.5,42.4,30.09,North,360,0.0,0.0,43,0.00,,CLR,0.00,949.00,VWS V14.01,2013-05-26 16:22:00,
2013-05-26 12:23:00,65.0,44.3,30.09,SE,126,0.0,0.0,47,0.00,,CLR,0.00,867.00,VWS V14.01,2013-05-26 16:23:00,
2013-05-26 12:24:00,65.3,42.8,30.09,NW,304,0.0,0.0,44,0.00,,CLR,0.00,870.00,VWS V14.01,2013-05-26 16:24:00,
2013-05-26 12:25:00,65.2,40.9,30.09,SW,228,0.0,0.0,41,0.00,,CLR,0.00,932.00,VWS V14.01,2013-05-26 16:25:00,
2013-05-26 12:26:00,65.2,41.5,30.09,SW,228,0.0,0.0,42,0.00,,CLR,0.00,956.00,VWS V14.01,2013-05-26 16:26:00,
2013-05-26 12:27:00,65.2,43.9,30.09,SW,228,0.0,0.0,46,0.00,,CLR,0.00,960.00,VWS V14.01,2013-05-26 16:27:00,
2013-05-26 12:28:00,65.8,43.9,30.09,North,360,1.0,0.0,45,0.00,,CLR,0.00,940.00,VWS V14.01,2013-05-26 16:28:00,
2013-05-26 12:29:00,65.2,42.8,30.09,SW,228,0.0,0.0,44,0.00,,CLR,0.00,958.00,VWS V14.01,2013-05-26 16:29:00,
2013-05-26 12:30:00,65.3,42.8,30.09,SW,228,0.0,0.0,44,0.00,,CLR,0.00,954.00,VWS V14.01,2013-05-26 16:30:00,
2013-05-26 12:31:00,65.3,44.6,30.09,SW,227,0.0,0.0,47,0.00,,CLR,0.00,960.00,VWS V14.01,2013-05-26 16:31:00,
2013-05-26 12:32:00,65.8,46.7,30.09,SW,227,0.0,0.0,50,0.00,,CLR,0.00,949.00,VWS V14.01,2013-05-26 16:32:00,
2013-05-26 12:33:00,65.3,42.8,30.09,NW,304,0.0,0.0,44,0.00,,CLR,0.00,870.00,VWS V14.01,2013-05-26 16:33:00,
2013-05-26 12:34:00,66.3,45.5,30.09,ESE,111,0.0,0.0,47,0.00,,CLR,0.00,942.00,VWS V14.01,2013-05-26 16:34:00,
2013-05-26 12:35:00,66.6,44.0,30.09,ESE,110,0.0,0.0,44,0.00,,CLR,0.00,942.00,VWS V14.01,2013-05-26 16:35:00,
2013-05-26 12:36:00,66.8,47.0,30.09,ESE,107,0.0,0.0,49,0.00,,CLR,0.00,942.00,VWS V14.01,2013-05-26 16:36:00,
2013-05-26 12:37:00,67.1,46.2,30.09,ESE,107,0.0,0.0,47,0.00,,CLR,0.00,930.00,VWS V14.01,2013-05-26 16:37:00,
2013-05-26 12:38:00,67.4,45.9,30.09,ESE,107,0.0,0.0,46,0.00,,CLR,0.00,928.00,VWS V14.01,2013-05-26 16:38:00,
2013-05-26 12:39:00,67.6,44.3,30.09,East,80,1.0,0.0,43,0.00,,CLR,0.00,939.00,VWS V14.01,2013-05-26 16:39:00,
2013-05-26 12:40:00,67.6,43.7,30.09,East,82,0.0,0.0,42,0.00,,CLR,0.00,940.00,VWS V14.01,2013-05-26 16:40:00,
2013-05-26 12:41:00,67.6,44.3,30.09,East,82,0.0,0.0,43,0.00,,CLR,0.00,940.00,VWS V14.01,2013-05-26 16:41:00,
2013-05-26 12:42:00,67.4,42.9,30.09,East,82,1.0,0.0,41,0.00,,CLR,0.00,951.00,VWS V14.01,2013-05-26 16:42:00,
2013-05-26 12:43:00,67.1,40.7,30.09,East,82,0.0,0.0,38,0.00,,CLR,0.00,937.00,VWS V14.01,2013-05-26 16:43:00,
2013-05-26 12:44:00,67.1,43.3,30.09,East,82,0.0,0.0,42,0.00,,CLR,0.00,930.00,VWS V14.01,2013-05-26 16:44:00,
2013-05-26 12:45:00,67.3,45.2,30.09,East,82,0.0,0.0,45,0.00,,CLR,0.00,949.00,VWS V14.01,2013-05-26 16:45:00,
2013-05-26 12:46:00,67.1,42.6,30.09,East,82,0.0,0.0,41,0.00,,CLR,0.00,946.00,VWS V14.01,2013-05-26 16:46:00,
2013-05-26 12:47:00,66.9,43.1,30.09,East,82,0.0,0.0,42,0.00,,CLR,0.00,947.00,VWS V14.01,2013-05-26 16:47:00,
2013-05-26 12:48:00,66.6,42.8,30.09,East,82,0.0,0.0,42,0.00,,CLR,0.00,949.00,VWS V14.01,2013-05-26 16:48:00,
2013-05-26 12:49:00,66.3,41.9,30.09,East,82,0.0,0.0,41,0.00,,CLR,0.00,940.00,VWS V14.01,2013-05-26 16:49:00,
2013-05-26 12:50:00,66.3,41.9,30.09,East,84,1.0,0.0,41,0.00,,CLR,0.00,954.00,VWS V14.01,2013-05-26 16:50:00,
2013-05-26 12:51:00,67.6,44.3,30.09,East,82,0.0,0.0,43,0.00,,CLR,0.00,940.00,VWS V14.01,2013-05-26 16:51:00,
2013-05-26 12:52:00,66.0,42.3,30.09,East,84,0.0,0.0,42,0.00,,CLR,0.00,960.00,VWS V14.01,2013-05-26 16:52:00,
2013-05-26 12:53:00,66.0,41.7,30.09,East,84,0.0,0.0,41,0.00,,CLR,0.00,962.00,VWS V14.01,2013-05-26 16:53:00,
2013-05-26 12:54:00,65.8,40.2,30.09,East,84,0.0,0.0,39,0.00,,CLR,0.00,963.00,VWS V14.01,2013-05-26 16:54:00,
2013-05-26 12:55:00,65.8,42.1,30.09,East,84,0.0,0.0,42,0.00,,CLR,0.00,947.00,VWS V14.01,2013-05-26 16:55:00,
2013-05-26 12:56:00,67.1,42.6,30.09,East,82,0.0,0.0,41,0.00,,CLR,0.00,946.00,VWS V14.01,2013-05-26 16:56:00,
2013-05-26 12:57:00,65.8,40.8,30.09,SSE,153,0.0,0.0,40,0.00,,CLR,0.00,949.00,VWS V14.01,2013-05-26 16:57:00,
2013-05-26 12:58:00,65.8,40.8,30.09,SE,138,0.0,0.0,40,0.00,,CLR,0.00,946.00,VWS V14.01,2013-05-26 16:58:00,
2013-05-26 12:59:00,66.0,41.7,30.09,SE,138,0.0,0.0,41,0.00,,CLR,0.00,947.00,VWS V14.01,2013-05-26 16:59:00,
2013-05-26 13:00:00,66.1,41.7,30.08,SE,138,0.0,0.0,41,0.00,,CLR,0.00,923.00,VWS V14.01,2013-05-26 17:00:00,
2013-05-26 13:01:00,66.1,42.4,30.09,East,84,0.0,0.0,42,0.00,,CLR,0.00,960.00,VWS V14.01,2013-05-26 17:01:00,
2013-05-26 13:02:00,66.0,39.7,30.08,WNW,302,2.0,0.0,38,0.00,,CLR,0.00,951.00,VWS V14.01,2013-05-26 17:02:00,
2013-05-26 13:03:00,66.4,40.0,30.08,WNW,294,0.0,0.0,38,0.00,,CLR,0.00,946.00,VWS V14.01,2013-05-26 17:03:00,
2013-05-26 13:04:00,66.6,43.4,30.08,WNW,294,0.0,0.0,43,0.00,,CLR,0.00,925.00,VWS V14.01,2013-05-26 17:04:00,
2013-05-26 13:05:00,66.8,41.1,30.08,WNW,298,0.0,0.0,39,0.00,,CLR,0.00,940.00,VWS V14.01,2013-05-26 17:05:00,
2013-05-26 13:06:00,65.8,40.8,30.09,SSE,153,0.0,0.0,40,0.00,,CLR,0.00,949.00,VWS V14.01,2013-05-26 17:06:00,
2013-05-26 13:07:00,66.9,43.1,30.08,WNW,298,0.0,0.0,42,0.00,,CLR,0.00,954.00,VWS V14.01,2013-05-26 17:07:00,
2013-05-26 13:08:00,67.3,43.5,30.08,WNW,298,0.0,0.0,42,0.00,,CLR,0.00,960.00,VWS V14.01,2013-05-26 17:08:00,
2013-05-26 13:09:00,67.4,43.5,30.08,WNW,298,0.0,0.0,42,0.00,,CLR,0.00,963.00,VWS V14.01,2013-05-26 17:09:00,
2013-05-26 13:10:00,67.6,43.7,30.08,WNW,298,0.0,0.0,42,0.00,,CLR,0.00,963.00,VWS V14.01,2013-05-26 17:10:00,
2013-05-26 13:11:00,67.6,41.8,30.08,SSE,153,0.0,0.0,39,0.00,,CLR,0.00,963.00,VWS V14.01,2013-05-26 17:11:00,
2013-05-26 13:12:00,67.8,42.0,30.08,SE,138,0.0,0.0,39,0.00,,CLR,0.00,969.00,VWS V14.01,2013-05-26 17:12:00,
2013-05-26 13:13:00,66.4,40.0,30.08,WNW,294,0.0,0.0,38,0.00,,CLR,0.00,946.00,VWS V14.01,2013-05-26 17:13:00,
2013-05-26 13:14:00,67.8,42.6,30.08,NW,313,0.0,0.0,40,0.00,,CLR,0.00,940.00,VWS V14.01,2013-05-26 17:14:00,
2013-05-26 13:15:00,67.6,42.4,30.07,ENE,67,0.0,0.0,40,0.00,,CLR,0.00,904.00,VWS V14.01,2013-05-26 17:15:00,
2013-05-26 13:16:00,67.6,43.7,30.07,SSE,148,0.0,0.0,42,0.00,,CLR,0.00,954.00,VWS V14.01,2013-05-26 17:16:00,
2013-05-26 13:17:00,67.3,43.5,30.07,SSE,148,0.0,0.0,42,0.00,,CLR,0.00,935.00,VWS V14.01,2013-05-26 17:17:00,
2013-05-26 13:18:00,67.4,43.5,30.08,WNW,298,0.0,0.0,42,0.00,,CLR,0.00,963.00,VWS V14.01,2013-05-26 17:18:00,
2013-05-26 13:19:00,66.9,39.1,30.07,SSE,147,0.0,0.0,36,0.00,,CLR,0.00,895.00,VWS V14.01,2013-05-26 17:19:00,
2013-05-26 13:20:00,66.9,39.1,30.07,SSE,157,1.0,0.0,36,0.00,,CLR,0.00,935.00,VWS V14.01,2013-05-26 17:20:00,
2013-05-26 13:21:00,67.1,39.3,30.07,SSE,157,0.0,0.0,36,0.00,,CLR,0.00,937.00,VWS V14.01,2013-05-26 17:21:00,
2013-05-26 13:22:00,67.1,39.3,30.07,SE,144,1.0,0.0,36,0.00,,CLR,0.00,914.00,VWS V14.01,2013-05-26 17:22:00,
2013-05-26 13:23:00,66.9,40.5,30.07,SSE,165,4.0,0.0,38,0.00,,CLR,0.00,912.00,VWS V14.01,2013-05-26 17:23:00,
2013-05-26 13:24:00,66.9,39.8,30.07,SSE,165,0.0,0.0,37,0.00,,CLR,0.00,858.00,VWS V14.01,2013-05-26 17:24:00,
2013-05-26 13:25:00,67.6,43.7,30.07,SSE,148,0.0,0.0,42,0.00,,CLR,0.00,954.00,VWS V14.01,2013-05-26 17:25:00,
2013-05-26 13:26:00,67.3,42.8,30.07,NW,321,0.0,0.0,41,0.00,,CLR,0.00,904.00,VWS V14.01,2013-05-26 17:26:00,
2013-05-26 13:27:00,67.3,41.5,30.07,NW,321,0.0,0.0,39,0.00,,CLR,0.00,904.00,VWS V14.01,2013-05-26 17:27:00,
2013-05-26 13:28:00,67.1,43.3,30.07,NW,321,0.0,0.0,42,0.00,,CLR,0.00,828.00,VWS V14.01,2013-05-26 17:28:00,
2013-05-26 13:29:00,66.9,41.2,30.07,NW,321,0.0,0.0,39,0.00,,CLR,0.00,828.00,VWS V14.01,2013-05-26 17:29:00,
2013-05-26 13:30:00,66.9,43.7,30.07,NW,321,0.0,0.0,43,0.00,,CLR,0.00,898.00,VWS V14.01,2013-05-26 17:30:00,
2013-05-26 13:31:00,67.1,39.3,30.07,SSE,157,1.0,0.0,36,0.00,,CLR,0.00,937.00,VWS V14.01,2013-05-26 17:31:00,
2013-05-26 13:32:00,67.1,43.3,30.07,NW,321,0.0,0.0,42,0.00,,CLR,0.00,833.00,VWS V14.01,2013-05-26 17:32:00,
2013-05-26 13:33:00,66.9,43.1,30.07,NW,321,0.0,0.0,42,0.00,,CLR,0.00,960.00,VWS V14.01,2013-05-26 17:33:00,
2013-05-26 13:34:00,66.9,39.8,30.07,NW,321,0.0,0.0,37,0.00,,CLR,0.00,949.00,VWS V14.01,2013-05-26 17:34:00,
2013-05-26 13:35:00,66.9,39.8,30.07,NW,321,0.0,0.0,37,0.00,,CLR,0.00,963.00,VWS V14.01,2013-05-26 17:35:00,
2013-05-26 13:36:00,66.9,39.8,30.07,WSW,257,0.0,0.0,37,0.00,,CLR,0.00,953.00,VWS V14.01,2013-05-26 17:36:00,
2013-05-26 13:37:00,66.9,42.5,30.07,SW,232,0.0,0.0,41,0.00,,CLR,0.00,875.00,VWS V14.01,2013-05-26 17:37:00,
2013-05-26 13:38:00,67.1,41.3,30.07,NW,321,0.0,0.0,39,0.00,,CLR,0.00,828.00,VWS V14.01,2013-05-26 17:38:00,
2013-05-26 13:39:00,66.9,41.2,30.07,SW,232,0.0,0.0,39,0.00,,CLR,0.00,882.00,VWS V14.01,2013-05-26 17:39:00,
2013-05-26 13:40:00,67.1,41.3,30.07,NE,46,0.0,0.0,39,0.00,,CLR,0.00,833.00,VWS V14.01,2013-05-26 17:40:00,
2013-05-26 13:41:00,66.9,43.1,30.07,NE,46,0.0,0.0,42,0.00,,CLR,0.00,849.00,VWS V14.01,2013-05-26 17:41:00,
2013-05-26 13:42:00,66.9,41.2,30.07,NE,46,1.0,0.0,39,0.00,,CLR,0.00,816.00,VWS V14.01,2013-05-26 17:42:00,
2013-05-26 13:43:00,66.9,43.1,30.07,NW,323,1.0,0.0,42,0.00,,CLR,0.00,816.00,VWS V14.01,2013-05-26 17:43:00,
2013-05-26 13:44:00,67.3,45.8,30.07,NW,323,0.0,0.0,46,0.00,,CLR,0.00,930.00,VWS V14.01,2013-05-26 17:44:00,
2013-05-26 13:45:00,67.3,45.8,30.06,NW,323,0.0,0.0,46,0.00,,CLR,0.00,930.00,VWS V14.01,2013-05-26 17:45:00,
2013-05-26 13:46:00,67.4,45.9,30.06,North,355,0.0,0.0,46,0.00,,CLR,0.00,930.00,VWS V14.01,2013-05-26 17:46:00,
2013-05-26 13:47:00,66.9,42.5,30.07,SW,232,0.0,0.0,41,0.00,,CLR,0.00,875.00,VWS V14.01,2013-05-26 17:47:00,
2013-05-26 13:48:00,67.1,39.3,30.06,SSE,165,0.0,0.0,36,0.00,,CLR,0.00,846.00,VWS V14.01,2013-05-26 17:48:00,
2013-05-26 13:49:00,67.1,39.3,30.06,SSE,165,0.0,0.0,36,0.00,,CLR,0.00,846.00,VWS V14.01,2013-05-26 17:49:00,
2013-05-26 13:50:00,67.1,42.6,30.06,ESE,107,0.0,0.0,41,0.00,,CLR,0.00,916.00,VWS V14.01,2013-05-26 17:50:00,
2013-05-26 13:51:00,67.1,41.3,30.06,ESE,107,0.0,0.0,39,0.00,,CLR,0.00,912.00,VWS V14.01,2013-05-26 17:51:00,
2013-05-26 13:52:00,66.9,43.1,30.07,NW,323,1.0,0.0,42,0.00,,CLR,0.00,816.00,VWS V14.01,2013-05-26 17:52:00,
2013-05-26 13:53:00,67.1,40.7,30.06,ESE,107,0.0,0.0,38,0.00,,CLR,0.00,902.00,VWS V14.01,2013-05-26 17:53:00,
2013-05-26 13:54:00,67.3,42.8,30.06,ESE,107,0.0,0.0,41,0.00,,CLR,0.00,990.00,VWS V14.01,2013-05-26 17:54:00,
2013-05-26 13:55:00,67.9,43.4,30.06,SSW,199,0.0,0.0,41,0.00,,CLR,0.00,993.00,VWS V14.01,2013-05-26 17:55:00,
2013-05-26 13:56:00,68.1,43.5,30.06,SSW,199,0.0,0.0,41,0.00,,CLR,0.00,988.00,VWS V14.01,2013-05-26 17:56:00,
2013-05-26 13:57:00,67.1,39.3,30.06,SSE,165,0.0,0.0,36,0.00,,CLR,0.00,846.00,VWS V14.01,2013-05-26 17:57:00,
2013-05-26 13:58:00,67.8,41.3,30.06,NW,306,0.0,0.0,38,0.00,,CLR,0.00,863.00,VWS V14.01,2013-05-26 17:58:00,
2013-05-26 13:59:00,67.9,44.6,30.06,NW,306,0.0,0.0,43,0.00,,CLR,0.00,854.00,VWS V14.01,2013-05-26 17:59:00,
2013-05-26 14:00:00,67.8,44.5,30.05,NW,306,0.0,0.0,43,0.00,,CLR,0.00,854.00,VWS V14.01,2013-05-26 18:00:00,
2013-05-26 14:01:00,67.9,42.7,30.05,NW,306,0.0,0.0,40,0.00,,CLR,0.00,854.00,VWS V14.01,2013-05-26 18:01:00,
2013-05-26 14:02:00,67.8,40.6,30.05,NW,306,0.0,0.0,37,0.00,,CLR,0.00,751.00,VWS V14.01,2013-05-26 18:02:00,
2013-05-26 14:03:00,67.8,43.3,30.05,NW,306,0.0,0.0,41,0.00,,CLR,0.00,756.00,VWS V14.01,2013-05-26 18:03:00,
2013-05-26 14:04:00,67.9,43.4,30.05,NW,306,0.0,0.0,41,0.00,,CLR,0.00,756.00,VWS V14.01,2013-05-26 18:04:00,
2013-05-26 14:05:00,67.9,43.4,30.06,SSW,199,0.0,0.0,41,0.00,,CLR,0.00,993.00,VWS V14.01,2013-05-26 18:05:00,
2013-05-26 14:06:00,68.1,44.2,30.05,South,175,0.0,0.0,42,0.00,,CLR,0.00,1011.00,VWS V14.01,2013-05-26 18:06:00,
2013-05-26 14:07:00,68.4,46.2,30.05,South,175,0.0,0.0,45,0.00,,CLR,0.00,1011.00,VWS V14.01,2013-05-26 18:07:00,
2013-05-26 14:08:00,68.3,46.2,30.05,South,175,0.0,0.0,45,0.00,,CLR,0.00,1011.00,VWS V14.01,2013-05-26 18:08:00,
2013-05-26 14:09:00,68.4,42.5,30.05,South,175,0.0,0.0,39,0.00,,CLR,0.00,1007.00,VWS V14.01,2013-05-26 18:09:00,
2013-05-26 14:10:00,68.6,41.3,30.05,South,175,0.0,0.0,37,0.00,,CLR,0.00,965.00,VWS V14.01,2013-05-26 18:10:00,
2013-05-26 14:11:00,68.8,41.5,30.05,South,175,0.0,0.0,37,0.00,,CLR,0.00,986.00,VWS V14.01,2013-05-26 18:11:00,
2013-05-26 14:12:00,68.9,41.6,30.05,South,175,0.0,0.0,37,0.00,,CLR,0.00,954.00,VWS V14.01,2013-05-26 18:12:00,
2013-05-26 14:13:00,68.9,43.6,30.05,South,175,0.0,0.0,40,0.00,,CLR,0.00,946.00,VWS V14.01,2013-05-26 18:13:00,
2013-05-26 14:14:00,68.8,44.2,30.05,South,175,0.0,0.0,41,0.00,,CLR,0.00,946.00,VWS V14.01,2013-05-26 18:14:00,
2013-05-26 14:15:00,68.9,44.2,30.05,South,180,0.0,0.0,41,0.00,,CLR,0.00,946.00,VWS V14.01,2013-05-26 18:15:00,
2013-05-26 14:16:00,68.9,44.9,30.05,South,180,0.0,0.0,42,0.00,,CLR,0.00,925.00,VWS V14.01,2013-05-26 18:16:00,
2013-05-26 14:17:00,68.4,46.2,30.05,South,175,0.0,0.0,45,0.00,,CLR,0.00,1011.00,VWS V14.01,2013-05-26 18:17:00,
2013-05-26 14:18:00,68.9,43.0,30.05,South,180,0.0,0.0,39,0.00,,CLR,0.00,824.00,VWS V14.01,2013-05-26 18:18:00,
2013-05-26 14:19:00,68.8,42.2,30.05,South,180,0.0,0.0,38,0.00,,CLR,0.00,835.00,VWS V14.01,2013-05-26 18:19:00,
2013-05-26 14:20:00,68.6,42.7,30.05,South,180,0.0,0.0,39,0.00,,CLR,0.00,846.00,VWS V14.01,2013-05-26 18:20:00,
2013-05-26 14:21:00,68.6,43.3,30.05,South,180,1.0,0.0,40,0.00,,CLR,0.00,905.00,VWS V14.01,2013-05-26 18:21:00,
2013-05-26 14:22:00,68.6,41.3,30.05,South,180,0.0,0.0,37,0.00,,CLR,0.00,865.00,VWS V14.01,2013-05-26 18:22:00,
2013-05-26 14:23:00,68.8,41.5,30.05,South,180,0.0,0.0,37,0.00,,CLR,0.00,983.00,VWS V14.01,2013-05-26 18:23:00,
2013-05-26 14:24:00,68.9,43.0,30.05,South,180,0.0,0.0,39,0.00,,CLR,0.00,953.00,VWS V14.01,2013-05-26 18:24:00,
2013-05-26 14:25:00,68.9,44.2,30.05,South,180,0.0,0.0,41,0.00,,CLR,0.00,946.00,VWS V14.01,2013-05-26 18:25:00,
2013-05-26 14:26:00,68.9,40.9,30.05,South,180,0.0,0.0,36,0.00,,CLR,0.00,935.00,VWS V14.01,2013-05-26 18:26:00,
2013-05-26 14:27:00,68.9,43.6,30.05,South,180,0.0,0.0,40,0.00,,CLR,0.00,1005.00,VWS V14.01,2013-05-26 18:27:00,
2013-05-26 14:28:00,68.9,43.6,30.05,South,180,0.0,0.0,40,0.00,,CLR,0.00,1000.00,VWS V14.01,2013-05-26 18:28:00,
2013-05-26 14:29:00,68.6,42.7,30.05,South,180,0.0,0.0,39,0.00,,CLR,0.00,846.00,VWS V14.01,2013-05-26 18:29:00,
2013-05-26 14:30:00,68.9,41.6,30.05,South,180,0.0,0.0,37,0.00,,CLR,0.00,835.00,VWS V14.01,2013-05-26 18:30:00,
2013-05-26 14:31:00,68.9,39.4,30.05,South,180,0.0,0.0,34,0.00,,CLR,0.00,803.00,VWS V14.01,2013-05-26 18:31:00,
2013-05-26 14:32:00,68.9,41.6,30.05,South,180,0.0,0.0,37,0.00,,CLR,0.00,803.00,VWS V14.01,2013-05-26 18:32:00,
2013-05-26 14:33:00,68.8,42.9,30.05,NNE,19,2.0,0.0,39,0.00,,CLR,0.00,803.00,VWS V14.01,2013-05-26 18:33:00,
2013-05-26 14:34:00,68.6,42.7,30.05,NNE,19,0.0,0.0,39,0.00,,CLR,0.00,805.00,VWS V14.01,2013-05-26 18:34:00,
2013-05-26 14:35:00,68.9,40.9,30.05,South,180,0.0,0.0,36,0.00,,CLR,0.00,977.00,VWS V14.01,2013-05-26 18:35:00,
2013-05-26 14:36:00,68.6,41.3,30.05,ESE,123,0.0,0.0,37,0.00,,CLR,0.00,798.00,VWS V14.01,2013-05-26 18:36:00,
2013-05-26 14:37:00,68.6,41.3,30.05,SE,126,0.0,0.0,37,0.00,,CLR,0.00,798.00,VWS V14.01,2013-05-26 18:37:00,
2013-05-26 14:38:00,68.6,43.3,30.05,SE,126,0.0,0.0,40,0.00,,CLR,0.00,724.00,VWS V14.01,2013-05-26 18:38:00,
2013-05-26 14:39:00,68.4,41.1,30.05,SE,126,0.0,0.0,37,0.00,,CLR,0.00,726.00,VWS V14.01,2013-05-26 18:39:00,
2013-05-26 14:40:00,68.4,41.1,30.05,SE,126,0.0,0.0,37,0.00,,CLR,0.00,661.00,VWS V14.01,2013-05-26 18:40:00,
2013-05-26 14:41:00,68.4,41.1,30.05,SE,129,0.0,0.0,37,0.00,,CLR,0.00,800.00,VWS V14.01,2013-05-26 18:41:00,
2013-05-26 14:42:00,68.3,42.4,30.05,SE,133,0.0,0.0,39,0.00,,CLR,0.00,800.00,VWS V14.01,2013-05-26 18:42:00,
2013-05-26 14:43:00,68.6,42.7,30.05,NNE,19,0.0,0.0,39,0.00,,CLR,0.00,805.00,VWS V14.01,2013-05-26 18:43:00,
2013-05-26 14:44:00,68.3,42.4,30.05,SE,133,0.0,0.0,39,0.00,,CLR,0.00,564.00,VWS V14.01,2013-05-26 18:44:00,
2013-05-26 14:45:00,68.3,43.1,30.04,SE,133,0.0,0.0,40,0.00,,CLR,0.00,726.00,VWS V14.01,2013-05-26 18:45:00,
2013-05-26 14:46:00,68.3,41.0,30.04,NNE,17,0.0,0.0,37,0.00,,CLR,0.00,715.00,VWS V14.01,2013-05-26 18:46:00,
2013-05-26 14:47:00,68.6,41.3,30.04,NNE,17,0.0,0.0,37,0.00,,CLR,0.00,652.00,VWS V14.01,2013-05-26 18:47:00,
2013-05-26 14:48:00,68.6,41.3,30.04,NNE,17,0.0,0.0,37,0.00,,CLR,0.00,592.00,VWS V14.01,2013-05-26 18:48:00,
2013-05-26 14:49:00,68.4,43.8,30.04,NNE,17,0.0,0.0,41,0.00,,CLR,0.00,568.00,VWS V14.01,2013-05-26 18:49:00,
2013-05-26 14:50:00,68.6,44.6,30.04,NNE,17,0.0,0.0,42,0.00,,CLR,0.00,578.00,VWS V14.01,2013-05-26 18:50:00,
2013-05-26 14:51:00,68.4,45.7,30.04,NNW,339,1.0,0.0,44,0.00,,CLR,0.00,577.00,VWS V14.01,2013-05-26 18:51:00,
2013-05-26 14:52:00,68.3,42.4,30.05,SE,133,0.0,0.0,39,0.00,,CLR,0.00,800.00,VWS V14.01,2013-05-26 18:52:00,
2013-05-26 14:53:00,68.3,43.7,30.04,NNW,342,0.0,0.0,41,0.00,,CLR,0.00,642.00,VWS V14.01,2013-05-26 18:53:00,
2013-05-26 14:54:00,67.9,41.4,30.04,NNW,342,0.0,0.0,38,0.00,,CLR,0.00,559.00,VWS V14.01,2013-05-26 18:54:00,
2013-05-26 14:55:00,68.1,41.6,30.04,NNW,342,0.0,0.0,38,0.00,,CLR,0.00,591.00,VWS V14.01,2013-05-26 18:55:00,
2013-05-26 14:56:00,68.1,44.2,30.04,West,279,0.0,0.0,42,0.00,,CLR,0.00,652.00,VWS V14.01,2013-05-26 18:56:00,
2013-05-26 14:57:00,68.6,41.3,30.04,NNE,17,0.0,0.0,37,0.00,,CLR,0.00,592.00,VWS V14.01,2013-05-26 18:57:00,
2013-05-26 14:58:00,67.9,41.4,30.04,West,281,0.0,0.0,38,0.00,,CLR,0.00,679.00,VWS V14.01,2013-05-26 18:58:00,
2013-05-26 14:59:00,67.8,39.9,30.04,West,281,0.0,0.0,36,0.00,,CLR,0.00,679.00,VWS V14.01,2013-05-26 18:59:00,
2013-05-26 15:00:00,67.8,42.0,30.04,West,281,0.0,0.0,39,0.00,,CLR,0.00,793.00,VWS V14.01,2013-05-26 19:00:00,
2013-05-26 15:01:00,67.9,43.4,30.04,West,281,0.0,0.0,41,0.00,,CLR,0.00,796.00,VWS V14.01,2013-05-26 19:01:00,
2013-05-26 15:02:00,68.1,45.4,30.04,West,277,0.0,0.0,44,0.00,,CLR,0.00,777.00,VWS V14.01,2013-05-26 19:02:00,
2013-05-26 15:03:00,68.3,43.1,30.04,West,277,0.0,0.0,40,0.00,,CLR,0.00,742.00,VWS V14.01,2013-05-26 19:03:00,
2013-05-26 15:04:00,68.4,43.8,30.04,West,277,0.0,0.0,41,0.00,,CLR,0.00,810.00,VWS V14.01,2013-05-26 19:04:00,
2013-05-26 15:05:00,68.8,44.2,30.04,West,278,0.0,0.0,41,0.00,,CLR,0.00,788.00,VWS V14.01,2013-05-26 19:05:00,
2013-05-26 15:06:00,68.8,43.5,30.04,West,278,0.0,0.0,40,0.00,,CLR,0.00,788.00,VWS V14.01,2013-05-26 19:06:00,
2013-05-26 15:07:00,68.8,45.4,30.04,West,277,0.0,0.0,43,0.00,,CLR,0.00,788.00,VWS V14.01,2013-05-26 19:07:00,
2013-05-26 15:08:00,67.8,39.9,30.04,West,281,0.0,0.0,36,0.00,,CLR,0.00,679.00,VWS V14.01,2013-05-26 19:08:00,
2013-05-26 15:09:00,68.8,44.8,30.04,West,278,0.0,0.0,42,0.00,,CLR,0.00,675.00,VWS V14.01,2013-05-26 19:09:00,
2013-05-26 15:10:00,68.8,44.8,30.04,West,278,0.0,0.0,42,0.00,,CLR,0.00,735.00,VWS V14.01,2013-05-26 19:10:00,
2013-05-26 15:11:00,68.6,42.0,30.04,West,278,0.0,0.0,38,0.00,,CLR,0.00,698.00,VWS V14.01,2013-05-26 19:11:00,
2013-05-26 15:12:00,68.6,44.6,30.04,West,278,0.0,0.0,42,0.00,,CLR,0.00,682.00,VWS V14.01,2013-05-26 19:12:00,
2013-05-26 15:13:00,68.8,42.2,30.04,West,278,0.0,0.0,38,0.00,,CLR,0.00,682.00,VWS V14.01,2013-05-26 19:13:00,
2013-05-26 15:14:00,68.9,42.3,30.04,West,278,0.0,0.0,38,0.00,,CLR,0.00,682.00,VWS V14.01,2013-05-26 19:14:00,
2013-05-26 15:15:00,69.1,43.8,30.03,West,278,0.0,0.0,40,0.00,,CLR,0.00,622.00,VWS V14.01,2013-05-26 19:15:00,
2013-05-26 15:16:00,69.3,44.0,30.03,West,278,0.0,0.0,40,0.00,,CLR,0.00,698.00,VWS V14.01,2013-05-26 19:16:00,
2013-05-26 15:17:00,69.1,48.6,30.03,WNW,283,0.0,0.0,48,0.00,,CLR,0.00,650.00,VWS V14.01,2013-05-26 19:17:00,
2013-05-26 15:18:00,69.1,46.3,30.03,SSE,159,0.0,0.0,44,0.00,,CLR,0.00,647.00,VWS V14.01,2013-05-26 19:18:00,
2013-05-26 15:19:00,68.8,46.0,30.03,SSE,159,0.0,0.0,44,0.00,,CLR,0.00,647.00,VWS V14.01,2013-05-26 19:19:00,
2013-05-26 15:20:00,68.6,41.3,30.03,SSE,158,1.0,0.0,37,0.00,,CLR,0.00,647.00,VWS V14.01,2013-05-26 19:20:00,
2013-05-26 15:21:00,68.3,40.3,30.03,SSE,155,1.0,0.0,36,0.00,,CLR,0.00,360.00,VWS V14.01,2013-05-26 19:21:00,
2013-05-26 15:22:00,68.8,42.2,30.04,West,278,0.0,0.0,38,0.00,,CLR,0.00,682.00,VWS V14.01,2013-05-26 19:22:00,
2013-05-26 15:23:00,67.8,43.3,30.03,SSE,155,0.0,0.0,41,0.00,,CLR,0.00,304.00,VWS V14.01,2013-05-26 19:23:00,
2013-05-26 15:24:00,67.8,45.1,30.03,SSE,155,0.0,0.0,44,0.00,,CLR,0.00,301.00,VWS V14.01,2013-05-26 19:24:00,
2013-05-26 15:25:00,67.4,44.8,30.03,SSE,155,0.0,0.0,44,0.00,,CLR,0.00,290.00,VWS V14.01,2013-05-26 19:25:00,
2013-05-26 15:26:00,67.3,44.1,30.03,SSE,155,0.0,0.0,43,0.00,,CLR,0.00,281.00,VWS V14.01,2013-05-26 19:26:00,
2013-05-26 15:27:00,67.3,44.1,30.03,SSE,155,0.0,0.0,43,0.00,,CLR,0.00,281.00,VWS V14.01,2013-05-26 19:27:00,
2013-05-26 15:28:00,67.1,45.1,30.03,SSE,155,0.0,0.0,45,0.00,,CLR,0.00,308.00,VWS V14.01,2013-05-26 19:28:00,
2013-05-26 15:29:00,67.1,42.6,30.03,SSE,155,0.0,0.0,41,0.00,,CLR,0.00,308.00,VWS V14.01,2013-05-26 19:29:00,
2013-05-26 15:30:00,67.1,42.0,30.03,SSE,155,1.0,0.0,40,0.00,,CLR,0.00,371.00,VWS V14.01,2013-05-26 19:30:00,
2013-05-26 15:31:00,66.9,44.3,30.03,SSW,211,0.0,0.0,44,0.00,,CLR,0.00,352.00,VWS V14.01,2013-05-26 19:31:00,
2013-05-26 15:32:00,66.8,47.6,30.03,WSW,238,0.0,0.0,50,0.00,,CLR,0.00,373.00,VWS V14.01,2013-05-26 19:32:00,
2013-05-26 15:33:00,67.8,43.3,30.03,SSE,155,0.0,0.0,41,0.00,,CLR,0.00,304.00,VWS V14.01,2013-05-26 19:33:00,
2013-05-26 15:34:00,66.4,47.2,30.03,WSW,238,0.0,0.0,50,0.00,,CLR,0.00,334.00,VWS V14.01,2013-05-26 19:34:00,
2013-05-26 15:35:00,66.3,46.0,30.03,WSW,238,0.0,0.0,48,0.00,,CLR,0.00,322.00,VWS V14.01,2013-05-26 19:35:00,
2013-05-26 15:36:00,66.4,47.2,30.03,WSW,238,0.0,0.0,50,0.00,,CLR,0.00,322.00,VWS V14.01,2013-05-26 19:36:00,
2013-05-26 15:37:00,66.4,47.2,30.03,WSW,238,0.0,0.0,50,0.00,,CLR,0.00,316.00,VWS V14.01,2013-05-26 19:37:00,
2013-05-26 15:38:00,66.4,44.4,30.03,WSW,238,0.0,0.0,45,0.00,,CLR,0.00,316.00,VWS V14.01,2013-05-26 19:38:00,
2013-05-26 15:39:00,66.6,44.0,30.03,WSW,238,0.0,0.0,44,0.00,,CLR,0.00,318.00,VWS V14.01,2013-05-26 19:39:00,
2013-05-26 15:40:00,67.1,42.0,30.03,SSE,155,0.0,0.0,40,0.00,,CLR,0.00,371.00,VWS V14.01,2013-05-26 19:40:00,
2013-05-26 15:41:00,66.8,41.7,30.03,WSW,238,0.0,0.0,40,0.00,,CLR,0.00,320.00,VWS V14.01,2013-05-26 19:41:00,
2013-05-26 15:42:00,66.9,44.3,30.03,WSW,238,0.0,0.0,44,0.00,,CLR,0.00,330.00,VWS V14.01,2013-05-26 19:42:00,
2013-05-26 15:43:00,66.9,43.1,30.03,WSW,238,0.0,0.0,42,0.00,,CLR,0.00,330.00,VWS V14.01,2013-05-26 19:43:00,
2013-05-26 15:44:00,66.9,43.1,30.03,WSW,238,0.0,0.0,42,0.00,,CLR,0.00,338.00,VWS V14.01,2013-05-26 19:44:00,
2013-05-26 15:45:00,67.1,43.3,30.03,WSW,237,0.0,0.0,42,0.00,,CLR,0.00,352.00,VWS V14.01,2013-05-26 19:45:00,
2013-05-26 15:46:00,67.1,43.3,30.03,WSW,256,0.0,0.0,42,0.00,,CLR,0.00,360.00,VWS V14.01,2013-05-26 19:46:00,
2013-05-26 15:47:00,67.1,45.1,30.03,WSW,256,0.0,0.0,45,0.00,,CLR,0.00,367.00,VWS V14.01,2013-05-26 19:47:00,
2013-05-26 15:48:00,67.3,42.8,30.03,WSW,256,0.0,0.0,41,0.00,,CLR,0.00,362.00,VWS V14.01,2013-05-26 19:48:00,
2013-05-26 15:49:00,66.6,44.0,30.03,WSW,238,0.0,0.0,44,0.00,,CLR,0.00,318.00,VWS V14.01,2013-05-26 19:49:00,
2013-05-26 15:50:00,67.1,45.1,30.03,WSW,256,0.0,0.0,45,0.00,,CLR,0.00,355.00,VWS V14.01,2013-05-26 19:50:00,
2013-05-26 15:51:00,67.1,45.7,30.03,WSW,256,0.0,0.0,46,0.00,,CLR,0.00,334.00,VWS V14.01,2013-05-26 19:51:00,
2013-05-26 15:52:00,67.1,43.3,30.03,WSW,256,0.0,0.0,42,0.00,,CLR,0.00,336.00,VWS V14.01,2013-05-26 19:52:00,
2013-05-26 15:53:00,67.1,45.1,30.03,WSW,244,0.0,0.0,45,0.00,,CLR,0.00,325.00,VWS V14.01,2013-05-26 19:53:00,
2013-05-26 15:54:00,67.1,42.6,30.03,South,189,1.0,0.0,41,0.00,,CLR,0.00,325.00,VWS V14.01,2013-05-26 19:54:00,
2013-05-26 15:55:00,67.1,41.3,30.03,South,189,0.0,0.0,39,0.00,,CLR,0.00,322.00,VWS V14.01,2013-05-26 19:55:00,
2013-05-26 15:56:00,67.1,42.0,30.03,South,189,0.0,0.0,40,0.00,,CLR,0.00,323.00,VWS V14.01,2013-05-26 19:56:00,
2013-05-26 15:57:00,67.1,42.0,30.03,South,189,0.0,0.0,40,0.00,,CLR,0.00,322.00,VWS V14.01,2013-05-26 19:57:00,
2013-05-26 15:58:00,67.3,42.8,30.03,WSW,256,0.0,0.0,41,0.00,,CLR,0.00,362.00,VWS V14.01,2013-05-26 19:58:00,
2013-05-26 15:59:00,67.1,42.0,30.03,South,189,0.0,0.0,40,0.00,,CLR,0.00,318.00,VWS V14.01,2013-05-26 19:59:00,
2013-05-26 16:00:00,67.1,43.3,30.03,South,189,0.0,0.0,42,0.00,,CLR,0.00,322.00,VWS V14.01,2013-05-26 20:00:00,
2013-05-26 16:01:00,66.9,43.1,30.03,South,189,0.0,0.0,42,0.00,,CLR,0.00,330.00,VWS V14.01,2013-05-26 20:01:00,
2013-05-26 16:02:00,66.9,43.1,30.03,South,189,0.0,0.0,42,0.00,,CLR,0.00,338.00,VWS V14.01,2013-05-26 20:02:00,
2013-05-26 16:03:00,66.9,43.1,30.03,South,189,0.0,0.0,42,0.00,,CLR,0.00,338.00,VWS V14.01,2013-05-26 20:03:00,
2013-05-26 16:04:00,66.9,43.1,30.03,South,189,0.0,0.0,42,0.00,,CLR,0.00,338.00,VWS V14.01,2013-05-26 20:04:00,
2013-05-26 16:05:00,67.1,43.3,30.03,SE,139,0.0,0.0,42,0.00,,CLR,0.00,336.00,VWS V14.01,2013-05-26 20:05:00,
2013-05-26 16:06:00,66.9,42.5,30.03,SE,139,0.0,0.0,41,0.00,,CLR,0.00,329.00,VWS V14.01,2013-05-26 20:06:00,
2013-05-26 16:07:00,66.8,45.4,30.03,SE,139,0.0,0.0,46,0.00,,CLR,0.00,322.00,VWS V14.01,2013-05-26 20:07:00,
2013-05-26 16:08:00,66.8,43.0,30.03,SE,139,0.0,0.0,42,0.00,,CLR,0.00,318.00,VWS V14.01,2013-05-26 20:08:00,
2013-05-26 16:09:00,67.1,42.0,30.03,South,189,0.0,0.0,40,0.00,,CLR,0.00,318.00,VWS V14.01,2013-05-26 20:09:00,
2013-05-26 16:10:00,66.4,46.1,30.03,SE,139,0.0,0.0,48,0.00,,CLR,0.00,334.00,VWS V14.01,2013-05-26 20:10:00,
2013-05-26 16:11:00,66.3,46.6,30.03,SE,139,0.0,0.0,49,0.00,,CLR,0.00,345.00,VWS V14.01,2013-05-26 20:11:00,
2013-05-26 16:12:00,66.1,48.0,30.03,SE,139,0.0,0.0,52,0.00,,CLR,0.00,364.00,VWS V14.01,2013-05-26 20:12:00,
2013-05-26 16:13:00,66.1,46.9,30.03,SE,139,0.0,0.0,50,0.00,,CLR,0.00,396.00,VWS V14.01,2013-05-26 20:13:00,
2013-05-26 16:14:00,66.9,43.1,30.03,South,189,0.0,0.0,42,0.00,,CLR,0.00,338.00,VWS V14.01,2013-05-26 20:14:00,
2013-05-26 16:15:00,66.0,46.8,30.02,SE,139,0.0,0.0,50,0.00,,CLR,0.00,413.00,VWS V14.01,2013-05-26 20:15:00,
2013-05-26 16:16:00,66.3,47.1,30.02,SE,139,0.0,0.0,50,0.00,,CLR,0.00,438.00,VWS V14.01,2013-05-26 20:16:00,
2013-05-26 16:17:00,66.4,43.8,30.02,SE,139,0.0,0.0,44,0.00,,CLR,0.00,499.00,VWS V14.01,2013-05-26 20:17:00,
2013-05-26 16:18:00,66.6,44.0,30.02,SE,139,0.0,0.0,44,0.00,,CLR,0.00,554.00,VWS V14.01,2013-05-26 20:18:00,
2013-05-26 16:19:00,66.8,45.9,30.02,SE,139,0.0,0.0,47,0.00,,CLR,0.00,554.00,VWS V14.01,2013-05-26 20:19:00,
2013-05-26 16:20:00,66.9,43.7,30.02,SE,139,0.0,0.0,43,0.00,,CLR,0.00,714.00,VWS V14.01,2013-05-26 20:20:00,
2013-05-26 16:21:00,67.1,43.9,30.02,SE,139,0.0,0.0,43,0.00,,CLR,0.00,708.00,VWS V14.01,2013-05-26 20:21:00,
2013-05-26 16:22:00,67.3,45.2,30.02,SE,139,0.0,0.0,45,0.00,,CLR,0.00,715.00,VWS V14.01,2013-05-26 20:22:00,
2013-05-26 16:23:00,67.3,45.2,30.02,SE,139,0.0,0.0,45,0.00,,CLR,0.00,766.00,VWS V14.01,2013-05-26 20:23:00,
2013-05-26 16:24:00,67.6,45.5,30.02,SE,139,0.0,0.0,45,0.00,,CLR,0.00,765.00,VWS V14.01,2013-05-26 20:24:00,
2013-05-26 16:25:00,68.1,46.0,30.02,SE,139,0.0,0.0,45,0.00,,CLR,0.00,765.00,VWS V14.01,2013-05-26 20:25:00,
2013-05-26 16:26:00,68.4,45.7,30.02,SE,139,0.0,0.0,44,0.00,,CLR,0.00,652.00,VWS V14.01,2013-05-26 20:26:00,
2013-05-26 16:27:00,68.4,46.2,30.02,SE,139,0.0,0.0,45,0.00,,CLR,0.00,621.00,VWS V14.01,2013-05-26 20:27:00,
2013-05-26 16:28:00,68.3,46.2,30.02,SE,139,0.0,0.0,45,0.00,,CLR,0.00,599.00,VWS V14.01,2013-05-26 20:28:00,
2013-05-26 16:29:00,66.8,45.9,30.02,SE,139,0.0,0.0,47,0.00,,CLR,0.00,554.00,VWS V14.01,2013-05-26 20:29:00,
2013-05-26 16:30:00,68.4,46.2,30.01,SE,139,0.0,0.0,45,0.00,,CLR,0.00,687.00,VWS V14.01,2013-05-26 20:30:00,
2013-05-26 16:31:00,68.4,45.7,30.01,SE,139,0.0,0.0,44,0.00,,CLR,0.00,640.00,VWS V14.01,2013-05-26 20:31:00,
2013-05-26 16:32:00,68.6,45.2,30.01,SE,139,0.0,0.0,43,0.00,,CLR,0.00,575.00,VWS V14.01,2013-05-26 20:32:00,
2013-05-26 16:33:00,68.9,44.9,30.01,SE,139,0.0,0.0,42,0.00,,CLR,0.00,575.00,VWS V14.01,2013-05-26 20:33:00,
2013-05-26 16:34:00,69.1,44.4,30.01,SE,139,0.0,0.0,41,0.00,,CLR,0.00,575.00,VWS V14.01,2013-05-26 20:34:00,
2013-05-26 16:35:00,69.3,41.9,30.01,SE,139,0.0,0.0,37,0.00,,CLR,0.00,575.00,VWS V14.01,2013-05-26 20:35:00,
2013-05-26 16:36:00,69.4,43.4,30.01,NNW,339,1.0,0.0,39,0.00,,CLR,0.00,654.00,VWS V14.01,2013-05-26 20:36:00,
2013-05-26 16:37:00,69.4,43.4,30.01,NNW,339,0.0,0.0,39,0.00,,CLR,0.00,654.00,VWS V14.01,2013-05-26 20:37:00,
2013-05-26 16:38:00,69.4,44.7,30.01,NNW,339,0.0,0.0,41,0.00,,CLR,0.00,441.00,VWS V14.01,2013-05-26 20:38:00,
2013-05-26 16:39:00,69.3,44.6,30.01,NNW,339,0.0,0.0,41,0.00,,CLR,0.00,441.00,VWS V14.01,2013-05-26 20:39:00,
2013-05-26 16:40:00,69.1,44.4,30.01,NNW,340,0.0,0.0,41,0.00,,CLR,0.00,587.00,VWS V14.01,2013-05-26 20:40:00,
2013-05-26 16:41:00,69.1,43.8,30.01,NNW,339,0.0,0.0,40,0.00,,CLR,0.00,601.00,VWS V14.01,2013-05-26 20:41:00,
2013-05-26 16:42:00,69.1,44.4,30.01,NNW,339,0.0,0.0,41,0.00,,CLR,0.00,520.00,VWS V14.01,2013-05-26 20:42:00,
2013-05-26 16:43:00,68.8,44.8,30.01,SE,139,0.0,0.0,42,0.00,,CLR,0.00,575.00,VWS V14.01,2013-05-26 20:43:00,
2013-05-26 16:44:00,68.6,41.3,30.01,ESE,114,0.0,0.0,37,0.00,,CLR,0.00,327.00,VWS V14.01,2013-05-26 20:44:00,
2013-05-26 16:45:00,68.4,41.8,30.01,ESE,114,0.0,0.0,38,0.00,,CLR,0.00,327.00,VWS V14.01,2013-05-26 20:45:00,
2013-05-26 16:46:00,68.6,44.0,30.01,NNW,338,0.0,0.0,41,0.00,,CLR,0.00,564.00,VWS V14.01,2013-05-26 20:46:00,
2013-05-26 16:47:00,68.8,44.2,30.01,NNW,338,0.0,0.0,41,0.00,,CLR,0.00,645.00,VWS V14.01,2013-05-26 20:47:00,
2013-05-26 16:48:00,68.9,43.0,30.01,SE,130,1.0,0.0,39,0.00,,CLR,0.00,659.00,VWS V14.01,2013-05-26 20:48:00,
2013-05-26 16:49:00,68.9,43.0,30.01,ESE,123,0.0,0.0,39,0.00,,CLR,0.00,566.00,VWS V14.01,2013-05-26 20:49:00,
2013-05-26 16:50:00,69.1,44.4,30.01,NNW,339,0.0,0.0,41,0.00,,CLR,0.00,587.00,VWS V14.01,2013-05-26 20:50:00,
2013-05-26 16:51:00,69.1,41.8,30.01,NE,38,0.0,0.0,37,0.00,,CLR,0.00,624.00,VWS V14.01,2013-05-26 20:51:00,
2013-05-26 16:52:00,69.1,43.1,30.01,NE,38,0.0,0.0,39,0.00,,CLR,0.00,624.00,VWS V14.01,2013-05-26 20:52:00,
2013-05-26 16:53:00,69.1,45.1,30.01,NE,38,0.0,0.0,42,0.00,,CLR,0.00,322.00,VWS V14.01,2013-05-26 20:53:00,
2013-05-26 16:54:00,68.9,41.6,30.01,NE,38,0.0,0.0,37,0.00,,CLR,0.00,258.00,VWS V14.01,2013-05-26 20:54:00,
2013-05-26 16:55:00,68.6,42.7,30.01,NE,38,0.0,0.0,39,0.00,,CLR,0.00,251.00,VWS V14.01,2013-05-26 20:55:00,
2013-05-26 16:56:00,68.4,40.4,30.01,NE,38,0.0,0.0,36,0.00,,CLR,0.00,320.00,VWS V14.01,2013-05-26 20:56:00,
2013-05-26 16:57:00,68.3,41.0,30.01,NE,38,0.0,0.0,37,0.00,,CLR,0.00,364.00,VWS V14.01,2013-05-26 20:57:00,
2013-05-26 16:58:00,68.1,40.9,30.01,NE,42,1.0,0.0,37,0.00,,CLR,0.00,418.00,VWS V14.01,2013-05-26 20:58:00,
2013-05-26 16:59:00,67.9,40.7,30.01,ENE,72,0.0,0.0,37,0.00,,CLR,0.00,418.00,VWS V14.01,2013-05-26 20:59:00,
2013-05-26 17:00:00,68.1,40.9,30.01,ENE,72,0.0,0.0,37,0.00,,CLR,0.00,552.00,VWS V14.01,2013-05-26 21:00:00,
2013-05-26 17:01:00,68.3,43.1,30.01,ENE,72,0.0,0.0,40,0.00,,CLR,0.00,856.00,VWS V14.01,2013-05-26 21:01:00,
2013-05-26 17:02:00,68.9,44.2,30.01,ENE,72,0.0,0.0,41,0.00,,CLR,0.00,821.00,VWS V14.01,2013-05-26 21:02:00,
2013-05-26 17:03:00,69.3,44.0,30.01,NE,53,0.0,0.0,40,0.00,,CLR,0.00,800.00,VWS V14.01,2013-05-26 21:03:00,
2013-05-26 17:04:00,68.9,41.6,30.01,NE,38,0.0,0.0,37,0.00,,CLR,0.00,258.00,VWS V14.01,2013-05-26 21:04:00,
2013-05-26 17:05:00,70.1,41.9,30.01,NE,53,0.0,0.0,36,0.00,,CLR,0.00,786.00,VWS V14.01,2013-05-26 21:05:00,
2013-05-26 17:06:00,70.3,43.5,30.01,NE,53,0.0,0.0,38,0.00,,CLR,0.00,754.00,VWS V14.01,2013-05-26 21:06:00,
2013-05-26 17:07:00,70.4,45.0,30.01,NE,53,0.0,0.0,40,0.00,,CLR,0.00,751.00,VWS V14.01,2013-05-26 21:07:00,
2013-05-26 17:08:00,70.6,43.8,30.01,NE,53,0.0,0.0,38,0.00,,CLR,0.00,737.00,VWS V14.01,2013-05-26 21:08:00,
2013-05-26 17:09:00,70.8,44.0,30.01,NE,53,0.0,0.0,38,0.00,,CLR,0.00,751.00,VWS V14.01,2013-05-26 21:09:00,
2013-05-26 17:10:00,70.8,43.3,30.01,NE,54,0.0,0.0,37,0.00,,CLR,0.00,737.00,VWS V14.01,2013-05-26 21:10:00,
2013-05-26 17:11:00,70.9,43.4,30.01,NE,54,0.0,0.0,37,0.00,,CLR,0.00,721.00,VWS V14.01,2013-05-26 21:11:00,
2013-05-26 17:12:00,71.1,43.5,30.01,NE,54,0.0,0.0,37,0.00,,CLR,0.00,717.00,VWS V14.01,2013-05-26 21:12:00,
2013-05-26 17:13:00,71.1,43.5,30.01,NE,54,0.0,0.0,37,0.00,,CLR,0.00,698.00,VWS V14.01,2013-05-26 21:13:00,
2013-05-26 17:14:00,71.1,44.9,30.01,NE,54,0.0,0.0,39,0.00,,CLR,0.00,684.00,VWS V14.01,2013-05-26 21:14:00,
2013-05-26 17:15:00,70.9,43.4,30.00,NE,54,0.0,0.0,37,0.00,,CLR,0.00,668.00,VWS V14.01,2013-05-26 21:15:00,
2013-05-26 17:16:00,70.9,41.2,30.00,ENE,72,0.0,0.0,34,0.00,,CLR,0.00,661.00,VWS V14.01,2013-05-26 21:16:00,
2013-05-26 17:17:00,70.8,43.3,30.00,NNW,340,2.0,0.0,37,0.00,,CLR,0.00,652.00,VWS V14.01,2013-05-26 21:17:00,
2013-05-26 17:18:00,70.6,39.3,30.00,North,360,0.0,0.0,32,0.00,,CLR,0.00,640.00,VWS V14.01,2013-05-26 21:18:00,
2013-05-26 17:19:00,70.6,39.3,30.00,North,360,0.0,0.0,32,0.00,,CLR,0.00,635.00,VWS V14.01,2013-05-26 21:19:00,
2013-05-26 17:20:00,70.4,39.2,30.00,ENE,71,0.0,0.0,32,0.00,,CLR,0.00,635.00,VWS V14.01,2013-05-26 21:20:00,
2013-05-26 17:21:00,70.4,42.9,30.00,ENE,71,0.0,0.0,37,0.00,,CLR,0.00,617.00,VWS V14.01,2013-05-26 21:21:00,
2013-05-26 17:22:00,70.3,39.9,30.00,SSE,153,0.0,0.0,33,0.00,,CLR,0.00,608.00,VWS V14.01,2013-05-26 21:22:00,
2013-05-26 17:23:00,70.3,42.8,30.00,SSE,153,0.0,0.0,37,0.00,,CLR,0.00,605.00,VWS V14.01,2013-05-26 21:23:00,
2013-05-26 17:24:00,70.1,41.2,30.00,SSE,153,0.0,0.0,35,0.00,,CLR,0.00,601.00,VWS V14.01,2013-05-26 21:24:00,
2013-05-26 17:25:00,70.1,43.3,30.00,SSE,153,0.0,0.0,38,0.00,,CLR,0.00,584.00,VWS V14.01,2013-05-26 21:25:00,
2013-05-26 17:26:00,70.9,41.2,30.00,ENE,72,0.0,0.0,34,0.00,,CLR,0.00,661.00,VWS V14.01,2013-05-26 21:26:00,
2013-05-26 17:27:00,69.8,42.4,30.00,SSE,153,0.0,0.0,37,0.00,,CLR,0.00,582.00,VWS V14.01,2013-05-26 21:27:00,
2013-05-26 17:28:00,69.9,44.5,30.00,SSE,153,0.0,0.0,40,0.00,,CLR,0.00,580.00,VWS V14.01,2013-05-26 21:28:00,
2013-05-26 17:29:00,70.1,46.6,30.00,SSE,153,0.0,0.0,43,0.00,,CLR,0.00,538.00,VWS V14.01,2013-05-26 21:29:00,
2013-05-26 17:30:00,70.3,44.9,29.99,SSE,153,0.0,0.0,40,0.00,,CLR,0.00,571.00,VWS V14.01,2013-05-26 21:30:00,
2013-05-26 17:31:00,70.3,44.9,29.99,SSE,153,1.0,0.0,40,0.00,,CLR,0.00,573.00,VWS V14.01,2013-05-26 21:31:00,
2013-05-26 17:32:00,70.1,44.7,29.99,SSE,153,0.0,0.0,40,0.00,,CLR,0.00,480.00,VWS V14.01,2013-05-26 21:32:00,
2013-05-26 17:33:00,70.3,44.9,29.99,SSE,153,0.0,0.0,40,0.00,,CLR,0.00,566.00,VWS V14.01,2013-05-26 21:33:00,
2013-05-26 17:34:00,70.3,44.9,29.99,SSE,153,0.0,0.0,40,0.00,,CLR,0.00,566.00,VWS V14.01,2013-05-26 21:34:00,
2013-05-26 17:35:00,69.9,42.5,29.99,SSE,152,0.0,0.0,37,0.00,,CLR,0.00,566.00,VWS V14.01,2013-05-26 21:35:00,
2013-05-26 17:36:00,69.8,39.4,29.99,North,349,0.0,0.0,33,0.00,,CLR,0.00,557.00,VWS V14.01,2013-05-26 21:36:00,
2013-05-26 17:37:00,69.6,41.5,29.99,NW,326,0.0,0.0,36,0.00,,CLR,0.00,554.00,VWS V14.01,2013-05-26 21:37:00,
2013-05-26 17:38:00,69.6,41.5,29.99,NW,326,0.0,0.0,36,0.00,,CLR,0.00,550.00,VWS V14.01,2013-05-26 21:38:00,
2013-05-26 17:39:00,69.6,42.9,29.99,NW,326,0.0,0.0,38,0.00,,CLR,0.00,543.00,VWS V14.01,2013-05-26 21:39:00,
2013-05-26 17:40:00,69.6,42.9,29.99,NW,326,0.0,0.0,38,0.00,,CLR,0.00,538.00,VWS V14.01,2013-05-26 21:40:00,
2013-05-26 17:41:00,69.6,45.5,29.99,NW,326,0.0,0.0,42,0.00,,CLR,0.00,533.00,VWS V14.01,2013-05-26 21:41:00,
2013-05-26 17:42:00,69.4,45.3,29.99,NW,326,0.0,0.0,42,0.00,,CLR,0.00,531.00,VWS V14.01,2013-05-26 21:42:00,
2013-05-26 17:43:00,69.4,41.3,29.99,NW,326,0.0,0.0,36,0.00,,CLR,0.00,529.00,VWS V14.01,2013-05-26 21:43:00,
2013-05-26 17:44:00,69.6,42.2,29.99,NW,326,0.0,0.0,37,0.00,,CLR,0.00,527.00,VWS V14.01,2013-05-26 21:44:00,
2013-05-26 17:45:00,69.4,42.0,29.99,NW,326,0.0,0.0,37,0.00,,CLR,0.00,524.00,VWS V14.01,2013-05-26 21:45:00,
2013-05-26 17:46:00,69.4,42.0,29.99,NW,326,1.0,0.0,37,0.00,,CLR,0.00,517.00,VWS V14.01,2013-05-26 21:46:00,
2013-05-26 17:47:00,69.4,41.3,29.99,NW,326,0.0,0.0,36,0.00,,CLR,0.00,504.00,VWS V14.01,2013-05-26 21:47:00,
2013-05-26 17:48:00,69.4,41.3,29.99,SE,127,2.0,0.0,36,0.00,,CLR,0.00,503.00,VWS V14.01,2013-05-26 21:48:00,
2013-05-26 17:49:00,69.3,41.9,29.99,SE,127,0.0,0.0,37,0.00,,CLR,0.00,504.00,VWS V14.01,2013-05-26 21:49:00,
2013-05-26 17:50:00,69.3,39.8,29.99,SE,127,0.0,0.0,34,0.00,,CLR,0.00,499.00,VWS V14.01,2013-05-26 21:50:00,
2013-05-26 17:51:00,69.1,42.5,29.99,SE,127,0.0,0.0,38,0.00,,BKN085,0.00,475.00,VWS V14.01,2013-05-26 21:51:00,
2013-05-26 17:52:00,68.9,40.2,29.99,SE,127,0.0,0.0,35,0.00,,BKN085,0.00,475.00,VWS V14.01,2013-05-26 21:52:00,
2013-05-26 17:53:00,68.8,39.3,29.99,SE,127,0.0,0.0,34,0.00,,BKN085,0.00,475.00,VWS V14.01,2013-05-26 21:53:00,
2013-05-26 17:54:00,68.8,39.3,29.99,NW,319,0.0,0.0,34,0.00,,BKN085,0.00,105.00,VWS V14.01,2013-05-26 21:54:00,
2013-05-26 17:55:00,68.6,42.0,29.99,NW,319,0.0,0.0,38,0.00,,BKN085,0.00,121.00,VWS V14.01,2013-05-26 21:55:00,
2013-05-26 17:56:00,68.6,41.3,29.99,NW,319,0.0,0.0,37,0.00,,BKN085,0.00,116.00,VWS V14.01,2013-05-26 21:56:00,
2013-05-26 17:57:00,68.4,41.1,29.99,NW,319,0.0,0.0,37,0.00,,BKN085,0.00,100.00,VWS V14.01,2013-05-26 21:57:00,
2013-05-26 17:58:00,68.4,40.4,29.99,NW,319,0.0,0.0,36,0.00,,BKN085,0.00,98.00,VWS V14.01,2013-05-26 21:58:00,
2013-05-26 17:59:00,68.3,39.6,29.99,NW,318,0.0,0.0,35,0.00,,BKN085,0.00,107.00,VWS V14.01,2013-05-26 21:59:00,
2013-05-26 18:00:00,68.3,40.3,29.99,NW,317,0.0,0.0,36,0.00,,BKN085,0.00,118.00,VWS V14.01,2013-05-26 22:00:00,
2013-05-26 18:01:00,68.1,42.2,29.99,NW,318,0.0,0.0,39,0.00,,BKN085,0.00,118.00,VWS V14.01,2013-05-26 22:01:00,
2013-05-26 18:02:00,67.9,42.7,29.99,NW,318,0.0,0.0,40,0.00,,BKN085,0.00,190.00,VWS V14.01,2013-05-26 22:02:00,
2013-05-26 18:03:00,67.9,42.1,29.99,NW,318,0.0,0.0,39,0.00,,BKN085,0.00,267.00,VWS V14.01,2013-05-26 22:03:00,
2013-05-26 18:04:00,67.8,45.7,29.99,NW,318,0.0,0.0,45,0.00,,BKN085,0.00,200.00,VWS V14.01,2013-05-26 22:04:00,
2013-05-26 18:05:00,67.6,45.5,29.99,NW,318,0.0,0.0,45,0.00,,BKN085,0.00,135.00,VWS V14.01,2013-05-26 22:05:00,
2013-05-26 18:06:00,67.4,42.9,29.99,NW,318,0.0,0.0,41,0.00,,BKN085,0.00,97.00,VWS V14.01,2013-05-26 22:06:00,
2013-05-26 18:07:00,67.3,44.1,29.99,NW,318,0.0,0.0,43,0.00,,BKN085,0.00,98.00,VWS V14.01,2013-05-26 22:07:00,
2013-05-26 18:08:00,67.1,42.6,29.99,NW,318,0.0,0.0,41,0.00,,BKN085,0.00,105.00,VWS V14.01,2013-05-26 22:08:00,
2013-05-26 18:09:00,67.1,45.1,29.99,NW,318,0.0,0.0,45,0.00,,BKN085,0.00,107.00,VWS V14.01,2013-05-26 22:09:00,
2013-05-26 18:10:00,66.9,43.1,29.99,NW,318,0.0,0.0,42,0.00,,BKN085,0.00,107.00,VWS V14.01,2013-05-26 22:10:00,
2013-05-26 18:11:00,66.8,44.8,29.99,NW,318,0.0,0.0,45,0.00,,BKN085,0.00,107.00,VWS V14.01,2013-05-26 22:11:00,
2013-05-26 18:12:00,66.6,45.8,29.99,NW,318,0.0,0.0,47,0.00,,BKN085,0.00,107.00,VWS V14.01,2013-05-26 22:12:00,
2013-05-26 18:13:00,66.4,45.6,29.99,NW,318,0.0,0.0,47,0.00,,BKN085,0.00,109.00,VWS V14.01,2013-05-26 22:13:00,
2013-05-26 18:14:00,66.4,45.6,29.99,NW,318,0.0,0.0,47,0.00,,BKN085,0.00,111.00,VWS V14.01,2013-05-26 22:14:00,
2013-05-26 18:15:00,66.4,42.0,29.99,NW,318,0.0,0.0,41,0.00,,BKN085,0.00,113.00,VWS V14.01,2013-05-26 22:15:00,
2013-05-26 18:16:00,66.4,43.2,29.99,NW,318,0.0,0.0,43,0.00,,BKN085,0.00,114.00,VWS V14.01,2013-05-26 22:16:00,
2013-05-26 18:17:00,66.4,42.0,29.99,NW,318,0.0,0.0,41,0.00,,BKN085,0.00,125.00,VWS V14.01,2013-05-26 22:17:00,
2013-05-26 18:18:00,66.6,42.8,29.99,NW,318,0.0,0.0,42,0.00,,BKN085,0.00,130.00,VWS V14.01,2013-05-26 22:18:00,
2013-05-26 18:19:00,66.4,44.4,29.99,NW,318,0.0,0.0,45,0.00,,BKN085,0.00,137.00,VWS V14.01,2013-05-26 22:19:00,
2013-05-26 18:20:00,66.4,45.0,29.99,NW,318,0.0,0.0,46,0.00,,BKN085,0.00,141.00,VWS V14.01,2013-05-26 22:20:00,
2013-05-26 18:21:00,66.4,44.4,29.99,NW,318,0.0,0.0,45,0.00,,BKN085,0.00,146.00,VWS V14.01,2013-05-26 22:21:00,
2013-05-26 18:22:00,66.4,42.6,29.99,NW,318,0.0,0.0,42,0.00,,BKN085,0.00,149.00,VWS V14.01,2013-05-26 22:22:00,
2013-05-26 18:23:00,66.4,44.4,29.99,NW,318,0.0,0.0,45,0.00,,BKN085,0.00,167.00,VWS V14.01,2013-05-26 22:23:00,
2013-05-26 18:24:00,66.3,44.3,29.99,NW,318,0.0,0.0,45,0.00,,BKN085,0.00,176.00,VWS V14.01,2013-05-26 22:24:00,
2013-05-26 18:25:00,66.1,46.4,29.99,NW,318,0.0,0.0,49,0.00,,BKN085,0.00,188.00,VWS V14.01,2013-05-26 22:25:00,
2013-05-26 18:26:00,66.1,45.9,29.99,NW,318,0.0,0.0,48,0.00,,BKN085,0.00,185.00,VWS V14.01,2013-05-26 22:26:00,
2013-05-26 18:27:00,66.0,45.8,29.99,NW,318,0.0,0.0,48,0.00,,BKN085,0.00,169.00,VWS V14.01,2013-05-26 22:27:00,
2013-05-26 18:28:00,66.0,44.7,29.99,NW,318,0.0,0.0,46,0.00,,BKN085,0.00,171.00,VWS V14.01,2013-05-26 22:28:00,
2013-05-26 18:29:00,66.0,45.8,29.99,NW,318,0.0,0.0,48,0.00,,BKN085,0.00,172.00,VWS V14.01,2013-05-26 22:29:00,
2013-05-26 18:30:00,66.0,43.5,29.98,NW,318,0.0,0.0,44,0.00,,BKN085,0.00,174.00,VWS V14.01,2013-05-26 22:30:00,
2013-05-26 18:31:00,66.1,41.7,29.98,NW,318,0.0,0.0,41,0.00,,BKN085,0.00,181.00,VWS V14.01,2013-05-26 22:31:00,
2013-05-26 18:32:00,66.1,44.2,29.98,NW,318,0.0,0.0,45,0.00,,BKN085,0.00,176.00,VWS V14.01,2013-05-26 22:32:00,
2013-05-26 18:33:00,66.3,43.8,29.98,SSW,198,1.0,0.0,44,0.00,,BKN085,0.00,169.00,VWS V14.01,2013-05-26 22:33:00,
2013-05-26 18:34:00,66.3,41.9,29.98,SSW,198,0.0,0.0,41,0.00,,BKN085,0.00,162.00,VWS V14.01,2013-05-26 22:34:00,
2013-05-26 18:35:00,66.4,41.4,29.98,SSW,198,0.0,0.0,40,0.00,,BKN085,0.00,162.00,VWS V14.01,2013-05-26 22:35:00,
2013-05-26 18:36:00,66.6,40.2,29.98,SSW,198,0.0,0.0,38,0.00,,BKN085,0.00,148.00,VWS V14.01,2013-05-26 22:36:00,
2013-05-26 18:37:00,66.8,41.1,29.98,SSW,198,0.0,0.0,39,0.00,,BKN085,0.00,160.00,VWS V14.01,2013-05-26 22:37:00,
2013-05-26 18:38:00,66.9,40.5,29.98,SSW,198,0.0,0.0,38,0.00,,BKN085,0.00,158.00,VWS V14.01,2013-05-26 22:38:00,
2013-05-26 18:39:00,67.1,41.3,29.98,SSW,198,0.0,0.0,39,0.00,,BKN085,0.00,149.00,VWS V14.01,2013-05-26 22:39:00,
2013-05-26 18:40:00,67.1,39.3,29.98,ESE,114,0.0,0.0,36,0.00,,BKN085,0.00,148.00,VWS V14.01,2013-05-26 22:40:00,
2013-05-26 18:41:00,67.1,38.6,29.98,ESE,114,0.0,0.0,35,0.00,,BKN085,0.00,137.00,VWS V14.01,2013-05-26 22:41:00,
2013-05-26 18:42:00,67.3,41.5,29.98,ESE,114,0.0,0.0,39,0.00,,BKN085,0.00,128.00,VWS V14.01,2013-05-26 22:42:00,
2013-05-26 18:43:00,67.3,41.5,29.98,ESE,114,0.0,0.0,39,0.00,,BKN085,0.00,127.00,VWS V14.01,2013-05-26 22:43:00,
2013-05-26 18:44:00,67.3,38.7,29.98,ESE,114,0.0,0.0,35,0.00,,BKN085,0.00,123.00,VWS V14.01,2013-05-26 22:44:00,
2013-05-26 18:45:00,67.3,40.2,29.97,ESE,114,0.0,0.0,37,0.00,,BKN085,0.00,120.00,VWS V14.01,2013-05-26 22:45:00,
2013-05-26 18:46:00,67.4,42.3,29.97,ESE,114,0.0,0.0,40,0.00,,BKN085,0.00,141.00,VWS V14.01,2013-05-26 22:46:00,
2013-05-26 18:47:00,67.4,40.2,29.97,ESE,114,0.0,0.0,37,0.00,,BKN085,0.00,169.00,VWS V14.01,2013-05-26 22:47:00,
2013-05-26 18:48:00,67.4,40.9,29.97,ESE,114,0.0,0.0,38,0.00,,BKN085,0.00,137.00,VWS V14.01,2013-05-26 22:48:00,
2013-05-26 18:49:00,67.3,43.5,29.97,ESE,114,0.0,0.0,42,0.00,,BKN085,0.00,105.00,VWS V14.01,2013-05-26 22:49:00,
2013-05-26 18:50:00,67.3,43.5,29.97,ESE,114,0.0,0.0,42,0.00,,BKN085,0.00,97.00,VWS V14.01,2013-05-26 22:50:00,
2013-05-26 18:51:00,67.3,40.2,29.97,ESE,114,0.0,0.0,37,0.00,,BKN085,0.00,109.00,VWS V14.01,2013-05-26 22:51:00,
2013-05-26 18:52:00,67.3,40.8,29.97,ESE,114,0.0,0.0,38,0.00,,BKN085,0.00,95.00,VWS V14.01,2013-05-26 22:52:00,
2013-05-26 18:53:00,67.1,40.0,29.97,ESE,114,0.0,0.0,37,0.00,,BKN085,0.00,88.00,VWS V14.01,2013-05-26 22:53:00,
2013-05-26 18:54:00,67.1,39.3,29.97,ESE,114,0.0,0.0,36,0.00,,BKN085,0.00,86.00,VWS V14.01,2013-05-26 22:54:00,
2013-05-26 18:55:00,67.1,39.3,29.97,ESE,114,0.0,0.0,36,0.00,,BKN085,0.00,83.00,VWS V14.01,2013-05-26 22:55:00,
2013-05-26 18:56:00,67.1,39.3,29.97,ESE,114,0.0,0.0,36,0.00,,CLR,0.00,81.00,VWS V14.01,2013-05-26 22:56:00,
2013-05-26 18:57:00,66.9,40.5,29.97,ESE,114,0.0,0.0,38,0.00,,CLR,0.00,79.00,VWS V14.01,2013-05-26 22:57:00,
2013-05-26 18:58:00,66.9,41.8,29.97,ESE,114,0.0,0.0,40,0.00,,CLR,0.00,76.00,VWS V14.01,2013-05-26 22:58:00,
2013-05-26 18:59:00,66.8,39.0,29.97,ESE,114,0.0,0.0,36,0.00,,CLR,0.00,76.00,VWS V14.01,2013-05-26 22:59:00,
2013-05-26 19:00:00,66.8,39.0,29.97,ESE,114,0.0,0.0,36,0.00,,CLR,0.00,77.00,VWS V14.01,2013-05-26 23:00:00,
2013-05-26 19:01:00,66.6,41.5,29.97,ESE,114,0.0,0.0,40,0.00,,CLR,0.00,79.00,VWS V14.01,2013-05-26 23:01:00,
2013-05-26 19:02:00,66.6,42.2,29.97,ESE,114,0.0,0.0,41,0.00,,CLR,0.00,81.00,VWS V14.01,2013-05-26 23:02:00,
2013-05-26 19:03:00,66.4,42.6,29.97,ESE,114,0.0,0.0,42,0.00,,CLR,0.00,86.00,VWS V14.01,2013-05-26 23:03:00,
2013-05-26 19:04:00,66.3,42.5,29.97,ESE,114,0.0,0.0,42,0.00,,CLR,0.00,88.00,VWS V14.01,2013-05-26 23:04:00,
2013-05-26 19:05:00,66.3,41.9,29.97,ESE,114,0.0,0.0,41,0.00,,CLR,0.00,90.00,VWS V14.01,2013-05-26 23:05:00,
2013-05-26 19:06:00,66.1,42.4,29.97,ESE,114,0.0,0.0,42,0.00,,CLR,0.00,90.00,VWS V14.01,2013-05-26 23:06:00,
2013-05-26 19:07:00,66.1,42.4,29.97,ESE,114,0.0,0.0,42,0.00,,CLR,0.00,91.00,VWS V14.01,2013-05-26 23:07:00,
2013-05-26 19:08:00,66.1,42.4,29.97,ESE,114,0.0,0.0,42,0.00,,CLR,0.00,91.00,VWS V14.01,2013-05-26 23:08:00,
2013-05-26 19:09:00,66.0,42.9,29.97,ESE,114,0.0,0.0,43,0.00,,CLR,0.00,93.00,VWS V14.01,2013-05-26 23:09:00,
2013-05-26 19:10:00,66.0,42.3,29.97,ESE,114,0.0,0.0,42,0.00,,CLR,0.00,95.00,VWS V14.01,2013-05-26 23:10:00,
2013-05-26 19:11:00,66.0,44.1,29.97,ESE,114,0.0,0.0,45,0.00,,CLR,0.00,97.00,VWS V14.01,2013-05-26 23:11:00,
2013-05-26 19:12:00,66.0,42.3,29.97,ESE,114,0.0,0.0,42,0.00,,CLR,0.00,95.00,VWS V14.01,2013-05-26 23:12:00,
2013-05-26 19:13:00,66.0,42.9,29.97,ESE,114,0.0,0.0,43,0.00,,CLR,0.00,91.00,VWS V14.01,2013-05-26 23:13:00,
2013-05-26 19:14:00,66.0,43.5,29.97,ESE,114,0.0,0.0,44,0.00,,CLR,0.00,91.00,VWS V14.01,2013-05-26 23:14:00,
2013-05-26 19:15:00,65.8,42.7,29.96,ESE,114,0.0,0.0,43,0.00,,CLR,0.00,86.00,VWS V14.01,2013-05-26 23:15:00,
2013-05-26 19:16:00,65.8,43.9,29.96,ESE,114,0.0,0.0,45,0.00,,CLR,0.00,81.00,VWS V14.01,2013-05-26 23:16:00,
2013-05-26 19:17:00,65.8,42.7,29.96,ESE,114,0.0,0.0,43,0.00,,CLR,0.00,77.00,VWS V14.01,2013-05-26 23:17:00,
2013-05-26 19:18:00,65.6,42.5,29.96,ESE,114,0.0,0.0,43,0.00,,CLR,0.00,74.00,VWS V14.01,2013-05-26 23:18:00,
2013-05-26 19:19:00,65.6,44.3,29.96,ESE,114,0.0,0.0,46,0.00,,CLR,0.00,72.00,VWS V14.01,2013-05-26 23:19:00,
2013-05-26 19:20:00,65.6,41.9,29.96,ESE,114,0.0,0.0,42,0.00,,CLR,0.00,70.00,VWS V14.01,2013-05-26 23:20:00,
2013-05-26 19:21:00,65.6,41.3,29.96,ESE,114,0.0,0.0,41,0.00,,CLR,0.00,69.00,VWS V14.01,2013-05-26 23:21:00,
2013-05-26 19:22:00,65.8,42.7,29.96,ESE,114,0.0,0.0,43,0.00,,CLR,0.00,67.00,VWS V14.01,2013-05-26 23:22:00,
2013-05-26 19:23:00,65.6,44.8,29.96,ESE,114,0.0,0.0,47,0.00,,CLR,0.00,65.00,VWS V14.01,2013-05-26 23:23:00,
2013-05-26 19:24:00,65.6,42.5,29.96,ESE,114,0.0,0.0,43,0.00,,CLR,0.00,65.00,VWS V14.01,2013-05-26 23:24:00,
2013-05-26 19:25:00,65.6,43.1,29.96,East,79,0.0,0.0,44,0.00,,CLR,0.00,67.00,VWS V14.01,2013-05-26 23:25:00,
2013-05-26 19:26:00,65.6,41.3,29.96,East,96,0.0,0.0,41,0.00,,CLR,0.00,67.00,VWS V14.01,2013-05-26 23:26:00,
2013-05-26 19:27:00,65.6,40.7,29.96,East,96,0.0,0.0,40,0.00,,CLR,0.00,67.00,VWS V14.01,2013-05-26 23:27:00,
2013-05-26 19:28:00,65.6,41.9,29.96,East,96,0.0,0.0,42,0.00,,CLR,0.00,67.00,VWS V14.01,2013-05-26 23:28:00,
2013-05-26 19:29:00,65.6,41.3,29.96,East,96,0.0,0.0,41,0.00,,CLR,0.00,67.00,VWS V14.01,2013-05-26 23:29:00,
2013-05-26 19:30:00,65.6,41.3,29.96,East,96,0.0,0.0,41,0.00,,CLR,0.00,67.00,VWS V14.01,2013-05-26 23:30:00,
2013-05-26 19:31:00,65.6,42.5,29.96,East,96,0.0,0.0,43,0.00,,CLR,0.00,69.00,VWS V14.01,2013-05-26 23:31:00,
2013-05-26 19:32:00,65.6,41.3,29.96,East,96,0.0,0.0,41,0.00,,CLR,0.00,69.00,VWS V14.01,2013-05-26 23:32:00,
2013-05-26 19:33:00,65.6,41.3,29.96,East,96,0.0,0.0,41,0.00,,CLR,0.00,70.00,VWS V14.01,2013-05-26 23:33:00,
2013-05-26 19:34:00,65.5,42.4,29.96,East,96,0.0,0.0,43,0.00,,CLR,0.00,72.00,VWS V14.01,2013-05-26 23:34:00,
2013-05-26 19:35:00,65.5,43.6,29.96,East,96,0.0,0.0,45,0.00,,CLR,0.00,74.00,VWS V14.01,2013-05-26 23:35:00,
2013-05-26 19:36:00,65.5,44.2,29.96,East,96,0.0,0.0,46,0.00,,CLR,0.00,76.00,VWS V14.01,2013-05-26 23:36:00,
2013-05-26 19:37:00,65.3,44.0,29.96,East,96,0.0,0.0,46,0.00,,CLR,0.00,77.00,VWS V14.01,2013-05-26 23:37:00,
2013-05-26 19:38:00,65.2,45.0,29.96,East,96,0.0,0.0,48,0.00,,CLR,0.00,79.00,VWS V14.01,2013-05-26 23:38:00,
2013-05-26 19:39:00,65.2,42.8,29.96,East,96,0.0,0.0,44,0.00,,CLR,0.00,81.00,VWS V14.01,2013-05-26 23:39:00,
2013-05-26 19:40:00,65.2,45.0,29.96,East,96,0.0,0.0,48,0.00,,CLR,0.00,79.00,VWS V14.01,2013-05-26 23:40:00,
2013-05-26 19:41:00,65.2,44.5,29.96,East,96,0.0,0.0,47,0.00,,CLR,0.00,77.00,VWS V14.01,2013-05-26 23:41:00,
2013-05-26 19:42:00,65.2,44.5,29.96,East,96,0.0,0.0,47,0.00,,CLR,0.00,74.00,VWS V14.01,2013-05-26 23:42:00,
2013-05-26 19:43:00,65.2,43.3,29.96,East,96,0.0,0.0,45,0.00,,CLR,0.00,69.00,VWS V14.01,2013-05-26 23:43:00,
2013-05-26 19:44:00,65.0,43.2,29.96,East,96,0.0,0.0,45,0.00,,CLR,0.00,63.00,VWS V14.01,2013-05-26 23:44:00,
2013-05-26 19:45:00,65.0,42.6,29.97,East,96,0.0,0.0,44,0.00,,CLR,0.00,51.00,VWS V14.01,2013-05-26 23:45:00,
2013-05-26 19:46:00,65.0,41.4,29.97,East,96,0.0,0.0,42,0.00,,CLR,0.00,46.00,VWS V14.01,2013-05-26 23:46:00,
2013-05-26 19:47:00,65.0,42.0,29.97,East,96,0.0,0.0,43,0.00,,CLR,0.00,40.00,VWS V14.01,2013-05-26 23:47:00,
2013-05-26 19:48:00,64.8,41.8,29.97,East,96,0.0,0.0,43,0.00,,CLR,0.00,39.00,VWS V14.01,2013-05-26 23:48:00,
2013-05-26 19:49:00,64.8,41.8,29.97,East,96,0.0,0.0,43,0.00,,CLR,0.00,39.00,VWS V14.01,2013-05-26 23:49:00,
2013-05-26 19:50:00,64.7,45.7,29.97,East,96,0.0,0.0,50,0.00,,CLR,0.00,35.00,VWS V14.01,2013-05-26 23:50:00,
2013-05-26 19:51:00,64.7,45.7,29.97,East,96,0.0,0.0,50,0.00,,FEW110,0.00,33.00,VWS V14.01,2013-05-26 23:51:00,
2013-05-26 19:52:00,64.5,45.5,29.97,East,96,0.0,0.0,50,0.00,,FEW110,0.00,35.00,VWS V14.01,2013-05-26 23:52:00,
2013-05-26 19:53:00,64.3,43.7,29.97,East,96,0.0,0.0,47,0.00,,FEW110,0.00,35.00,VWS V14.01,2013-05-26 23:53:00,
2013-05-26 19:54:00,64.3,43.7,29.97,East,96,0.0,0.0,47,0.00,,FEW110,0.00,35.00,VWS V14.01,2013-05-26 23:54:00,
2013-05-26 19:55:00,64.2,44.7,29.97,East,96,0.0,0.0,49,0.00,,FEW110,0.00,35.00,VWS V14.01,2013-05-26 23:55:00,
2013-05-26 19:56:00,64.2,44.1,29.97,East,96,0.0,0.0,48,0.00,,FEW110,0.00,35.00,VWS V14.01,2013-05-26 23:56:00,
2013-05-26 19:57:00,64.0,45.0,29.97,East,96,0.0,0.0,50,0.00,,FEW110,0.00,33.00,VWS V14.01,2013-05-26 23:57:00,
2013-05-26 19:58:00,64.0,43.9,29.97,East,96,0.0,0.0,48,0.00,,FEW110,0.00,32.00,VWS V14.01,2013-05-26 23:58:00,
2013-05-26 19:59:00,63.9,43.8,29.97,East,96,0.0,0.0,48,0.00,,FEW110,0.00,30.00,VWS V14.01,2013-05-26 23:59:00,
2013-05-26 20:00:00,63.9,43.3,29.97,East,96,0.0,0.0,47,0.00,,FEW110,0.00,28.00,VWS V14.01,2013-05-27 00:00:00,
2013-05-26 20:01:00,63.9,42.2,29.97,East,96,0.0,0.0,45,0.00,,FEW110,0.00,25.00,VWS V14.01,2013-05-27 00:01:00,
2013-05-26 20:02:00,63.9,42.2,29.97,East,96,0.0,0.0,45,0.00,,FEW110,0.00,23.00,VWS V14.01,2013-05-27 00:02:00,
2013-05-26 20:03:00,63.9,42.2,29.97,East,96,0.0,0.0,45,0.00,,FEW110,0.00,23.00,VWS V14.01,2013-05-27 00:03:00,
2013-05-26 20:04:00,63.9,41.6,29.97,East,96,0.0,0.0,44,0.00,,FEW110,0.00,18.00,VWS V14.01,2013-05-27 00:04:00,
2013-05-26 20:05:00,63.9,42.7,29.97,East,96,0.0,0.0,46,0.00,,FEW110,0.00,18.00,VWS V14.01,2013-05-27 00:05:00,
2013-05-26 20:06:00,63.9,43.8,29.97,East,96,0.0,0.0,48,0.00,,FEW110,0.00,18.00,VWS V14.01,2013-05-27 00:06:00,
2013-05-26 20:07:00,63.7,42.0,29.97,East,96,0.0,0.0,45,0.00,,FEW110,0.00,16.00,VWS V14.01,2013-05-27 00:07:00,
2013-05-26 20:08:00,63.7,43.1,29.97,East,96,0.0,0.0,47,0.00,,FEW110,0.00,16.00,VWS V14.01,2013-05-27 00:08:00,
2013-05-26 20:09:00,63.7,43.1,29.97,East,96,0.0,0.0,47,0.00,,FEW110,0.00,14.00,VWS V14.01,2013-05-27 00:09:00,
2013-05-26 20:10:00,63.7,43.7,29.97,East,96,0.0,0.0,48,0.00,,FEW110,0.00,14.00,VWS V14.01,2013-05-27 00:10:00,
2013-05-26 20:11:00,63.7,42.5,29.97,East,96,0.0,0.0,46,0.00,,FEW110,0.00,14.00,VWS V14.01,2013-05-27 00:11:00,
2013-05-26 20:12:00,63.7,42.5,29.97,East,96,0.0,0.0,46,0.00,,FEW110,0.00,14.00,VWS V14.01,2013-05-27 00:12:00,
2013-05-26 20:13:00,63.7,43.1,29.97,East,96,0.0,0.0,47,0.00,,FEW110,0.00,14.00,VWS V14.01,2013-05-27 00:13:00,
2013-05-26 20:14:00,63.5,43.5,29.97,East,96,0.0,0.0,48,0.00,,FEW110,0.00,14.00,VWS V14.01,2013-05-27 00:14:00,
2013-05-26 20:15:00,63.5,42.4,29.96,East,96,0.0,0.0,46,0.00,,FEW110,0.00,14.00,VWS V14.01,2013-05-27 00:15:00,
2013-05-26 20:16:00,63.5,42.9,29.96,East,96,0.0,0.0,47,0.00,,FEW110,0.00,14.00,VWS V14.01,2013-05-27 00:16:00,
2013-05-26 20:17:00,63.5,41.2,29.96,East,96,0.0,0.0,44,0.00,,FEW110,0.00,14.00,VWS V14.01,2013-05-27 00:17:00,
2013-05-26 20:18:00,63.5,41.2,29.96,East,96,0.0,0.0,44,0.00,,FEW110,0.00,14.00,VWS V14.01,2013-05-27 00:18:00,
2013-05-26 20:19:00,63.4,41.7,29.96,East,96,0.0,0.0,45,0.00,,FEW110,0.00,14.00,VWS V14.01,2013-05-27 00:19:00,
2013-05-26 20:20:00,63.4,42.3,29.96,East,96,0.0,0.0,46,0.00,,FEW110,0.00,14.00,VWS V14.01,2013-05-27 00:20:00,
2013-05-26 20:21:00,63.4,41.7,29.96,East,96,0.0,0.0,45,0.00,,FEW110,0.00,14.00,VWS V14.01,2013-05-27 00:21:00,
2013-05-26 20:22:00,63.4,43.9,29.96,East,96,0.0,0.0,49,0.00,,FEW110,0.00,16.00,VWS V14.01,2013-05-27 00:22:00,
2013-05-26 20:23:00,63.2,43.7,29.96,East,96,0.0,0.0,49,0.00,,FEW110,0.00,16.00,VWS V14.01,2013-05-27 00:23:00,
2013-05-26 20:24:00,63.2,43.7,29.96,East,96,0.0,0.0,49,0.00,,FEW110,0.00,16.00,VWS V14.01,2013-05-27 00:24:00,
2013-05-26 20:25:00,63.2,42.7,29.96,East,96,0.0,0.0,47,0.00,,FEW110,0.00,16.00,VWS V14.01,2013-05-27 00:25:00,
2013-05-26 20:26:00,63.1,43.1,29.96,East,96,0.0,0.0,48,0.00,,FEW110,0.00,18.00,VWS V14.01,2013-05-27 00:26:00,
2013-05-26 20:27:00,63.1,43.7,29.96,East,96,0.0,0.0,49,0.00,,FEW110,0.00,18.00,VWS V14.01,2013-05-27 00:27:00,
2013-05-26 20:28:00,62.9,42.9,29.96,East,96,0.0,0.0,48,0.00,,FEW110,0.00,18.00,VWS V14.01,2013-05-27 00:28:00,
2013-05-26 20:29:00,62.9,42.9,29.96,East,96,0.0,0.0,48,0.00,,FEW110,0.00,18.00,VWS V14.01,2013-05-27 00:29:00,
2013-05-26 20:30:00,62.9,44.5,29.96,East,96,0.0,0.0,51,0.00,,FEW110,0.00,18.00,VWS V14.01,2013-05-27 00:30:00,
2013-05-26 20:31:00,62.7,43.8,29.96,East,96,0.0,0.0,50,0.00,,FEW110,0.00,18.00,VWS V14.01,2013-05-27 00:31:00,
2013-05-26 20:32:00,62.6,43.2,29.96,East,96,0.0,0.0,49,0.00,,FEW110,0.00,18.00,VWS V14.01,2013-05-27 00:32:00,
2013-05-26 20:33:00,62.6,43.7,29.96,East,96,0.0,0.0,50,0.00,,FEW110,0.00,18.00,VWS V14.01,2013-05-27 00:33:00,
2013-05-26 20:34:00,62.6,43.7,29.96,East,96,0.0,0.0,50,0.00,,FEW110,0.00,18.00,VWS V14.01,2013-05-27 00:34:00,
2013-05-26 20:35:00,62.4,43.5,29.96,East,96,0.0,0.0,50,0.00,,FEW110,0.00,16.00,VWS V14.01,2013-05-27 00:35:00,
2013-05-26 20:36:00,62.4,43.5,29.96,East,96,0.0,0.0,50,0.00,,FEW110,0.00,16.00,VWS V14.01,2013-05-27 00:36:00,
2013-05-26 20:37:00,62.3,42.9,29.96,East,96,0.0,0.0,49,0.00,,FEW110,0.00,16.00,VWS V14.01,2013-05-27 00:37:00,
2013-05-26 20:38:00,62.3,42.9,29.96,East,96,0.0,0.0,49,0.00,,FEW110,0.00,14.00,VWS V14.01,2013-05-27 00:38:00,
2013-05-26 20:39:00,62.3,42.4,29.96,East,96,0.0,0.0,48,0.00,,FEW110,0.00,14.00,VWS V14.01,2013-05-27 00:39:00,
2013-05-26 20:40:00,62.3,42.9,29.96,East,96,0.0,0.0,49,0.00,,FEW110,0.00,12.00,VWS V14.01,2013-05-27 00:40:00,
2013-05-26 20:41:00,62.3,43.4,29.96,East,96,0.0,0.0,50,0.00,,FEW110,0.00,12.00,VWS V14.01,2013-05-27 00:41:00,
2013-05-26 20:42:00,62.3,43.4,29.96,East,96,0.0,0.0,50,0.00,,FEW110,0.00,11.00,VWS V14.01,2013-05-27 00:42:00,
2013-05-26 20:43:00,62.3,44.0,29.96,East,96,0.0,0.0,51,0.00,,FEW110,0.00,9.00,VWS V14.01,2013-05-27 00:43:00,
2013-05-26 20:44:00,62.1,42.2,29.96,East,96,0.0,0.0,48,0.00,,FEW110,0.00,7.00,VWS V14.01,2013-05-27 00:44:00,
2013-05-26 20:45:00,62.1,42.2,29.97,East,96,0.0,0.0,48,0.00,,FEW110,0.00,7.00,VWS V14.01,2013-05-27 00:45:00,
2013-05-26 20:46:00,62.1,41.7,29.97,East,96,0.0,0.0,47,0.00,,FEW110,0.00,7.00,VWS V14.01,2013-05-27 00:46:00,
2013-05-26 20:47:00,62.1,43.8,29.97,East,96,0.0,0.0,51,0.00,,FEW110,0.00,5.00,VWS V14.01,2013-05-27 00:47:00,
2013-05-26 20:48:00,62.1,43.3,29.97,East,96,0.0,0.0,50,0.00,,FEW110,0.00,5.00,VWS V14.01,2013-05-27 00:48:00,
2013-05-26 20:49:00,62.0,42.1,29.97,East,96,0.0,0.0,48,0.00,,FEW110,0.00,5.00,VWS V14.01,2013-05-27 00:49:00,
2013-05-26 20:50:00,62.0,43.2,29.97,East,96,0.0,0.0,50,0.00,,FEW110,0.00,0.00,VWS V14.01,2013-05-27 00:50:00,
2013-05-26 20:51:00,62.0,42.6,29.97,East,96,0.0,0.0,49,0.00,,FEW110,0.00,0.00,VWS V14.01,2013-05-27 00:51:00,
2013-05-26 20:52:00,62.0,43.7,29.97,East,96,0.0,0.0,51,0.00,,FEW110,0.00,0.00,VWS V14.01,2013-05-27 00:52:00,
2013-05-26 20:53:00,61.8,43.0,29.97,East,96,0.0,0.0,50,0.00,,FEW110,0.00,0.00,VWS V14.01,2013-05-27 00:53:00,
2013-05-26 20:54:00,61.6,43.3,29.97,East,96,0.0,0.0,51,0.00,,FEW110,0.00,0.00,VWS V14.01,2013-05-27 00:54:00,
2013-05-26 20:55:00,61.6,43.3,29.97,East,96,0.0,0.0,51,0.00,,FEW110,0.00,0.00,VWS V14.01,2013-05-27 00:55:00,
2013-05-26 20:56:00,61.5,43.2,29.97,East,96,0.0,0.0,51,0.00,,FEW110,0.00,0.00,VWS V14.01,2013-05-27 00:56:00,
2013-05-26 20:57:00,61.5,43.2,29.97,East,96,0.0,0.0,51,0.00,,FEW110,0.00,0.00,VWS V14.01,2013-05-27 00:57:00,
2013-05-26 20:58:00,61.3,43.0,29.97,East,96,0.0,0.0,51,0.00,,FEW110,0.00,0.00,VWS V14.01,2013-05-27 00:58:00,
2013-05-26 20:59:00,61.3,43.0,29.97,East,96,0.0,0.0,51,0.00,,FEW110,0.00,0.00,VWS V14.01,2013-05-27 00:59:00,
2013-05-26 21:00:00,61.2,43.0,29.97,East,96,0.0,0.0,51,0.00,,FEW110,0.00,0.00,VWS V14.01,2013-05-27 01:00:00,
2013-05-26 21:01:00,61.2,42.4,29.97,East,96,0.0,0.0,50,0.00,,OVC100,0.00,0.00,VWS V14.01,2013-05-27 01:01:00,
2013-05-26 21:02:00,61.2,42.4,29.97,East,96,0.0,0.0,50,0.00,,OVC100,0.00,0.00,VWS V14.01,2013-05-27 01:02:00,
2013-05-26 21:03:00,61.2,42.4,29.97,East,96,0.0,0.0,50,0.00,,OVC100,0.00,0.00,VWS V14.01,2013-05-27 01:03:00,
2013-05-26 21:04:00,61.0,42.2,29.97,East,96,0.0,0.0,50,0.00,,OVC100,0.00,0.00,VWS V14.01,2013-05-27 01:04:00,
2013-05-26 21:05:00,61.0,42.2,29.97,East,96,0.0,0.0,50,0.00,,OVC100,0.00,0.00,VWS V14.01,2013-05-27 01:05:00,
2013-05-26 21:06:00,61.0,43.3,29.97,East,96,0.0,0.0,52,0.00,,OVC100,0.00,0.00,VWS V14.01,2013-05-27 01:06:00,
2013-05-26 21:07:00,61.0,43.3,29.97,East,96,0.0,0.0,52,0.00,,OVC100,0.00,0.00,VWS V14.01,2013-05-27 01:07:00,
2013-05-26 21:08:00,60.9,43.7,29.97,East,96,0.0,0.0,53,0.00,,OVC100,0.00,0.00,VWS V14.01,2013-05-27 01:08:00,
2013-05-26 21:09:00,60.7,43.0,29.97,East,96,0.0,0.0,52,0.00,,OVC100,0.00,0.00,VWS V14.01,2013-05-27 01:09:00,
2013-05-26 21:10:00,60.7,43.0,29.97,East,96,0.0,0.0,52,0.00,,OVC100,0.00,0.00,VWS V14.01,2013-05-27 01:10:00,
2013-05-26 21:11:00,60.7,43.0,29.97,East,96,0.0,0.0,52,0.00,,OVC100,0.00,0.00,VWS V14.01,2013-05-27 01:11:00,
2013-05-26 21:12:00,60.5,43.3,29.97,East,96,0.0,0.0,53,0.00,,OVC100,0.00,0.00,VWS V14.01,2013-05-27 01:12:00,
2013-05-26 21:13:00,60.5,43.3,29.97,East,96,0.0,0.0,53,0.00,,OVC100,0.00,0.00,VWS V14.01,2013-05-27 01:13:00,
2013-05-26 21:14:00,60.4,43.2,29.97,East,96,0.0,0.0,53,0.00,,OVC100,0.00,0.00,VWS V14.01,2013-05-27 01:14:00,
2013-05-26 21:15:00,60.4,43.2,29.96,East,96,0.0,0.0,53,0.00,,OVC100,0.00,0.00,VWS V14.01,2013-05-27 01:15:00,
2013-05-26 21:16:00,60.4,43.2,29.96,East,96,0.0,0.0,53,0.00,,OVC100,0.00,0.00,VWS V14.01,2013-05-27 01:16:00,
2013-05-26 21:17:00,60.2,43.0,29.96,East,96,0.0,0.0,53,0.00,,OVC100,0.00,0.00,VWS V14.01,2013-05-27 01:17:00,
2013-05-26 21:18:00,60.2,44.0,29.96,East,96,0.0,0.0,55,0.00,,OVC100,0.00,0.00,VWS V14.01,2013-05-27 01:18:00,
2013-05-26 21:19:00,60.2,44.0,29.96,East,96,0.0,0.0,55,0.00,,OVC100,0.00,0.00,VWS V14.01,2013-05-27 01:19:00,
2013-05-26 21:20:00,60.2,44.0,29.96,East,96,0.0,0.0,55,0.00,,OVC100,0.00,0.00,VWS V14.01,2013-05-27 01:20:00,
2013-05-26 21:21:00,60.2,44.0,29.96,East,96,0.0,0.0,55,0.00,,OVC100,0.00,0.00,VWS V14.01,2013-05-27 01:21:00,
2013-05-26 21:22:00,60.1,44.4,29.96,East,96,0.0,0.0,56,0.00,,OVC100,0.00,0.00,VWS V14.01,2013-05-27 01:22:00,
2013-05-26 21:23:00,60.1,44.4,29.96,East,96,0.0,0.0,56,0.00,,OVC100,0.00,0.00,VWS V14.01,2013-05-27 01:23:00,
2013-05-26 21:24:00,60.1,44.8,29.96,East,96,0.0,0.0,57,0.00,,OVC100,0.00,0.00,VWS V14.01,2013-05-27 01:24:00,
2013-05-26 21:25:00,60.1,44.8,29.96,East,96,0.0,0.0,57,0.00,,OVC100,0.00,0.00,VWS V14.01,2013-05-27 01:25:00,
2013-05-26 21:26:00,59.9,44.7,29.96,East,96,0.0,0.0,57,0.00,,OVC100,0.00,0.00,VWS V14.01,2013-05-27 01:26:00,
2013-05-26 21:27:00,59.9,44.2,29.96,East,96,0.0,0.0,56,0.00,,OVC100,0.00,0.00,VWS V14.01,2013-05-27 01:27:00,
2013-05-26 21:28:00,59.9,44.2,29.96,East,96,0.0,0.0,56,0.00,,OVC100,0.00,0.00,VWS V14.01,2013-05-27 01:28:00,
2013-05-26 21:29:00,59.8,44.1,29.96,East,96,0.0,0.0,56,0.00,,OVC100,0.00,0.00,VWS V14.01,2013-05-27 01:29:00,
2013-05-26 21:30:00,59.8,44.5,29.96,East,96,0.0,0.0,57,0.00,,OVC100,0.00,0.00,VWS V14.01,2013-05-27 01:30:00,
2013-05-26 21:31:00,59.8,44.5,29.96,East,96,0.0,0.0,57,0.00,,OVC100,0.00,0.00,VWS V14.01,2013-05-27 01:31:00,
2013-05-26 21:32:00,59.6,44.8,29.96,East,96,0.0,0.0,58,0.00,,OVC100,0.00,0.00,VWS V14.01,2013-05-27 01:32:00,
2013-05-26 21:33:00,59.6,44.4,29.96,East,96,0.0,0.0,57,0.00,,OVC100,0.00,0.00,VWS V14.01,2013-05-27 01:33:00,
2013-05-26 21:34:00,59.6,43.9,29.96,East,96,0.0,0.0,56,0.00,,OVC100,0.00,0.00,VWS V14.01,2013-05-27 01:34:00,
2013-05-26 21:35:00,59.6,44.4,29.96,East,96,0.0,0.0,57,0.00,,OVC100,0.00,0.00,VWS V14.01,2013-05-27 01:35:00,
2013-05-26 21:36:00,59.6,44.8,29.96,East,96,0.0,0.0,58,0.00,,OVC100,0.00,0.00,VWS V14.01,2013-05-27 01:36:00,
2013-05-26 21:37:00,59.6,44.8,29.96,East,96,0.0,0.0,58,0.00,,OVC100,0.00,0.00,VWS V14.01,2013-05-27 01:37:00,
2013-05-26 21:38:00,59.6,44.4,29.96,East,96,0.0,0.0,57,0.00,,OVC100,0.00,0.00,VWS V14.01,2013-05-27 01:38:00,
2013-05-26 21:39:00,59.5,44.3,29.96,East,96,0.0,0.0,57,0.00,,OVC100,0.00,0.00,VWS V14.01,2013-05-27 01:39:00,
2013-05-26 21:40:00,59.5,44.3,29.96,East,96,0.0,0.0,57,0.00,,OVC100,0.00,0.00,VWS V14.01,2013-05-27 01:40:00,
2013-05-26 21:41:00,59.5,44.7,29.96,East,96,0.0,0.0,58,0.00,,OVC100,0.00,0.00,VWS V14.01,2013-05-27 01:41:00,
2013-05-26 21:42:00,59.5,44.7,29.96,East,96,0.0,0.0,58,0.00,,OVC100,0.00,0.00,VWS V14.01,2013-05-27 01:42:00,
2013-05-26 21:43:00,59.5,45.2,29.96,East,96,0.0,0.0,59,0.00,,OVC100,0.00,0.00,VWS V14.01,2013-05-27 01:43:00,
2013-05-26 21:44:00,59.3,45.0,29.96,East,93,0.0,0.0,59,0.00,,OVC100,0.00,0.00,VWS V14.01,2013-05-27 01:44:00,
2013-05-26 21:45:00,59.3,45.0,29.96,East,93,0.0,0.0,59,0.00,,OVC100,0.00,0.00,VWS V14.01,2013-05-27 01:45:00,
2013-05-26 21:46:00,59.3,44.5,29.96,East,93,0.0,0.0,58,0.00,,OVC100,0.00,0.00,VWS V14.01,2013-05-27 01:46:00,
2013-05-26 21:47:00,59.3,44.5,29.96,East,93,0.0,0.0,58,0.00,,OVC100,0.00,0.00,VWS V14.01,2013-05-27 01:47:00,
2013-05-26 21:48:00,59.2,44.5,29.96,East,93,0.0,0.0,58,0.00,,OVC100,0.00,0.00,VWS V14.01,2013-05-27 01:48:00,
2013-05-26 21:49:00,59.2,44.9,29.96,East,93,0.0,0.0,59,0.00,,OVC100,0.00,0.00,VWS V14.01,2013-05-27 01:49:00,
2013-05-26 21:50:00,59.2,44.9,29.96,East,93,0.0,0.0,59,0.00,,OVC100,0.00,0.00,VWS V14.01,2013-05-27 01:50:00,
2013-05-26 21:51:00,59.2,44.9,29.96,East,93,0.0,0.0,59,0.00,,OVC100,0.00,0.00,VWS V14.01,2013-05-27 01:51:00,
2013-05-26 21:52:00,59.3,45.4,29.96,East,93,0.0,0.0,60,0.00,,OVC100,0.00,0.00,VWS V14.01,2013-05-27 01:52:00,
2013-05-26 21:53:00,59.3,45.0,29.96,East,93,0.0,0.0,59,0.00,,OVC100,0.00,0.00,VWS V14.01,2013-05-27 01:53:00,
2013-05-26 21:54:00,59.3,44.5,29.96,East,93,0.0,0.0,58,0.00,,OVC100,0.00,0.00,VWS V14.01,2013-05-27 01:54:00,
2013-05-26 21:55:00,59.3,45.0,29.96,East,93,0.0,0.0,59,0.00,,OVC100,0.00,0.00,VWS V14.01,2013-05-27 01:55:00,
2013-05-26 21:56:00,59.2,44.9,29.96,East,93,0.0,0.0,59,0.00,,OVC100,0.00,0.00,VWS V14.01,2013-05-27 01:56:00,
2013-05-26 21:57:00,59.2,44.9,29.96,East,93,0.0,0.0,59,0.00,,OVC100,0.00,0.00,VWS V14.01,2013-05-27 01:57:00,
2013-05-26 21:58:00,59.2,45.3,29.96,East,93,0.0,0.0,60,0.00,,OVC100,0.00,0.00,VWS V14.01,2013-05-27 01:58:00,
2013-05-26 21:59:00,59.2,45.3,29.96,East,93,0.0,0.0,60,0.00,,OVC100,0.00,0.00,VWS V14.01,2013-05-27 01:59:00,
2013-05-26 22:00:00,59.0,44.7,29.97,East,93,0.0,0.0,59,0.00,,OVC100,0.00,0.00,VWS V14.01,2013-05-27 02:00:00,
2013-05-26 22:01:00,59.0,44.3,29.97,East,93,0.0,0.0,58,0.00,,OVC100,0.00,0.00,VWS V14.01,2013-05-27 02:01:00,
2013-05-26 22:02:00,59.0,44.7,29.97,East,93,0.0,0.0,59,0.00,,OVC100,0.00,0.00,VWS V14.01,2013-05-27 02:02:00,
2013-05-26 22:03:00,59.0,44.7,29.97,East,93,0.0,0.0,59,0.00,,OVC100,0.00,0.00,VWS V14.01,2013-05-27 02:03:00,
2013-05-26 22:04:00,59.0,45.6,29.97,East,93,0.0,0.0,61,0.00,,OVC100,0.00,0.00,VWS V14.01,2013-05-27 02:04:00,
2013-05-26 22:05:00,59.0,45.2,29.97,East,93,0.0,0.0,60,0.00,,OVC100,0.00,0.00,VWS V14.01,2013-05-27 02:05:00,
2013-05-26 22:06:00,59.0,45.2,29.97,East,93,0.0,0.0,60,0.00,,OVC100,0.00,0.00,VWS V14.01,2013-05-27 02:06:00,
2013-05-26 22:07:00,59.0,45.2,29.97,East,93,0.0,0.0,60,0.00,,OVC100,0.00,0.00,VWS V14.01,2013-05-27 02:07:00,
2013-05-26 22:08:00,59.0,46.0,29.97,East,93,0.0,0.0,62,0.00,,OVC100,0.00,0.00,VWS V14.01,2013-05-27 02:08:00,
2013-05-26 22:09:00,59.0,45.6,29.97,East,93,0.0,0.0,61,0.00,,OVC100,0.00,0.00,VWS V14.01,2013-05-27 02:09:00,
2013-05-26 22:10:00,58.9,45.1,29.97,East,93,0.0,0.0,60,0.00,,OVC100,0.00,0.00,VWS V14.01,2013-05-27 02:10:00,
2013-05-26 22:11:00,58.9,44.6,29.97,East,93,0.0,0.0,59,0.00,,OVC100,0.00,0.00,VWS V14.01,2013-05-27 02:11:00,
2013-05-26 22:12:00,58.9,44.6,29.97,East,93,0.0,0.0,59,0.00,,OVC100,0.00,0.00,VWS V14.01,2013-05-27 02:12:00,
2013-05-26 22:13:00,58.9,44.6,29.97,East,93,0.0,0.0,59,0.00,,OVC100,0.00,0.00,VWS V14.01,2013-05-27 02:13:00,
2013-05-26 22:14:00,59.0,44.7,29.97,East,93,0.0,0.0,59,0.00,,OVC100,0.00,0.00,VWS V14.01,2013-05-27 02:14:00,
2013-05-26 22:15:00,59.0,44.7,29.97,East,93,0.0,0.0,59,0.00,,OVC100,0.00,0.00,VWS V14.01,2013-05-27 02:15:00,
2013-05-26 22:16:00,59.2,46.2,29.97,East,93,0.0,0.0,62,0.00,,OVC100,0.00,0.00,VWS V14.01,2013-05-27 02:16:00,
2013-05-26 22:17:00,59.2,46.6,29.97,East,93,0.0,0.0,63,0.00,,OVC100,0.00,0.00,VWS V14.01,2013-05-27 02:17:00,
2013-05-26 22:18:00,59.2,46.6,29.97,East,93,0.0,0.0,63,0.00,,OVC100,0.00,0.00,VWS V14.01,2013-05-27 02:18:00,
2013-05-26 22:19:00,59.2,46.2,29.97,East,93,0.0,0.0,62,0.00,,OVC100,0.00,0.00,VWS V14.01,2013-05-27 02:19:00,
2013-05-26 22:20:00,59.2,45.8,29.97,East,93,0.0,0.0,61,0.00,,OVC100,0.00,0.00,VWS V14.01,2013-05-27 02:20:00,
2013-05-26 22:21:00,59.2,46.2,29.97,East,93,0.0,0.0,62,0.00,,OVC100,0.00,0.00,VWS V14.01,2013-05-27 02:21:00,
2013-05-26 22:22:00,59.2,45.8,29.97,East,93,0.0,0.0,61,0.00,,OVC100,0.00,0.00,VWS V14.01,2013-05-27 02:22:00,
2013-05-26 22:23:00,59.2,45.3,29.97,East,93,0.0,0.0,60,0.00,,OVC100,0.00,0.00,VWS V14.01,2013-05-27 02:23:00,
2013-05-26 22:24:00,59.3,45.4,29.97,East,93,0.0,0.0,60,0.00,,OVC100,0.00,0.00,VWS V14.01,2013-05-27 02:24:00,
2013-05-26 22:25:00,59.3,45.9,29.97,East,93,0.0,0.0,61,0.00,,OVC100,0.00,0.00,VWS V14.01,2013-05-27 02:25:00,
2013-05-26 22:26:00,59.3,45.9,29.97,East,93,0.0,0.0,61,0.00,,OVC100,0.00,0.00,VWS V14.01,2013-05-27 02:26:00,
2013-05-26 22:27:00,59.3,45.9,29.97,East,93,0.0,0.0,61,0.00,,OVC100,0.00,0.00,VWS V14.01,2013-05-27 02:27:00,
2013-05-26 22:28:00,59.5,45.6,29.97,East,93,0.0,0.0,60,0.00,,OVC100,0.00,0.00,VWS V14.01,2013-05-27 02:28:00,
2013-05-26 22:29:00,59.5,46.1,29.97,East,93,0.0,0.0,61,0.00,,OVC100,0.00,0.00,VWS V14.01,2013-05-27 02:29:00,
2013-05-26 22:30:00,59.5,45.2,29.97,East,93,0.0,0.0,59,0.00,,OVC100,0.00,0.00,VWS V14.01,2013-05-27 02:30:00,
2013-05-26 22:31:00,59.5,45.2,29.97,East,93,0.0,0.0,59,0.00,,OVC100,0.00,0.00,VWS V14.01,2013-05-27 02:31:00,
2013-05-26 22:32:00,59.5,45.6,29.97,East,93,0.0,0.0,60,0.00,,OVC100,0.00,0.00,VWS V14.01,2013-05-27 02:32:00,
2013-05-26 22:33:00,59.3,45.0,29.97,East,93,0.0,0.0,59,0.00,,OVC100,0.00,0.00,VWS V14.01,2013-05-27 02:33:00,
2013-05-26 22:34:00,59.3,45.0,29.97,East,93,0.0,0.0,59,0.00,,OVC100,0.00,0.00,VWS V14.01,2013-05-27 02:34:00,
2013-05-26 22:35:00,59.3,45.0,29.97,East,93,0.0,0.0,59,0.00,,OVC100,0.00,0.00,VWS V14.01,2013-05-27 02:35:00,
2013-05-26 22:36:00,59.3,45.9,29.97,East,93,0.0,0.0,61,0.00,,OVC100,0.00,0.00,VWS V14.01,2013-05-27 02:36:00,
2013-05-26 22:37:00,59.3,45.9,29.97,East,93,0.0,0.0,61,0.00,,OVC100,0.00,0.00,VWS V14.01,2013-05-27 02:37:00,
2013-05-26 22:38:00,59.3,45.9,29.97,East,93,0.0,0.0,61,0.00,,OVC100,0.00,0.00,VWS V14.01,2013-05-27 02:38:00,
2013-05-26 22:39:00,59.3,45.4,29.97,East,93,0.0,0.0,60,0.00,,OVC100,0.00,0.00,VWS V14.01,2013-05-27 02:39:00,
2013-05-26 22:40:00,59.3,45.0,29.97,East,93,0.0,0.0,59,0.00,,OVC100,0.00,0.00,VWS V14.01,2013-05-27 02:40:00,
2013-05-26 22:41:00,59.3,45.9,29.97,East,93,0.0,0.0,61,0.00,,OVC100,0.00,0.00,VWS V14.01,2013-05-27 02:41:00,
2013-05-26 22:42:00,59.5,45.6,29.97,East,93,0.0,0.0,60,0.00,,OVC100,0.00,0.00,VWS V14.01,2013-05-27 02:42:00,
2013-05-26 22:43:00,59.5,45.6,29.97,East,93,0.0,0.0,60,0.00,,OVC100,0.00,0.00,VWS V14.01,2013-05-27 02:43:00,
2013-05-26 22:44:00,59.5,45.6,29.97,East,93,0.0,0.0,60,0.00,,OVC100,0.00,0.00,VWS V14.01,2013-05-27 02:44:00,
2013-05-26 22:45:00,59.5,44.3,29.96,East,93,0.0,0.0,57,0.00,,OVC100,0.00,0.00,VWS V14.01,2013-05-27 02:45:00,
2013-05-26 22:46:00,59.6,44.8,29.96,East,93,0.0,0.0,58,0.00,,OVC100,0.00,0.00,VWS V14.01,2013-05-27 02:46:00,
2013-05-26 22:47:00,59.6,44.4,29.96,East,93,0.0,0.0,57,0.00,,OVC100,0.00,0.00,VWS V14.01,2013-05-27 02:47:00,
2013-05-26 22:48:00,59.8,44.1,29.96,East,93,0.0,0.0,56,0.00,,OVC100,0.00,0.00,VWS V14.01,2013-05-27 02:48:00,
2013-05-26 22:49:00,59.8,44.1,29.96,East,93,0.0,0.0,56,0.00,,OVC100,0.00,0.00,VWS V14.01,2013-05-27 02:49:00,
2013-05-26 22:50:00,59.9,43.7,29.96,East,93,0.0,0.0,55,0.00,,OVC100,0.00,0.00,VWS V14.01,2013-05-27 02:50:00,
2013-05-26 22:51:00,60.1,46.2,29.96,East,93,0.0,0.0,60,0.00,,OVC100,0.00,0.00,VWS V14.01,2013-05-27 02:51:00,
2013-05-26 22:52:00,60.1,45.3,29.96,East,93,0.0,0.0,58,0.00,,OVC100,0.00,0.00,VWS V14.01,2013-05-27 02:52:00,
2013-05-26 22:53:00,60.1,45.3,29.96,East,93,0.0,0.0,58,0.00,,OVC100,0.00,0.00,VWS V14.01,2013-05-27 02:53:00,
2013-05-26 22:54:00,60.2,45.4,29.96,East,93,0.0,0.0,58,0.00,,OVC100,0.00,0.00,VWS V14.01,2013-05-27 02:54:00,
2013-05-26 22:55:00,60.2,45.4,29.96,East,93,0.0,0.0,58,0.00,,OVC100,0.00,0.00,VWS V14.01,2013-05-27 02:55:00,
2013-05-26 22:56:00,60.2,46.7,29.96,East,93,0.0,0.0,61,0.00,,OVC100,0.00,0.00,VWS V14.01,2013-05-27 02:56:00,
2013-05-26 22:57:00,60.2,46.3,29.96,East,93,0.0,0.0,60,0.00,,OVC100,0.00,0.00,VWS V14.01,2013-05-27 02:57:00,
2013-05-26 22:58:00,60.1,45.7,29.96,East,93,0.0,0.0,59,0.00,,OVC100,0.00,0.00,VWS V14.01,2013-05-27 02:58:00,
2013-05-26 22:59:00,60.1,45.7,29.96,East,93,0.0,0.0,59,0.00,,OVC100,0.00,0.00,VWS V14.01,2013-05-27 02:59:00,
2013-05-26 23:00:00,59.9,45.1,29.96,East,93,0.0,0.0,58,0.00,,OVC100,0.00,0.00,VWS V14.01,2013-05-27 03:00:00,
2013-05-26 23:01:00,59.9,44.2,29.96,East,93,0.0,0.0,56,0.00,,OVC100,0.00,0.00,VWS V14.01,2013-05-27 03:01:00,
2013-05-26 23:02:00,59.9,43.7,29.96,East,93,0.0,0.0,55,0.00,,OVC100,0.00,0.00,VWS V14.01,2013-05-27 03:02:00,
2013-05-26 23:03:00,59.9,43.7,29.96,East,93,0.0,0.0,55,0.00,,OVC100,0.00,0.00,VWS V14.01,2013-05-27 03:03:00,
2013-05-26 23:04:00,59.9,43.2,29.96,East,93,0.0,0.0,54,0.00,,OVC100,0.00,0.00,VWS V14.01,2013-05-27 03:04:00,
2013-05-26 23:05:00,59.9,43.7,29.96,East,93,0.0,0.0,55,0.00,,OVC100,0.00,0.00,VWS V14.01,2013-05-27 03:05:00,
2013-05-26 23:06:00,59.9,44.7,29.96,East,93,0.0,0.0,57,0.00,,OVC100,0.00,0.00,VWS V14.01,2013-05-27 03:06:00,
2013-05-26 23:07:00,59.9,45.1,29.96,East,93,0.0,0.0,58,0.00,,OVC100,0.00,0.00,VWS V14.01,2013-05-27 03:07:00,
2013-05-26 23:08:00,59.8,45.0,29.96,East,93,0.0,0.0,58,0.00,,OVC100,0.00,0.00,VWS V14.01,2013-05-27 03:08:00,
2013-05-26 23:09:00,59.6,44.8,29.96,East,93,0.0,0.0,58,0.00,,OVC100,0.00,0.00,VWS V14.01,2013-05-27 03:09:00,
2013-05-26 23:10:00,59.6,44.4,29.96,East,93,0.0,0.0,57,0.00,,OVC100,0.00,0.00,VWS V14.01,2013-05-27 03:10:00,
2013-05-26 23:11:00,59.5,44.3,29.96,East,93,0.0,0.0,57,0.00,,OVC100,0.00,0.00,VWS V14.01,2013-05-27 03:11:00,
2013-05-26 23:12:00,59.5,44.3,29.96,East,93,0.0,0.0,57,0.00,,OVC100,0.00,0.00,VWS V14.01,2013-05-27 03:12:00,
2013-05-26 23:13:00,59.5,44.7,29.96,East,93,0.0,0.0,58,0.00,,OVC100,0.00,0.00,VWS V14.01,2013-05-27 03:13:00,
2013-05-26 23:14:00,59.3,44.1,29.96,East,93,0.0,0.0,57,0.00,,OVC100,0.00,0.00,VWS V14.01,2013-05-27 03:14:00,
2013-05-26 23:15:00,59.3,45.0,29.97,East,93,0.0,0.0,59,0.00,,OVC100,0.00,0.00,VWS V14.01,2013-05-27 03:15:00,
2013-05-26 23:16:00,59.3,44.1,29.97,East,93,0.0,0.0,57,0.00,,OVC100,0.00,0.00,VWS V14.01,2013-05-27 03:16:00,
2013-05-26 23:17:00,59.3,44.5,29.97,East,93,0.0,0.0,58,0.00,,OVC100,0.00,0.00,VWS V14.01,2013-05-27 03:17:00,
2013-05-26 23:18:00,59.2,44.5,29.97,East,93,0.0,0.0,58,0.00,,OVC100,0.00,0.00,VWS V14.01,2013-05-27 03:18:00,
2013-05-26 23:19:00,59.2,43.5,29.97,East,93,0.0,0.0,56,0.00,,OVC100,0.00,0.00,VWS V14.01,2013-05-27 03:19:00,
2013-05-26 23:20:00,59.2,44.0,29.97,East,93,0.0,0.0,57,0.00,,OVC100,0.00,0.00,VWS V14.01,2013-05-27 03:20:00,
2013-05-26 23:21:00,59.2,44.0,29.97,East,93,0.0,0.0,57,0.00,,OVC100,0.00,0.00,VWS V14.01,2013-05-27 03:21:00,
2013-05-26 23:22:00,59.0,44.3,29.97,East,93,0.0,0.0,58,0.00,,OVC100,0.00,0.00,VWS V14.01,2013-05-27 03:22:00,
2013-05-26 23:23:00,59.0,44.7,29.97,East,93,0.0,0.0,59,0.00,,OVC100,0.00,0.00,VWS V14.01,2013-05-27 03:23:00,
2013-05-26 23:24:00,58.9,44.6,29.97,East,93,0.0,0.0,59,0.00,,OVC100,0.00,0.00,VWS V14.01,2013-05-27 03:24:00,
2013-05-26 23:25:00,58.9,44.6,29.97,East,93,0.0,0.0,59,0.00,,OVC100,0.00,0.00,VWS V14.01,2013-05-27 03:25:00,
2013-05-26 23:26:00,58.9,45.1,29.97,East,93,0.0,0.0,60,0.00,,OVC100,0.00,0.00,VWS V14.01,2013-05-27 03:26:00,
2013-05-26 23:27:00,58.9,45.1,29.97,East,93,0.0,0.0,60,0.00,,OVC100,0.00,0.00,VWS V14.01,2013-05-27 03:27:00,
2013-05-26 23:28:00,58.9,45.5,29.97,East,93,0.0,0.0,61,0.00,,OVC100,0.00,0.00,VWS V14.01,2013-05-27 03:28:00,
2013-05-26 23:29:00,58.9,45.5,29.97,East,93,0.0,0.0,61,0.00,,OVC100,0.00,0.00,VWS V14.01,2013-05-27 03:29:00,
2013-05-26 23:30:00,58.7,45.3,29.97,East,93,0.0,0.0,61,0.00,,OVC100,0.00,0.00,VWS V14.01,2013-05-27 03:30:00,
2013-05-26 23:31:00,58.7,45.3,29.97,East,93,0.0,0.0,61,0.00,,OVC100,0.00,0.00,VWS V14.01,2013-05-27 03:31:00,
2013-05-26 23:32:00,58.7,45.3,29.97,East,93,0.0,0.0,61,0.00,,OVC100,0.00,0.00,VWS V14.01,2013-05-27 03:32:00,
2013-05-26 23:33:00,58.7,45.3,29.97,East,93,0.0,0.0,61,0.00,,OVC100,0.00,0.00,VWS V14.01,2013-05-27 03:33:00,
2013-05-26 23:34:00,58.7,45.7,29.97,East,93,0.0,0.0,62,0.00,,OVC100,0.00,0.00,VWS V14.01,2013-05-27 03:34:00,
2013-05-26 23:35:00,58.7,46.2,29.97,East,93,0.0,0.0,63,0.00,,OVC100,0.00,0.00,VWS V14.01,2013-05-27 03:35:00,
2013-05-26 23:36:00,58.7,46.6,29.97,East,93,0.0,0.0,64,0.00,,OVC100,0.00,0.00,VWS V14.01,2013-05-27 03:36:00,
2013-05-26 23:37:00,58.7,45.7,29.97,East,93,0.0,0.0,62,0.00,,OVC100,0.00,0.00,VWS V14.01,2013-05-27 03:37:00,
2013-05-26 23:38:00,58.7,46.2,29.97,East,93,0.0,0.0,63,0.00,,OVC100,0.00,0.00,VWS V14.01,2013-05-27 03:38:00,
2013-05-26 23:39:00,58.7,45.3,29.97,East,93,0.0,0.0,61,0.00,,OVC100,0.00,0.00,VWS V14.01,2013-05-27 03:39:00,
2013-05-26 23:40:00,58.7,45.7,29.97,East,93,0.0,0.0,62,0.00,,OVC100,0.00,0.00,VWS V14.01,2013-05-27 03:40:00,
2013-05-26 23:41:00,58.7,44.9,29.97,East,93,0.0,0.0,60,0.00,,OVC100,0.00,0.00,VWS V14.01,2013-05-27 03:41:00,
2013-05-26 23:42:00,58.7,45.3,29.97,East,93,0.0,0.0,61,0.00,,OVC100,0.00,0.00,VWS V14.01,2013-05-27 03:42:00,
2013-05-26 23:43:00,58.7,44.9,29.97,East,93,0.0,0.0,60,0.00,,OVC100,0.00,0.00,VWS V14.01,2013-05-27 03:43:00,
2013-05-26 23:44:00,58.7,44.9,29.97,East,93,0.0,0.0,60,0.00,,OVC100,0.00,0.00,VWS V14.01,2013-05-27 03:44:00,
2013-05-26 23:45:00,58.7,45.3,29.97,East,93,0.0,0.0,61,0.00,,OVC100,0.00,0.00,VWS V14.01,2013-05-27 03:45:00,
2013-05-26 23:46:00,58.7,45.3,29.97,East,93,0.0,0.0,61,0.00,,OVC100,0.00,0.00,VWS V14.01,2013-05-27 03:46:00,
2013-05-26 23:47:00,58.7,44.9,29.97,East,93,0.0,0.0,60,0.00,,OVC100,0.00,0.00,VWS V14.01,2013-05-27 03:47:00,
2013-05-26 23:48:00,58.7,44.9,29.97,East,93,0.0,0.0,60,0.00,,OVC100,0.00,0.00,VWS V14.01,2013-05-27 03:48:00,
2013-05-26 23:49:00,58.7,45.3,29.97,East,93,0.0,0.0,61,0.00,,OVC100,0.00,0.00,VWS V14.01,2013-05-27 03:49:00,
2013-05-26 23:50:00,58.6,45.2,29.97,East,93,0.0,0.0,61,0.00,,OVC100,0.00,0.00,VWS V14.01,2013-05-27 03:50:00,
2013-05-26 23:51:00,58.6,45.2,29.97,East,93,0.0,0.0,61,0.00,,OVC100,0.00,0.00,VWS V14.01,2013-05-27 03:51:00,
2013-05-26 23:52:00,58.6,45.2,29.97,East,93,0.0,0.0,61,0.00,,OVC100,0.00,0.00,VWS V14.01,2013-05-27 03:52:00,
2013-05-26 23:53:00,58.6,45.6,29.97,East,93,0.0,0.0,62,0.00,,OVC100,0.00,0.00,VWS V14.01,2013-05-27 03:53:00,
2013-05-26 23:54:00,58.6,45.6,29.97,East,93,0.0,0.0,62,0.00,,OVC100,0.00,0.00,VWS V14.01,2013-05-27 03:54:00,
2013-05-26 23:55:00,58.6,46.5,29.97,East,93,0.0,0.0,64,0.00,,OVC100,0.00,0.00,VWS V14.01,2013-05-27 03:55:00,
2013-05-26 23:56:00,58.6,46.5,29.97,East,93,0.0,0.0,64,0.00,,OVC100,0.00,0.00,VWS V14.01,2013-05-27 03:56:00,
2013-05-26 23:57:00,58.4,45.9,29.97,East,93,0.0,0.0,63,0.00,,OVC100,0.00,0.00,VWS V14.01,2013-05-27 03:57:00,
2013-05-26 23:58:00,58.4,45.9,29.97,East,93,0.0,0.0,63,0.00,,OVC100,0.00,0.00,VWS V14.01,2013-05-27 03:58:00,
2013-05-26 23:59:00,58.4,45.9,29.97,East,93,0.0,0.0,63,0.00,,OVC100,0.00,0.00,VWS V14.01,2013-05-27 03:59:00,